<?xml version="1.0" encoding="UTF-8" standalone="no" ?>
<gpx xmlns="http://www.topografix.com/GPX/1/1" xmlns:xsi="http://www.w3.org/2001/XMLSchema-instance" xsi:schemaLocation="http://www.topografix.com/GPX/1/1 http://www.topografix.com/GPX/1/1/gpx.xsd" version="1.1" creator="VisuGPX - https://www.visugpx.com">
  <metadata>
    <name>Pic et tour du Canigou </name>
    <desc><![CDATA[Trek effectué du dimanche 30/08/2020 vers 13h au jeudi 3 vers 10h.]]></desc>
  </metadata>
  <trk>
    <name><![CDATA[Pic et tour du Canigou _4]]></name>
    <extensions>
      <line xmlns="http://www.topografix.com/GPX/gpx_style/0/2">
        <color>ffbb00</color>
        <opacity>1</opacity>
        <width>4</width>
      </line>
    </extensions>
    <trkseg>
      <trkpt lat="42.45392" lon="2.49675">
        <ele>1329.6</ele>
        <time>2020-09-02T06:00:00.000Z</time>
      </trkpt>
      <trkpt lat="42.45392" lon="2.49676">
        <ele>1329.7</ele>
        <time>2020-09-02T06:00:03.350Z</time>
      </trkpt>
      <trkpt lat="42.45395" lon="2.49676">
        <ele>1329.8</ele>
        <time>2020-09-02T06:00:08.432Z</time>
      </trkpt>
      <trkpt lat="42.454" lon="2.49677">
        <ele>1329.9</ele>
        <time>2020-09-02T06:00:15.698Z</time>
      </trkpt>
      <trkpt lat="42.45418" lon="2.49681">
        <ele>1334.2</ele>
        <time>2020-09-02T06:01:38.504Z</time>
      </trkpt>
      <trkpt lat="42.45423" lon="2.49682">
        <ele>1334.8</ele>
        <time>2020-09-02T06:01:57.423Z</time>
      </trkpt>
      <trkpt lat="42.4543" lon="2.49685">
        <ele>1336</ele>
        <time>2020-09-02T06:02:30.752Z</time>
      </trkpt>
      <trkpt lat="42.45435" lon="2.49689">
        <ele>1337.1</ele>
        <time>2020-09-02T06:02:57.110Z</time>
      </trkpt>
      <trkpt lat="42.4544" lon="2.49693">
        <ele>1338.1</ele>
        <time>2020-09-02T06:03:23.468Z</time>
      </trkpt>
      <trkpt lat="42.45446" lon="2.49696">
        <ele>1338.9</ele>
        <time>2020-09-02T06:03:49.377Z</time>
      </trkpt>
      <trkpt lat="42.45453" lon="2.497">
        <ele>1339.6</ele>
        <time>2020-09-02T06:04:10.975Z</time>
      </trkpt>
      <trkpt lat="42.45459" lon="2.49704">
        <ele>1340.2</ele>
        <time>2020-09-02T06:04:29.579Z</time>
      </trkpt>
      <trkpt lat="42.45466" lon="2.49707">
        <ele>1340.8</ele>
        <time>2020-09-02T06:04:48.653Z</time>
      </trkpt>
      <trkpt lat="42.45472" lon="2.49709">
        <ele>1341.4</ele>
        <time>2020-09-02T06:05:07.046Z</time>
      </trkpt>
      <trkpt lat="42.45477" lon="2.49711">
        <ele>1342</ele>
        <time>2020-09-02T06:05:25.753Z</time>
      </trkpt>
      <trkpt lat="42.45483" lon="2.49713">
        <ele>1342.7</ele>
        <time>2020-09-02T06:05:47.478Z</time>
      </trkpt>
      <trkpt lat="42.45488" lon="2.49715">
        <ele>1343.3</ele>
        <time>2020-09-02T06:06:06.185Z</time>
      </trkpt>
      <trkpt lat="42.45495" lon="2.49716">
        <ele>1343.8</ele>
        <time>2020-09-02T06:06:22.987Z</time>
      </trkpt>
      <trkpt lat="42.455" lon="2.49716">
        <ele>1343.9</ele>
        <time>2020-09-02T06:06:30.191Z</time>
      </trkpt>
      <trkpt lat="42.45507" lon="2.49714">
        <ele>1348.3</ele>
        <time>2020-09-02T06:07:02.668Z</time>
      </trkpt>
      <trkpt lat="42.45514" lon="2.49713">
        <ele>1347.9</ele>
        <time>2020-09-02T06:07:04.310Z</time>
      </trkpt>
      <trkpt lat="42.45521" lon="2.49711">
        <ele>1347.7</ele>
        <time>2020-09-02T06:07:06.495Z</time>
      </trkpt>
      <trkpt lat="42.45529" lon="2.49708">
        <ele>1347.4</ele>
        <time>2020-09-02T06:07:08.826Z</time>
      </trkpt>
      <trkpt lat="42.45535" lon="2.49704">
        <ele>1347.2</ele>
        <time>2020-09-02T06:07:10.827Z</time>
      </trkpt>
      <trkpt lat="42.45543" lon="2.49701">
        <ele>1346.9</ele>
        <time>2020-09-02T06:07:13.158Z</time>
      </trkpt>
      <trkpt lat="42.4555" lon="2.49697">
        <ele>1346.6</ele>
        <time>2020-09-02T06:07:15.223Z</time>
      </trkpt>
      <trkpt lat="42.45557" lon="2.49693">
        <ele>1346</ele>
        <time>2020-09-02T06:07:17.013Z</time>
      </trkpt>
      <trkpt lat="42.45565" lon="2.49689">
        <ele>1345</ele>
        <time>2020-09-02T06:07:19.023Z</time>
      </trkpt>
      <trkpt lat="42.45572" lon="2.49684">
        <ele>1343.4</ele>
        <time>2020-09-02T06:07:20.887Z</time>
      </trkpt>
      <trkpt lat="42.4558" lon="2.49678">
        <ele>1340.9</ele>
        <time>2020-09-02T06:07:23.041Z</time>
      </trkpt>
      <trkpt lat="42.45587" lon="2.49672">
        <ele>1342.2</ele>
        <time>2020-09-02T06:08:00.641Z</time>
      </trkpt>
      <trkpt lat="42.45595" lon="2.49666">
        <ele>1335</ele>
        <time>2020-09-02T06:08:02.795Z</time>
      </trkpt>
      <trkpt lat="42.45602" lon="2.49661">
        <ele>1334.7</ele>
        <time>2020-09-02T06:08:04.979Z</time>
      </trkpt>
      <trkpt lat="42.45608" lon="2.49655">
        <ele>1334.6</ele>
        <time>2020-09-02T06:08:07.678Z</time>
      </trkpt>
      <trkpt lat="42.45616" lon="2.49648">
        <ele>1334.5</ele>
        <time>2020-09-02T06:08:11.257Z</time>
      </trkpt>
      <trkpt lat="42.45622" lon="2.49642">
        <ele>1334.4</ele>
        <time>2020-09-02T06:08:13.956Z</time>
      </trkpt>
      <trkpt lat="42.45627" lon="2.49635">
        <ele>1334</ele>
        <time>2020-09-02T06:08:15.649Z</time>
      </trkpt>
      <trkpt lat="42.45631" lon="2.49628">
        <ele>1333.3</ele>
        <time>2020-09-02T06:08:17.189Z</time>
      </trkpt>
      <trkpt lat="42.45635" lon="2.4962">
        <ele>1332.6</ele>
        <time>2020-09-02T06:08:18.869Z</time>
      </trkpt>
      <trkpt lat="42.45638" lon="2.49614">
        <ele>1331.9</ele>
        <time>2020-09-02T06:08:20.129Z</time>
      </trkpt>
      <trkpt lat="42.45642" lon="2.49609">
        <ele>1331.4</ele>
        <time>2020-09-02T06:08:21.411Z</time>
      </trkpt>
      <trkpt lat="42.45645" lon="2.49605">
        <ele>1331.1</ele>
        <time>2020-09-02T06:08:22.402Z</time>
      </trkpt>
      <trkpt lat="42.4565" lon="2.49602">
        <ele>1330.8</ele>
        <time>2020-09-02T06:08:23.699Z</time>
      </trkpt>
      <trkpt lat="42.45655" lon="2.49599">
        <ele>1330.5</ele>
        <time>2020-09-02T06:08:24.995Z</time>
      </trkpt>
      <trkpt lat="42.45661" lon="2.49597">
        <ele>1330.2</ele>
        <time>2020-09-02T06:08:26.541Z</time>
      </trkpt>
      <trkpt lat="42.45667" lon="2.49595">
        <ele>1337.4</ele>
        <time>2020-09-02T06:08:54.591Z</time>
      </trkpt>
      <trkpt lat="42.45676" lon="2.49592">
        <ele>1338.3</ele>
        <time>2020-09-02T06:09:22.180Z</time>
      </trkpt>
      <trkpt lat="42.45682" lon="2.49589">
        <ele>1340.5</ele>
        <time>2020-09-02T06:09:51.213Z</time>
      </trkpt>
      <trkpt lat="42.45688" lon="2.49585">
        <ele>1342.8</ele>
        <time>2020-09-02T06:10:21.568Z</time>
      </trkpt>
      <trkpt lat="42.45695" lon="2.49581">
        <ele>1335.5</ele>
        <time>2020-09-02T06:10:23.358Z</time>
      </trkpt>
      <trkpt lat="42.45701" lon="2.49577">
        <ele>1336.7</ele>
        <time>2020-09-02T06:10:53.713Z</time>
      </trkpt>
      <trkpt lat="42.45709" lon="2.49571">
        <ele>1338.3</ele>
        <time>2020-09-02T06:11:35.220Z</time>
      </trkpt>
      <trkpt lat="42.45729" lon="2.4956">
        <ele>1341.5</ele>
        <time>2020-09-02T06:13:13.204Z</time>
      </trkpt>
      <trkpt lat="42.45738" lon="2.49552">
        <ele>1341.6</ele>
        <time>2020-09-02T06:13:27.050Z</time>
      </trkpt>
      <trkpt lat="42.45741" lon="2.49549">
        <ele>1341.2</ele>
        <time>2020-09-02T06:13:27.929Z</time>
      </trkpt>
      <trkpt lat="42.45743" lon="2.49544">
        <ele>1340.7</ele>
        <time>2020-09-02T06:13:28.917Z</time>
      </trkpt>
      <trkpt lat="42.45746" lon="2.49538">
        <ele>1339.9</ele>
        <time>2020-09-02T06:13:30.177Z</time>
      </trkpt>
      <trkpt lat="42.45749" lon="2.4953">
        <ele>1339.3</ele>
        <time>2020-09-02T06:13:31.737Z</time>
      </trkpt>
      <trkpt lat="42.45752" lon="2.49521">
        <ele>1355.9</ele>
        <time>2020-09-02T06:14:04.815Z</time>
      </trkpt>
      <trkpt lat="42.45756" lon="2.49512">
        <ele>1351.7</ele>
        <time>2020-09-02T06:14:06.642Z</time>
      </trkpt>
      <trkpt lat="42.45759" lon="2.49503">
        <ele>1348.9</ele>
        <time>2020-09-02T06:14:08.359Z</time>
      </trkpt>
      <trkpt lat="42.45763" lon="2.49497">
        <ele>1348.7</ele>
        <time>2020-09-02T06:14:10.078Z</time>
      </trkpt>
      <trkpt lat="42.45769" lon="2.49492">
        <ele>1352.2</ele>
        <time>2020-09-02T06:14:42.053Z</time>
      </trkpt>
      <trkpt lat="42.45773" lon="2.49485">
        <ele>1354.5</ele>
        <time>2020-09-02T06:15:11.708Z</time>
      </trkpt>
      <trkpt lat="42.45774" lon="2.49478">
        <ele>1355.7</ele>
        <time>2020-09-02T06:15:35.589Z</time>
      </trkpt>
      <trkpt lat="42.45774" lon="2.49474">
        <ele>1356.1</ele>
        <time>2020-09-02T06:15:48.986Z</time>
      </trkpt>
      <trkpt lat="42.45773" lon="2.49465">
        <ele>1356.5</ele>
        <time>2020-09-02T06:16:03.729Z</time>
      </trkpt>
      <trkpt lat="42.45772" lon="2.49461">
        <ele>1356.6</ele>
        <time>2020-09-02T06:16:08.924Z</time>
      </trkpt>
      <trkpt lat="42.45772" lon="2.49458">
        <ele>1356.6</ele>
        <time>2020-09-02T06:16:11.529Z</time>
      </trkpt>
      <trkpt lat="42.45771" lon="2.49454">
        <ele>1356.6</ele>
        <time>2020-09-02T06:16:15.196Z</time>
      </trkpt>
      <trkpt lat="42.4577" lon="2.49452">
        <ele>1356.4</ele>
        <time>2020-09-02T06:16:15.616Z</time>
      </trkpt>
      <trkpt lat="42.45768" lon="2.4945">
        <ele>1356.1</ele>
        <time>2020-09-02T06:16:16.202Z</time>
      </trkpt>
      <trkpt lat="42.45765" lon="2.4945">
        <ele>1355.7</ele>
        <time>2020-09-02T06:16:16.909Z</time>
      </trkpt>
      <trkpt lat="42.45762" lon="2.4945">
        <ele>1355.4</ele>
        <time>2020-09-02T06:16:17.615Z</time>
      </trkpt>
      <trkpt lat="42.45758" lon="2.49451">
        <ele>1355</ele>
        <time>2020-09-02T06:16:18.574Z</time>
      </trkpt>
      <trkpt lat="42.45753" lon="2.49451">
        <ele>1354.5</ele>
        <time>2020-09-02T06:16:19.752Z</time>
      </trkpt>
      <trkpt lat="42.45748" lon="2.4945">
        <ele>1343.7</ele>
        <time>2020-09-02T06:16:20.943Z</time>
      </trkpt>
      <trkpt lat="42.45741" lon="2.49449">
        <ele>1343.7</ele>
        <time>2020-09-02T06:16:29.227Z</time>
      </trkpt>
      <trkpt lat="42.45732" lon="2.49448">
        <ele>1343.7</ele>
        <time>2020-09-02T06:16:39.856Z</time>
      </trkpt>
      <trkpt lat="42.45724" lon="2.49446">
        <ele>1343.7</ele>
        <time>2020-09-02T06:16:49.430Z</time>
      </trkpt>
      <trkpt lat="42.45717" lon="2.49445">
        <ele>1343.7</ele>
        <time>2020-09-02T06:16:57.714Z</time>
      </trkpt>
      <trkpt lat="42.45711" lon="2.49443">
        <ele>1343.9</ele>
        <time>2020-09-02T06:17:08.052Z</time>
      </trkpt>
      <trkpt lat="42.45705" lon="2.4944">
        <ele>1344.4</ele>
        <time>2020-09-02T06:17:24.194Z</time>
      </trkpt>
      <trkpt lat="42.45698" lon="2.49438">
        <ele>1344.9</ele>
        <time>2020-09-02T06:17:41.123Z</time>
      </trkpt>
      <trkpt lat="42.45692" lon="2.49438">
        <ele>1345.4</ele>
        <time>2020-09-02T06:17:56.921Z</time>
      </trkpt>
      <trkpt lat="42.45685" lon="2.49438">
        <ele>1346.1</ele>
        <time>2020-09-02T06:18:18.346Z</time>
      </trkpt>
      <trkpt lat="42.45677" lon="2.49437">
        <ele>1347.2</ele>
        <time>2020-09-02T06:18:54.818Z</time>
      </trkpt>
      <trkpt lat="42.45669" lon="2.49436">
        <ele>1348.1</ele>
        <time>2020-09-02T06:19:22.671Z</time>
      </trkpt>
      <trkpt lat="42.45662" lon="2.49435">
        <ele>1346.9</ele>
        <time>2020-09-02T06:19:24.330Z</time>
      </trkpt>
      <trkpt lat="42.45655" lon="2.49435">
        <ele>1346</ele>
        <time>2020-09-02T06:19:25.979Z</time>
      </trkpt>
      <trkpt lat="42.45649" lon="2.49435">
        <ele>1345.2</ele>
        <time>2020-09-02T06:19:27.393Z</time>
      </trkpt>
      <trkpt lat="42.45643" lon="2.49435">
        <ele>1344.3</ele>
        <time>2020-09-02T06:19:28.807Z</time>
      </trkpt>
      <trkpt lat="42.45638" lon="2.49437">
        <ele>1343.4</ele>
        <time>2020-09-02T06:19:30.035Z</time>
      </trkpt>
      <trkpt lat="42.45633" lon="2.49439">
        <ele>1342.8</ele>
        <time>2020-09-02T06:19:31.263Z</time>
      </trkpt>
      <trkpt lat="42.45628" lon="2.4944">
        <ele>1342.3</ele>
        <time>2020-09-02T06:19:32.454Z</time>
      </trkpt>
      <trkpt lat="42.45622" lon="2.49441">
        <ele>1342</ele>
        <time>2020-09-02T06:19:33.953Z</time>
      </trkpt>
      <trkpt lat="42.45612" lon="2.49442">
        <ele>1342</ele>
        <time>2020-09-02T06:19:45.754Z</time>
      </trkpt>
      <trkpt lat="42.45601" lon="2.49442">
        <ele>1342.7</ele>
        <time>2020-09-02T06:20:10.613Z</time>
      </trkpt>
      <trkpt lat="42.45595" lon="2.49441">
        <ele>1343.5</ele>
        <time>2020-09-02T06:20:37.628Z</time>
      </trkpt>
      <trkpt lat="42.45588" lon="2.49438">
        <ele>1344.9</ele>
        <time>2020-09-02T06:21:10.957Z</time>
      </trkpt>
      <trkpt lat="42.45581" lon="2.49435">
        <ele>1340.8</ele>
        <time>2020-09-02T06:21:12.687Z</time>
      </trkpt>
      <trkpt lat="42.45574" lon="2.49431">
        <ele>1341.4</ele>
        <time>2020-09-02T06:21:31.986Z</time>
      </trkpt>
      <trkpt lat="42.45569" lon="2.49427">
        <ele>1340.9</ele>
        <time>2020-09-02T06:21:33.354Z</time>
      </trkpt>
      <trkpt lat="42.45563" lon="2.49421">
        <ele>1339.8</ele>
        <time>2020-09-02T06:21:35.111Z</time>
      </trkpt>
      <trkpt lat="42.45558" lon="2.49415">
        <ele>1349.4</ele>
        <time>2020-09-02T06:22:05.427Z</time>
      </trkpt>
      <trkpt lat="42.45554" lon="2.4941">
        <ele>1348.6</ele>
        <time>2020-09-02T06:22:06.710Z</time>
      </trkpt>
      <trkpt lat="42.45551" lon="2.49404">
        <ele>1347.9</ele>
        <time>2020-09-02T06:22:07.970Z</time>
      </trkpt>
      <trkpt lat="42.45548" lon="2.49396">
        <ele>1347.5</ele>
        <time>2020-09-02T06:22:09.470Z</time>
      </trkpt>
      <trkpt lat="42.45547" lon="2.49387">
        <ele>1347.8</ele>
        <time>2020-09-02T06:22:22.824Z</time>
      </trkpt>
      <trkpt lat="42.45546" lon="2.49371">
        <ele>1348.9</ele>
        <time>2020-09-02T06:22:56.722Z</time>
      </trkpt>
      <trkpt lat="42.4555" lon="2.49356">
        <ele>1351.3</ele>
        <time>2020-09-02T06:23:50.144Z</time>
      </trkpt>
      <trkpt lat="42.45552" lon="2.49351">
        <ele>1352.3</ele>
        <time>2020-09-02T06:24:09.194Z</time>
      </trkpt>
      <trkpt lat="42.45553" lon="2.49344">
        <ele>1353.5</ele>
        <time>2020-09-02T06:24:33.076Z</time>
      </trkpt>
      <trkpt lat="42.45554" lon="2.49337">
        <ele>1354.4</ele>
        <time>2020-09-02T06:24:56.957Z</time>
      </trkpt>
      <trkpt lat="42.45555" lon="2.49329">
        <ele>1360.6</ele>
        <time>2020-09-02T06:25:24.134Z</time>
      </trkpt>
      <trkpt lat="42.45555" lon="2.4932">
        <ele>1360.5</ele>
        <time>2020-09-02T06:25:26.489Z</time>
      </trkpt>
      <trkpt lat="42.45554" lon="2.49312">
        <ele>1360.1</ele>
        <time>2020-09-02T06:25:27.899Z</time>
      </trkpt>
      <trkpt lat="42.45552" lon="2.49303">
        <ele>1359.6</ele>
        <time>2020-09-02T06:25:29.533Z</time>
      </trkpt>
      <trkpt lat="42.4555" lon="2.49294">
        <ele>1359.4</ele>
        <time>2020-09-02T06:25:31.632Z</time>
      </trkpt>
      <trkpt lat="42.45548" lon="2.49284">
        <ele>1359.5</ele>
        <time>2020-09-02T06:25:41.854Z</time>
      </trkpt>
      <trkpt lat="42.45547" lon="2.49274">
        <ele>1359.8</ele>
        <time>2020-09-02T06:25:55.743Z</time>
      </trkpt>
      <trkpt lat="42.45547" lon="2.49264">
        <ele>1360.3</ele>
        <time>2020-09-02T06:26:12.928Z</time>
      </trkpt>
      <trkpt lat="42.45547" lon="2.49254">
        <ele>1361</ele>
        <time>2020-09-02T06:26:34.436Z</time>
      </trkpt>
      <trkpt lat="42.45549" lon="2.49244">
        <ele>1363</ele>
        <time>2020-09-02T06:27:09.139Z</time>
      </trkpt>
      <trkpt lat="42.45551" lon="2.49234">
        <ele>1363.3</ele>
        <time>2020-09-02T06:27:23.185Z</time>
      </trkpt>
      <trkpt lat="42.45553" lon="2.49224">
        <ele>1363.5</ele>
        <time>2020-09-02T06:27:35.018Z</time>
      </trkpt>
      <trkpt lat="42.45556" lon="2.49213">
        <ele>1363.7</ele>
        <time>2020-09-02T06:27:47.937Z</time>
      </trkpt>
      <trkpt lat="42.45559" lon="2.49201">
        <ele>1364.7</ele>
        <time>2020-09-02T06:28:18.635Z</time>
      </trkpt>
      <trkpt lat="42.45563" lon="2.49189">
        <ele>1367</ele>
        <time>2020-09-02T06:29:02.739Z</time>
      </trkpt>
      <trkpt lat="42.45568" lon="2.49176">
        <ele>1371.1</ele>
        <time>2020-09-02T06:29:51.843Z</time>
      </trkpt>
      <trkpt lat="42.45573" lon="2.49162">
        <ele>1374.6</ele>
        <time>2020-09-02T06:30:43.940Z</time>
      </trkpt>
      <trkpt lat="42.45577" lon="2.49149">
        <ele>1371.9</ele>
        <time>2020-09-02T06:30:46.388Z</time>
      </trkpt>
      <trkpt lat="42.45581" lon="2.49138">
        <ele>1369.6</ele>
        <time>2020-09-02T06:30:48.520Z</time>
      </trkpt>
      <trkpt lat="42.45586" lon="2.49126">
        <ele>1396.7</ele>
        <time>2020-09-02T06:31:34.680Z</time>
      </trkpt>
      <trkpt lat="42.45591" lon="2.49113">
        <ele>1396.4</ele>
        <time>2020-09-02T06:31:37.992Z</time>
      </trkpt>
      <trkpt lat="42.45594" lon="2.49102">
        <ele>1394.7</ele>
        <time>2020-09-02T06:31:40.031Z</time>
      </trkpt>
      <trkpt lat="42.45595" lon="2.49093">
        <ele>1392.6</ele>
        <time>2020-09-02T06:31:41.613Z</time>
      </trkpt>
      <trkpt lat="42.45596" lon="2.49083">
        <ele>1392.8</ele>
        <time>2020-09-02T06:31:53.236Z</time>
      </trkpt>
      <trkpt lat="42.45597" lon="2.49074">
        <ele>1394.8</ele>
        <time>2020-09-02T06:32:23.720Z</time>
      </trkpt>
      <trkpt lat="42.45596" lon="2.49064">
        <ele>1397.7</ele>
        <time>2020-09-02T06:32:57.520Z</time>
      </trkpt>
      <trkpt lat="42.45594" lon="2.49055">
        <ele>1399.5</ele>
        <time>2020-09-02T06:33:29.003Z</time>
      </trkpt>
      <trkpt lat="42.45592" lon="2.49047">
        <ele>1400.5</ele>
        <time>2020-09-02T06:33:57.294Z</time>
      </trkpt>
      <trkpt lat="42.4559" lon="2.4904">
        <ele>1400.9</ele>
        <time>2020-09-02T06:34:10.635Z</time>
      </trkpt>
      <trkpt lat="42.45587" lon="2.49031">
        <ele>1400.8</ele>
        <time>2020-09-02T06:34:13.262Z</time>
      </trkpt>
      <trkpt lat="42.45585" lon="2.49024">
        <ele>1400.1</ele>
        <time>2020-09-02T06:34:14.567Z</time>
      </trkpt>
      <trkpt lat="42.45582" lon="2.49017">
        <ele>1379.2</ele>
        <time>2020-09-02T06:34:15.974Z</time>
      </trkpt>
      <trkpt lat="42.4558" lon="2.49008">
        <ele>1384</ele>
        <time>2020-09-02T06:34:47.456Z</time>
      </trkpt>
      <trkpt lat="42.4558" lon="2.49">
        <ele>1388.5</ele>
        <time>2020-09-02T06:35:14.251Z</time>
      </trkpt>
      <trkpt lat="42.45581" lon="2.48984">
        <ele>1379.5</ele>
        <time>2020-09-02T06:35:17.043Z</time>
      </trkpt>
      <trkpt lat="42.45581" lon="2.48976">
        <ele>1376.3</ele>
        <time>2020-09-02T06:35:18.434Z</time>
      </trkpt>
      <trkpt lat="42.45582" lon="2.48966">
        <ele>1373.9</ele>
        <time>2020-09-02T06:35:20.188Z</time>
      </trkpt>
      <trkpt lat="42.45585" lon="2.48957">
        <ele>1397.6</ele>
        <time>2020-09-02T06:35:53.267Z</time>
      </trkpt>
      <trkpt lat="42.45589" lon="2.48947">
        <ele>1396.4</ele>
        <time>2020-09-02T06:35:55.244Z</time>
      </trkpt>
      <trkpt lat="42.45594" lon="2.48936">
        <ele>1394.2</ele>
        <time>2020-09-02T06:35:57.490Z</time>
      </trkpt>
      <trkpt lat="42.45599" lon="2.48924">
        <ele>1392.6</ele>
        <time>2020-09-02T06:35:59.886Z</time>
      </trkpt>
      <trkpt lat="42.45603" lon="2.48914">
        <ele>1388.8</ele>
        <time>2020-09-02T06:36:01.864Z</time>
      </trkpt>
      <trkpt lat="42.45606" lon="2.48907">
        <ele>1390</ele>
        <time>2020-09-02T06:36:28.978Z</time>
      </trkpt>
      <trkpt lat="42.45609" lon="2.48899">
        <ele>1391.1</ele>
        <time>2020-09-02T06:36:59.035Z</time>
      </trkpt>
      <trkpt lat="42.45612" lon="2.48895">
        <ele>1392</ele>
        <time>2020-09-02T06:37:18.140Z</time>
      </trkpt>
      <trkpt lat="42.45615" lon="2.48894">
        <ele>1392.6</ele>
        <time>2020-09-02T06:37:32.165Z</time>
      </trkpt>
      <trkpt lat="42.45618" lon="2.48895">
        <ele>1393.2</ele>
        <time>2020-09-02T06:37:46.190Z</time>
      </trkpt>
      <trkpt lat="42.45619" lon="2.48896">
        <ele>1393.6</ele>
        <time>2020-09-02T06:37:51.831Z</time>
      </trkpt>
      <trkpt lat="42.4562" lon="2.48899">
        <ele>1393.9</ele>
        <time>2020-09-02T06:38:01.475Z</time>
      </trkpt>
      <trkpt lat="42.4562" lon="2.48904">
        <ele>1393.9</ele>
        <time>2020-09-02T06:38:05.817Z</time>
      </trkpt>
      <trkpt lat="42.45619" lon="2.48913">
        <ele>1393.6</ele>
        <time>2020-09-02T06:38:07.557Z</time>
      </trkpt>
      <trkpt lat="42.45618" lon="2.48932">
        <ele>1400.5</ele>
        <time>2020-09-02T06:39:11.357Z</time>
      </trkpt>
      <trkpt lat="42.45618" lon="2.4894">
        <ele>1401.3</ele>
        <time>2020-09-02T06:39:38.152Z</time>
      </trkpt>
      <trkpt lat="42.45619" lon="2.48949">
        <ele>1402.4</ele>
        <time>2020-09-02T06:40:08.636Z</time>
      </trkpt>
      <trkpt lat="42.4562" lon="2.48957">
        <ele>1403.4</ele>
        <time>2020-09-02T06:40:35.813Z</time>
      </trkpt>
      <trkpt lat="42.45622" lon="2.48965">
        <ele>1404.3</ele>
        <time>2020-09-02T06:41:04.104Z</time>
      </trkpt>
      <trkpt lat="42.45624" lon="2.48972">
        <ele>1405.5</ele>
        <time>2020-09-02T06:41:29.247Z</time>
      </trkpt>
      <trkpt lat="42.45628" lon="2.4898">
        <ele>1406.9</ele>
        <time>2020-09-02T06:42:01.615Z</time>
      </trkpt>
      <trkpt lat="42.45631" lon="2.48987">
        <ele>1408.6</ele>
        <time>2020-09-02T06:42:28.729Z</time>
      </trkpt>
      <trkpt lat="42.45635" lon="2.48993">
        <ele>1410.3</ele>
        <time>2020-09-02T06:42:55.815Z</time>
      </trkpt>
      <trkpt lat="42.45639" lon="2.48999">
        <ele>1412.3</ele>
        <time>2020-09-02T06:43:22.900Z</time>
      </trkpt>
      <trkpt lat="42.45644" lon="2.49008">
        <ele>1416.3</ele>
        <time>2020-09-02T06:44:00.634Z</time>
      </trkpt>
      <trkpt lat="42.45648" lon="2.49015">
        <ele>1416.9</ele>
        <time>2020-09-02T06:44:19.157Z</time>
      </trkpt>
      <trkpt lat="42.45653" lon="2.49026">
        <ele>1416.3</ele>
        <time>2020-09-02T06:44:21.274Z</time>
      </trkpt>
      <trkpt lat="42.45657" lon="2.49037">
        <ele>1415.5</ele>
        <time>2020-09-02T06:44:23.406Z</time>
      </trkpt>
      <trkpt lat="42.45661" lon="2.49047">
        <ele>1415.7</ele>
        <time>2020-09-02T06:44:36.042Z</time>
      </trkpt>
      <trkpt lat="42.45664" lon="2.4906">
        <ele>1417.4</ele>
        <time>2020-09-02T06:45:21.664Z</time>
      </trkpt>
      <trkpt lat="42.45666" lon="2.49073">
        <ele>1421.6</ele>
        <time>2020-09-02T06:46:06.142Z</time>
      </trkpt>
      <trkpt lat="42.45668" lon="2.49087">
        <ele>1428.5</ele>
        <time>2020-09-02T06:46:53.904Z</time>
      </trkpt>
      <trkpt lat="42.4567" lon="2.49103">
        <ele>1429.5</ele>
        <time>2020-09-02T06:47:25.480Z</time>
      </trkpt>
      <trkpt lat="42.45672" lon="2.49115">
        <ele>1429.6</ele>
        <time>2020-09-02T06:47:37.361Z</time>
      </trkpt>
      <trkpt lat="42.45673" lon="2.49128">
        <ele>1429.2</ele>
        <time>2020-09-02T06:47:39.934Z</time>
      </trkpt>
      <trkpt lat="42.45674" lon="2.49141">
        <ele>1428.3</ele>
        <time>2020-09-02T06:47:42.206Z</time>
      </trkpt>
      <trkpt lat="42.45676" lon="2.49156">
        <ele>1427.1</ele>
        <time>2020-09-02T06:47:44.856Z</time>
      </trkpt>
      <trkpt lat="42.45677" lon="2.49168">
        <ele>1422.1</ele>
        <time>2020-09-02T06:47:46.956Z</time>
      </trkpt>
      <trkpt lat="42.45679" lon="2.4918">
        <ele>1420.6</ele>
        <time>2020-09-02T06:47:49.094Z</time>
      </trkpt>
      <trkpt lat="42.45681" lon="2.4919">
        <ele>1419</ele>
        <time>2020-09-02T06:47:50.896Z</time>
      </trkpt>
      <trkpt lat="42.45684" lon="2.49197">
        <ele>1418.2</ele>
        <time>2020-09-02T06:47:52.303Z</time>
      </trkpt>
      <trkpt lat="42.45687" lon="2.49204">
        <ele>1417.3</ele>
        <time>2020-09-02T06:47:53.710Z</time>
      </trkpt>
      <trkpt lat="42.4569" lon="2.49209">
        <ele>1416.7</ele>
        <time>2020-09-02T06:47:54.831Z</time>
      </trkpt>
      <trkpt lat="42.45692" lon="2.49212">
        <ele>1416.4</ele>
        <time>2020-09-02T06:47:55.534Z</time>
      </trkpt>
      <trkpt lat="42.45694" lon="2.49213">
        <ele>1416.2</ele>
        <time>2020-09-02T06:47:56.036Z</time>
      </trkpt>
      <trkpt lat="42.45696" lon="2.49213">
        <ele>1416.1</ele>
        <time>2020-09-02T06:47:56.530Z</time>
      </trkpt>
      <trkpt lat="42.45696" lon="2.49211">
        <ele>1416.2</ele>
        <time>2020-09-02T06:47:59.967Z</time>
      </trkpt>
      <trkpt lat="42.45694" lon="2.49198">
        <ele>1417.6</ele>
        <time>2020-09-02T06:48:44.445Z</time>
      </trkpt>
      <trkpt lat="42.45692" lon="2.4919">
        <ele>1418.4</ele>
        <time>2020-09-02T06:49:10.807Z</time>
      </trkpt>
      <trkpt lat="42.45691" lon="2.49184">
        <ele>1419.1</ele>
        <time>2020-09-02T06:49:31.410Z</time>
      </trkpt>
      <trkpt lat="42.4569" lon="2.49177">
        <ele>1419.7</ele>
        <time>2020-09-02T06:49:50.066Z</time>
      </trkpt>
      <trkpt lat="42.45692" lon="2.4917">
        <ele>1419.9</ele>
        <time>2020-09-02T06:49:59.806Z</time>
      </trkpt>
      <trkpt lat="42.45694" lon="2.49161">
        <ele>1428</ele>
        <time>2020-09-02T06:50:31.288Z</time>
      </trkpt>
      <trkpt lat="42.45696" lon="2.49154">
        <ele>1428.4</ele>
        <time>2020-09-02T06:50:44.628Z</time>
      </trkpt>
      <trkpt lat="42.45699" lon="2.49143">
        <ele>1429.1</ele>
        <time>2020-09-02T06:51:06.956Z</time>
      </trkpt>
      <trkpt lat="42.45701" lon="2.49133">
        <ele>1429.9</ele>
        <time>2020-09-02T06:51:31.464Z</time>
      </trkpt>
      <trkpt lat="42.45708" lon="2.49104">
        <ele>1432.3</ele>
        <time>2020-09-02T06:52:45.110Z</time>
      </trkpt>
      <trkpt lat="42.45711" lon="2.49093">
        <ele>1433.3</ele>
        <time>2020-09-02T06:53:16.331Z</time>
      </trkpt>
      <trkpt lat="42.45713" lon="2.49083">
        <ele>1440.5</ele>
        <time>2020-09-02T06:53:51.033Z</time>
      </trkpt>
      <trkpt lat="42.45715" lon="2.49074">
        <ele>1440.9</ele>
        <time>2020-09-02T06:54:06.061Z</time>
      </trkpt>
      <trkpt lat="42.45715" lon="2.49064">
        <ele>1441.2</ele>
        <time>2020-09-02T06:54:19.898Z</time>
      </trkpt>
      <trkpt lat="42.45717" lon="2.49055">
        <ele>1441.6</ele>
        <time>2020-09-02T06:54:34.926Z</time>
      </trkpt>
      <trkpt lat="42.45719" lon="2.49045">
        <ele>1442.3</ele>
        <time>2020-09-02T06:54:56.547Z</time>
      </trkpt>
      <trkpt lat="42.4572" lon="2.49037">
        <ele>1442.9</ele>
        <time>2020-09-02T06:55:14.910Z</time>
      </trkpt>
      <trkpt lat="42.45722" lon="2.49027">
        <ele>1443.8</ele>
        <time>2020-09-02T06:55:43.195Z</time>
      </trkpt>
      <trkpt lat="42.45722" lon="2.49018">
        <ele>1444.6</ele>
        <time>2020-09-02T06:56:08.586Z</time>
      </trkpt>
      <trkpt lat="42.45722" lon="2.49009">
        <ele>1445.4</ele>
        <time>2020-09-02T06:56:33.976Z</time>
      </trkpt>
      <trkpt lat="42.45722" lon="2.48999">
        <ele>1443.7</ele>
        <time>2020-09-02T06:56:35.715Z</time>
      </trkpt>
      <trkpt lat="42.45723" lon="2.4899">
        <ele>1443.4</ele>
        <time>2020-09-02T06:56:37.454Z</time>
      </trkpt>
      <trkpt lat="42.45726" lon="2.48983">
        <ele>1443.1</ele>
        <time>2020-09-02T06:56:38.927Z</time>
      </trkpt>
      <trkpt lat="42.45728" lon="2.48974">
        <ele>1442.3</ele>
        <time>2020-09-02T06:56:40.561Z</time>
      </trkpt>
      <trkpt lat="42.45731" lon="2.48967">
        <ele>1441.7</ele>
        <time>2020-09-02T06:56:41.968Z</time>
      </trkpt>
      <trkpt lat="42.45733" lon="2.48962">
        <ele>1441.4</ele>
        <time>2020-09-02T06:56:42.957Z</time>
      </trkpt>
      <trkpt lat="42.45737" lon="2.48958">
        <ele>1441.4</ele>
        <time>2020-09-02T06:56:48.808Z</time>
      </trkpt>
      <trkpt lat="42.45741" lon="2.48956">
        <ele>1441.5</ele>
        <time>2020-09-02T06:56:55.199Z</time>
      </trkpt>
      <trkpt lat="42.45745" lon="2.48955">
        <ele>1441.8</ele>
        <time>2020-09-02T06:57:05.113Z</time>
      </trkpt>
      <trkpt lat="42.4576" lon="2.48955">
        <ele>1453.5</ele>
        <time>2020-09-02T06:58:13.209Z</time>
      </trkpt>
      <trkpt lat="42.45767" lon="2.48955">
        <ele>1453.8</ele>
        <time>2020-09-02T06:58:26.772Z</time>
      </trkpt>
      <trkpt lat="42.45775" lon="2.48955">
        <ele>1454.2</ele>
        <time>2020-09-02T06:58:43.236Z</time>
      </trkpt>
      <trkpt lat="42.45785" lon="2.48955">
        <ele>1454.7</ele>
        <time>2020-09-02T06:59:03.816Z</time>
      </trkpt>
      <trkpt lat="42.45794" lon="2.48954">
        <ele>1455.1</ele>
        <time>2020-09-02T06:59:21.700Z</time>
      </trkpt>
      <trkpt lat="42.45799" lon="2.48951">
        <ele>1455.5</ele>
        <time>2020-09-02T06:59:34.966Z</time>
      </trkpt>
      <trkpt lat="42.45804" lon="2.48947">
        <ele>1455.9</ele>
        <time>2020-09-02T06:59:48.603Z</time>
      </trkpt>
      <trkpt lat="42.45808" lon="2.48942">
        <ele>1456.5</ele>
        <time>2020-09-02T07:00:07.108Z</time>
      </trkpt>
      <trkpt lat="42.45812" lon="2.48936">
        <ele>1457.3</ele>
        <time>2020-09-02T07:00:34.193Z</time>
      </trkpt>
      <trkpt lat="42.45816" lon="2.4893">
        <ele>1458.5</ele>
        <time>2020-09-02T07:01:01.278Z</time>
      </trkpt>
      <trkpt lat="42.45821" lon="2.48924">
        <ele>1460.1</ele>
        <time>2020-09-02T07:01:31.594Z</time>
      </trkpt>
      <trkpt lat="42.45826" lon="2.48919">
        <ele>1461.9</ele>
        <time>2020-09-02T07:01:59.801Z</time>
      </trkpt>
      <trkpt lat="42.45831" lon="2.48916">
        <ele>1464.2</ele>
        <time>2020-09-02T07:02:24.625Z</time>
      </trkpt>
      <trkpt lat="42.45837" lon="2.48914">
        <ele>1464.9</ele>
        <time>2020-09-02T07:02:46.350Z</time>
      </trkpt>
      <trkpt lat="42.45843" lon="2.48912">
        <ele>1464.7</ele>
        <time>2020-09-02T07:02:48.152Z</time>
      </trkpt>
      <trkpt lat="42.45847" lon="2.48908">
        <ele>1464.6</ele>
        <time>2020-09-02T07:02:49.810Z</time>
      </trkpt>
      <trkpt lat="42.45851" lon="2.48902">
        <ele>1464.6</ele>
        <time>2020-09-02T07:02:56.832Z</time>
      </trkpt>
      <trkpt lat="42.45855" lon="2.48896">
        <ele>1464.7</ele>
        <time>2020-09-02T07:03:05.127Z</time>
      </trkpt>
      <trkpt lat="42.45859" lon="2.48888">
        <ele>1464.9</ele>
        <time>2020-09-02T07:03:16.421Z</time>
      </trkpt>
      <trkpt lat="42.45863" lon="2.48881">
        <ele>1465.3</ele>
        <time>2020-09-02T07:03:30.932Z</time>
      </trkpt>
      <trkpt lat="42.45867" lon="2.48875">
        <ele>1465.6</ele>
        <time>2020-09-02T07:03:43.233Z</time>
      </trkpt>
      <trkpt lat="42.45872" lon="2.4887">
        <ele>1465.8</ele>
        <time>2020-09-02T07:03:53.604Z</time>
      </trkpt>
      <trkpt lat="42.45878" lon="2.48867">
        <ele>1466</ele>
        <time>2020-09-02T07:04:04.153Z</time>
      </trkpt>
      <trkpt lat="42.45875" lon="2.48853">
        <ele>1467.3</ele>
        <time>2020-09-02T07:04:45.475Z</time>
      </trkpt>
      <trkpt lat="42.45869" lon="2.4883">
        <ele>1482.1</ele>
        <time>2020-09-02T07:06:07.182Z</time>
      </trkpt>
      <trkpt lat="42.45865" lon="2.48806">
        <ele>1484.7</ele>
        <time>2020-09-02T07:07:29.589Z</time>
      </trkpt>
      <trkpt lat="42.45865" lon="2.48788">
        <ele>1487.8</ele>
        <time>2020-09-02T07:08:29.876Z</time>
      </trkpt>
      <trkpt lat="42.45866" lon="2.48757">
        <ele>1491.6</ele>
        <time>2020-09-02T07:10:13.802Z</time>
      </trkpt>
      <trkpt lat="42.45865" lon="2.48717">
        <ele>1510.4</ele>
        <time>2020-09-02T07:12:27.848Z</time>
      </trkpt>
      <trkpt lat="42.45862" lon="2.48685">
        <ele>1513.5</ele>
        <time>2020-09-02T07:14:11.149Z</time>
      </trkpt>
      <trkpt lat="42.45859" lon="2.4866">
        <ele>1525.5</ele>
        <time>2020-09-02T07:15:35.981Z</time>
      </trkpt>
      <trkpt lat="42.45851" lon="2.48633">
        <ele>1528.7</ele>
        <time>2020-09-02T07:17:13.431Z</time>
      </trkpt>
      <trkpt lat="42.45838" lon="2.48609">
        <ele>1530.5</ele>
        <time>2020-09-02T07:18:10.604Z</time>
      </trkpt>
      <trkpt lat="42.45828" lon="2.48582">
        <ele>1531.8</ele>
        <time>2020-09-02T07:18:59.121Z</time>
      </trkpt>
      <trkpt lat="42.45823" lon="2.48579">
        <ele>1533.9</ele>
        <time>2020-09-02T07:19:23.944Z</time>
      </trkpt>
      <trkpt lat="42.45815" lon="2.48584">
        <ele>1523.4</ele>
        <time>2020-09-02T07:19:26.020Z</time>
      </trkpt>
      <trkpt lat="42.458" lon="2.48592">
        <ele>1521.1</ele>
        <time>2020-09-02T07:19:29.818Z</time>
      </trkpt>
      <trkpt lat="42.45785" lon="2.48599">
        <ele>1520.3</ele>
        <time>2020-09-02T07:19:33.723Z</time>
      </trkpt>
      <trkpt lat="42.45772" lon="2.48601">
        <ele>1520.7</ele>
        <time>2020-09-02T07:19:55.112Z</time>
      </trkpt>
      <trkpt lat="42.45751" lon="2.48594">
        <ele>1524.4</ele>
        <time>2020-09-02T07:21:33.286Z</time>
      </trkpt>
      <trkpt lat="42.45727" lon="2.48584">
        <ele>1514.9</ele>
        <time>2020-09-02T07:21:39.203Z</time>
      </trkpt>
      <trkpt lat="42.45702" lon="2.48571">
        <ele>1530.6</ele>
        <time>2020-09-02T07:23:40.761Z</time>
      </trkpt>
      <trkpt lat="42.45676" lon="2.48554">
        <ele>1530.3</ele>
        <time>2020-09-02T07:23:51.628Z</time>
      </trkpt>
      <trkpt lat="42.4566" lon="2.48542">
        <ele>1518.8</ele>
        <time>2020-09-02T07:23:55.936Z</time>
      </trkpt>
      <trkpt lat="42.4564" lon="2.48521">
        <ele>1520.9</ele>
        <time>2020-09-02T07:25:02.369Z</time>
      </trkpt>
      <trkpt lat="42.45626" lon="2.48503">
        <ele>1519.2</ele>
        <time>2020-09-02T07:25:06.916Z</time>
      </trkpt>
      <trkpt lat="42.45609" lon="2.48478">
        <ele>1535.3</ele>
        <time>2020-09-02T07:27:00.791Z</time>
      </trkpt>
      <trkpt lat="42.45605" lon="2.48471">
        <ele>1536.1</ele>
        <time>2020-09-02T07:27:26.388Z</time>
        <extensions>
          <visugpx:TrkExtension xmlns:visugpx="https://www.visugpx.com/editgpx/">
            <visugpx:node>1</visugpx:node>
            </visugpx:TrkExtension>
        </extensions>
      </trkpt>
      <trkpt lat="42.45598" lon="2.48456">
        <ele>1538.7</ele>
        <time>2020-09-02T07:28:25.836Z</time>
      </trkpt>
      <trkpt lat="42.45585" lon="2.4842">
        <ele>1540.5</ele>
        <time>2020-09-02T07:29:31.360Z</time>
      </trkpt>
      <trkpt lat="42.45578" lon="2.48395">
        <ele>1539.8</ele>
        <time>2020-09-02T07:29:36.937Z</time>
      </trkpt>
      <trkpt lat="42.4557" lon="2.48366">
        <ele>1546.1</ele>
        <time>2020-09-02T07:31:20.637Z</time>
      </trkpt>
      <trkpt lat="42.45564" lon="2.48346">
        <ele>1552.2</ele>
        <time>2020-09-02T07:32:32.951Z</time>
      </trkpt>
      <trkpt lat="42.45554" lon="2.48331">
        <ele>1571.3</ele>
        <time>2020-09-02T07:33:40.665Z</time>
      </trkpt>
      <trkpt lat="42.45545" lon="2.48321">
        <ele>1569.9</ele>
        <time>2020-09-02T07:33:43.407Z</time>
      </trkpt>
      <trkpt lat="42.45534" lon="2.48314">
        <ele>1567.5</ele>
        <time>2020-09-02T07:33:46.270Z</time>
      </trkpt>
      <trkpt lat="42.45517" lon="2.48304">
        <ele>1565.3</ele>
        <time>2020-09-02T07:33:50.637Z</time>
      </trkpt>
      <trkpt lat="42.45502" lon="2.48292">
        <ele>1567.9</ele>
        <time>2020-09-02T07:35:09.710Z</time>
      </trkpt>
      <trkpt lat="42.45486" lon="2.4828">
        <ele>1550</ele>
        <time>2020-09-02T07:35:14.019Z</time>
      </trkpt>
      <trkpt lat="42.45473" lon="2.48264">
        <ele>1552.2</ele>
        <time>2020-09-02T07:36:25.336Z</time>
      </trkpt>
      <trkpt lat="42.45459" lon="2.48253">
        <ele>1548.7</ele>
        <time>2020-09-02T07:36:29.149Z</time>
      </trkpt>
      <trkpt lat="42.45447" lon="2.48226">
        <ele>1571.9</ele>
        <time>2020-09-02T07:38:14.725Z</time>
      </trkpt>
      <trkpt lat="42.45438" lon="2.48211">
        <ele>1573.8</ele>
        <time>2020-09-02T07:39:19.261Z</time>
      </trkpt>
      <trkpt lat="42.45426" lon="2.48198">
        <ele>1575.5</ele>
        <time>2020-09-02T07:40:11.731Z</time>
      </trkpt>
      <trkpt lat="42.45418" lon="2.48188">
        <ele>1576.7</ele>
        <time>2020-09-02T07:40:48.742Z</time>
      </trkpt>
      <trkpt lat="42.45416" lon="2.48176">
        <ele>1569.2</ele>
        <time>2020-09-02T07:40:50.881Z</time>
      </trkpt>
      <trkpt lat="42.45413" lon="2.48151">
        <ele>1581.7</ele>
        <time>2020-09-02T07:42:15.719Z</time>
      </trkpt>
      <trkpt lat="42.45411" lon="2.48139">
        <ele>1584.4</ele>
        <time>2020-09-02T07:42:56.925Z</time>
      </trkpt>
      <trkpt lat="42.45407" lon="2.48134">
        <ele>1585.5</ele>
        <time>2020-09-02T07:43:21.628Z</time>
      </trkpt>
      <trkpt lat="42.45397" lon="2.48134">
        <ele>1584.8</ele>
        <time>2020-09-02T07:43:23.984Z</time>
      </trkpt>
      <trkpt lat="42.45387" lon="2.4813">
        <ele>1584.6</ele>
        <time>2020-09-02T07:43:27.501Z</time>
      </trkpt>
      <trkpt lat="42.45376" lon="2.48124">
        <ele>1584.5</ele>
        <time>2020-09-02T07:43:32.083Z</time>
      </trkpt>
      <trkpt lat="42.45365" lon="2.48115">
        <ele>1584.6</ele>
        <time>2020-09-02T07:43:48.366Z</time>
      </trkpt>
      <trkpt lat="42.45347" lon="2.48105">
        <ele>1585.1</ele>
        <time>2020-09-02T07:44:18.312Z</time>
      </trkpt>
      <trkpt lat="42.45337" lon="2.4809">
        <ele>1587.6</ele>
        <time>2020-09-02T07:45:26.027Z</time>
      </trkpt>
      <trkpt lat="42.4533" lon="2.48075">
        <ele>1593</ele>
        <time>2020-09-02T07:46:25.476Z</time>
      </trkpt>
      <trkpt lat="42.45325" lon="2.48064">
        <ele>1596.5</ele>
        <time>2020-09-02T07:47:08.752Z</time>
      </trkpt>
      <trkpt lat="42.45318" lon="2.4806">
        <ele>1598.1</ele>
        <time>2020-09-02T07:47:43.239Z</time>
      </trkpt>
      <trkpt lat="42.45296" lon="2.48051">
        <ele>1599.6</ele>
        <time>2020-09-02T07:48:35.791Z</time>
      </trkpt>
      <trkpt lat="42.45276" lon="2.48041">
        <ele>1600.5</ele>
        <time>2020-09-02T07:49:16.702Z</time>
      </trkpt>
      <trkpt lat="42.45253" lon="2.48024">
        <ele>1604.5</ele>
        <time>2020-09-02T07:51:15.634Z</time>
      </trkpt>
      <trkpt lat="42.45234" lon="2.48007">
        <ele>1607.5</ele>
        <time>2020-09-02T07:52:56.562Z</time>
      </trkpt>
      <trkpt lat="42.4522" lon="2.47987">
        <ele>1628.2</ele>
        <time>2020-09-02T07:54:28.905Z</time>
      </trkpt>
      <trkpt lat="42.45208" lon="2.47975">
        <ele>1631.4</ele>
        <time>2020-09-02T07:55:36.606Z</time>
      </trkpt>
      <trkpt lat="42.45189" lon="2.47967">
        <ele>1633.2</ele>
        <time>2020-09-02T07:56:32.327Z</time>
      </trkpt>
      <trkpt lat="42.45178" lon="2.47967">
        <ele>1633</ele>
        <time>2020-09-02T07:56:36.081Z</time>
      </trkpt>
      <trkpt lat="42.45172" lon="2.47968">
        <ele>1632.5</ele>
        <time>2020-09-02T07:56:37.506Z</time>
      </trkpt>
      <trkpt lat="42.45165" lon="2.47973">
        <ele>1641.3</ele>
        <time>2020-09-02T07:57:13.427Z</time>
      </trkpt>
      <trkpt lat="42.45158" lon="2.47987">
        <ele>1635.3</ele>
        <time>2020-09-02T07:57:16.367Z</time>
      </trkpt>
      <trkpt lat="42.4515" lon="2.48002">
        <ele>1623.7</ele>
        <time>2020-09-02T07:57:19.585Z</time>
      </trkpt>
      <trkpt lat="42.45138" lon="2.4802">
        <ele>1626.3</ele>
        <time>2020-09-02T07:58:40.844Z</time>
      </trkpt>
      <trkpt lat="42.45123" lon="2.48036">
        <ele>1628.2</ele>
        <time>2020-09-02T07:59:39.005Z</time>
      </trkpt>
      <trkpt lat="42.451" lon="2.48058">
        <ele>1630.7</ele>
        <time>2020-09-02T08:00:56.694Z</time>
      </trkpt>
      <trkpt lat="42.45073" lon="2.48081">
        <ele>1643.9</ele>
        <time>2020-09-02T08:03:21.468Z</time>
      </trkpt>
      <trkpt lat="42.45047" lon="2.48103">
        <ele>1638.2</ele>
        <time>2020-09-02T08:03:28.690Z</time>
      </trkpt>
      <trkpt lat="42.45025" lon="2.48117">
        <ele>1639.9</ele>
        <time>2020-09-02T08:04:26.228Z</time>
      </trkpt>
      <trkpt lat="42.4501" lon="2.48122">
        <ele>1640.7</ele>
        <time>2020-09-02T08:04:58.395Z</time>
      </trkpt>
      <trkpt lat="42.44995" lon="2.48123">
        <ele>1651.9</ele>
        <time>2020-09-02T08:06:06.574Z</time>
      </trkpt>
      <trkpt lat="42.44977" lon="2.4812">
        <ele>1653.3</ele>
        <time>2020-09-02T08:06:51.989Z</time>
      </trkpt>
      <trkpt lat="42.44948" lon="2.48106">
        <ele>1658</ele>
        <time>2020-09-02T08:09:11.745Z</time>
      </trkpt>
      <trkpt lat="42.44905" lon="2.48088">
        <ele>1669.6</ele>
        <time>2020-09-02T08:12:36.053Z</time>
      </trkpt>
      <trkpt lat="42.44859" lon="2.48069">
        <ele>1685.9</ele>
        <time>2020-09-02T08:16:14.364Z</time>
      </trkpt>
      <trkpt lat="42.44827" lon="2.48054">
        <ele>1689.8</ele>
        <time>2020-09-02T08:18:15.990Z</time>
      </trkpt>
      <trkpt lat="42.44808" lon="2.48045">
        <ele>1692.3</ele>
        <time>2020-09-02T08:19:36.614Z</time>
      </trkpt>
      <trkpt lat="42.44772" lon="2.48035">
        <ele>1695.1</ele>
        <time>2020-09-02T08:21:07.911Z</time>
      </trkpt>
      <trkpt lat="42.44731" lon="2.48022">
        <ele>1702.8</ele>
        <time>2020-09-02T08:24:19.066Z</time>
      </trkpt>
      <trkpt lat="42.44723" lon="2.48018">
        <ele>1703.2</ele>
        <time>2020-09-02T08:24:36.266Z</time>
      </trkpt>
      <trkpt lat="42.44728" lon="2.4801">
        <ele>1704.9</ele>
        <time>2020-09-02T08:25:11.386Z</time>
      </trkpt>
      <trkpt lat="42.44742" lon="2.48005">
        <ele>1708</ele>
        <time>2020-09-02T08:26:17.112Z</time>
      </trkpt>
      <trkpt lat="42.44766" lon="2.48002">
        <ele>1703.7</ele>
        <time>2020-09-02T08:26:22.791Z</time>
      </trkpt>
      <trkpt lat="42.44787" lon="2.47997">
        <ele>1720</ele>
        <time>2020-09-02T08:27:59.586Z</time>
      </trkpt>
      <trkpt lat="42.44802" lon="2.4799">
        <ele>1719.4</ele>
        <time>2020-09-02T08:28:03.969Z</time>
      </trkpt>
      <trkpt lat="42.44817" lon="2.47983">
        <ele>1717.8</ele>
        <time>2020-09-02T08:28:07.707Z</time>
      </trkpt>
      <trkpt lat="42.44838" lon="2.47966">
        <ele>1715.5</ele>
        <time>2020-09-02T08:28:13.471Z</time>
      </trkpt>
      <trkpt lat="42.44855" lon="2.47953">
        <ele>1718.2</ele>
        <time>2020-09-02T08:29:42.084Z</time>
      </trkpt>
      <trkpt lat="42.44877" lon="2.47935">
        <ele>1719.8</ele>
        <time>2020-09-02T08:30:39.591Z</time>
      </trkpt>
      <trkpt lat="42.44895" lon="2.47919">
        <ele>1721</ele>
        <time>2020-09-02T08:31:25.625Z</time>
      </trkpt>
      <trkpt lat="42.44915" lon="2.47899">
        <ele>1734.3</ele>
        <time>2020-09-02T08:33:18.462Z</time>
      </trkpt>
      <trkpt lat="42.44929" lon="2.47882">
        <ele>1729.4</ele>
        <time>2020-09-02T08:33:22.891Z</time>
      </trkpt>
      <trkpt lat="42.44942" lon="2.47861">
        <ele>1732.3</ele>
        <time>2020-09-02T08:34:54.713Z</time>
      </trkpt>
      <trkpt lat="42.44951" lon="2.47841">
        <ele>1733.4</ele>
        <time>2020-09-02T08:35:33.777Z</time>
      </trkpt>
      <trkpt lat="42.44967" lon="2.4781">
        <ele>1748</ele>
        <time>2020-09-02T08:37:40.501Z</time>
      </trkpt>
      <trkpt lat="42.44986" lon="2.47785">
        <ele>1750.8</ele>
        <time>2020-09-02T08:39:06.350Z</time>
      </trkpt>
      <trkpt lat="42.45003" lon="2.47758">
        <ele>1751.1</ele>
        <time>2020-09-02T08:39:40.788Z</time>
      </trkpt>
      <trkpt lat="42.45024" lon="2.47725">
        <ele>1760.2</ele>
        <time>2020-09-02T08:42:06.759Z</time>
      </trkpt>
      <trkpt lat="42.45043" lon="2.47698">
        <ele>1762.1</ele>
        <time>2020-09-02T08:43:11.479Z</time>
      </trkpt>
      <trkpt lat="42.45058" lon="2.47676">
        <ele>1763</ele>
        <time>2020-09-02T08:43:52.967Z</time>
      </trkpt>
      <trkpt lat="42.45074" lon="2.47659">
        <ele>1769.6</ele>
        <time>2020-09-02T08:45:25.264Z</time>
      </trkpt>
      <trkpt lat="42.45088" lon="2.47636">
        <ele>1771.6</ele>
        <time>2020-09-02T08:46:27.119Z</time>
      </trkpt>
      <trkpt lat="42.45097" lon="2.47625">
        <ele>1773.7</ele>
        <time>2020-09-02T08:47:22.138Z</time>
        <extensions>
          <visugpx:TrkExtension xmlns:visugpx="https://www.visugpx.com/editgpx/">
            <visugpx:node>2</visugpx:node>
            </visugpx:TrkExtension>
        </extensions>
      </trkpt>
      <trkpt lat="42.45099" lon="2.47622">
        <ele>1774.1</ele>
        <time>2020-09-02T08:47:35.681Z</time>
      </trkpt>
      <trkpt lat="42.45111" lon="2.47616">
        <ele>1774.8</ele>
        <time>2020-09-02T08:48:02.845Z</time>
      </trkpt>
      <trkpt lat="42.45127" lon="2.47609">
        <ele>1775.3</ele>
        <time>2020-09-02T08:48:30.042Z</time>
      </trkpt>
      <trkpt lat="42.45155" lon="2.47602">
        <ele>1777.6</ele>
        <time>2020-09-02T08:49:43.440Z</time>
      </trkpt>
      <trkpt lat="42.45173" lon="2.47599">
        <ele>1778.7</ele>
        <time>2020-09-02T08:50:23.564Z</time>
      </trkpt>
      <trkpt lat="42.45189" lon="2.47592">
        <ele>1778</ele>
        <time>2020-09-02T08:50:28.043Z</time>
      </trkpt>
      <trkpt lat="42.45204" lon="2.47565">
        <ele>1791.8</ele>
        <time>2020-09-02T08:52:21.253Z</time>
      </trkpt>
      <trkpt lat="42.45217" lon="2.47543">
        <ele>1793.6</ele>
        <time>2020-09-02T08:53:17.530Z</time>
      </trkpt>
      <trkpt lat="42.45229" lon="2.47523">
        <ele>1795.3</ele>
        <time>2020-09-02T08:54:10.285Z</time>
      </trkpt>
      <trkpt lat="42.45235" lon="2.47503">
        <ele>1797</ele>
        <time>2020-09-02T08:55:02.457Z</time>
      </trkpt>
      <trkpt lat="42.45238" lon="2.47488">
        <ele>1795.6</ele>
        <time>2020-09-02T08:55:05.159Z</time>
      </trkpt>
      <trkpt lat="42.45245" lon="2.47461">
        <ele>1792.7</ele>
        <time>2020-09-02T08:55:10.134Z</time>
      </trkpt>
      <trkpt lat="42.4526" lon="2.47446">
        <ele>1798</ele>
        <time>2020-09-02T08:56:34.760Z</time>
      </trkpt>
      <trkpt lat="42.45273" lon="2.47439">
        <ele>1798.5</ele>
        <time>2020-09-02T08:56:59.238Z</time>
      </trkpt>
      <trkpt lat="42.45301" lon="2.47424">
        <ele>1801</ele>
        <time>2020-09-02T08:58:18.316Z</time>
      </trkpt>
      <trkpt lat="42.45322" lon="2.47413">
        <ele>1794.6</ele>
        <time>2020-09-02T08:58:23.621Z</time>
      </trkpt>
      <trkpt lat="42.45343" lon="2.47403">
        <ele>1796.4</ele>
        <time>2020-09-02T08:59:21.042Z</time>
      </trkpt>
      <trkpt lat="42.45367" lon="2.47391">
        <ele>1793</ele>
        <time>2020-09-02T08:59:27.070Z</time>
      </trkpt>
      <trkpt lat="42.45387" lon="2.47382">
        <ele>1792.7</ele>
        <time>2020-09-02T08:59:34.619Z</time>
      </trkpt>
      <trkpt lat="42.4542" lon="2.47367">
        <ele>1799.2</ele>
        <time>2020-09-02T09:02:12.630Z</time>
      </trkpt>
      <trkpt lat="42.4544" lon="2.47355">
        <ele>1797.8</ele>
        <time>2020-09-02T09:02:17.449Z</time>
        <extensions>
          <visugpx:TrkExtension xmlns:visugpx="https://www.visugpx.com/editgpx/">
            <visugpx:node>3</visugpx:node>
            </visugpx:TrkExtension>
        </extensions>
      </trkpt>
      <trkpt lat="42.45444" lon="2.47352">
        <ele>1798.1</ele>
        <time>2020-09-02T09:02:27.930Z</time>
      </trkpt>
      <trkpt lat="42.45467" lon="2.47339">
        <ele>1799.7</ele>
        <time>2020-09-02T09:03:24.478Z</time>
      </trkpt>
      <trkpt lat="42.4549" lon="2.47322">
        <ele>1782.3</ele>
        <time>2020-09-02T09:03:30.651Z</time>
      </trkpt>
      <trkpt lat="42.4551" lon="2.47314">
        <ele>1784</ele>
        <time>2020-09-02T09:04:24.738Z</time>
      </trkpt>
      <trkpt lat="42.45531" lon="2.47308">
        <ele>1780.9</ele>
        <time>2020-09-02T09:04:29.795Z</time>
      </trkpt>
      <trkpt lat="42.45547" lon="2.47303">
        <ele>1779.9</ele>
        <time>2020-09-02T09:04:33.501Z</time>
      </trkpt>
      <trkpt lat="42.45567" lon="2.47301">
        <ele>1780.7</ele>
        <time>2020-09-02T09:05:10.695Z</time>
      </trkpt>
      <trkpt lat="42.45591" lon="2.47306">
        <ele>1787.4</ele>
        <time>2020-09-02T09:07:00.928Z</time>
      </trkpt>
      <trkpt lat="42.45611" lon="2.47309">
        <ele>1787.5</ele>
        <time>2020-09-02T09:07:25.740Z</time>
      </trkpt>
      <trkpt lat="42.45633" lon="2.47306">
        <ele>1787.5</ele>
        <time>2020-09-02T09:07:51.764Z</time>
      </trkpt>
      <trkpt lat="42.45648" lon="2.47301">
        <ele>1787.4</ele>
        <time>2020-09-02T09:08:08.304Z</time>
      </trkpt>
      <trkpt lat="42.45663" lon="2.47288">
        <ele>1784</ele>
        <time>2020-09-02T09:08:12.499Z</time>
      </trkpt>
      <trkpt lat="42.45684" lon="2.47276">
        <ele>1795.8</ele>
        <time>2020-09-02T09:09:55.960Z</time>
      </trkpt>
      <trkpt lat="42.45705" lon="2.47264">
        <ele>1799.3</ele>
        <time>2020-09-02T09:11:39.420Z</time>
      </trkpt>
      <trkpt lat="42.45729" lon="2.47244">
        <ele>1784.7</ele>
        <time>2020-09-02T09:11:46.059Z</time>
      </trkpt>
      <trkpt lat="42.45748" lon="2.47227">
        <ele>1784.2</ele>
        <time>2020-09-02T09:11:53.492Z</time>
      </trkpt>
      <trkpt lat="42.45769" lon="2.47214">
        <ele>1803.8</ele>
        <time>2020-09-02T09:13:38.298Z</time>
      </trkpt>
      <trkpt lat="42.45777" lon="2.472">
        <ele>1802.1</ele>
        <time>2020-09-02T09:13:41.377Z</time>
      </trkpt>
      <trkpt lat="42.4578" lon="2.47191">
        <ele>1800.8</ele>
        <time>2020-09-02T09:13:43.093Z</time>
      </trkpt>
      <trkpt lat="42.45782" lon="2.47183">
        <ele>1799.8</ele>
        <time>2020-09-02T09:13:44.562Z</time>
      </trkpt>
      <trkpt lat="42.4579" lon="2.47164">
        <ele>1783.9</ele>
        <time>2020-09-02T09:13:48.365Z</time>
      </trkpt>
      <trkpt lat="42.45798" lon="2.47145">
        <ele>1785</ele>
        <time>2020-09-02T09:14:26.065Z</time>
      </trkpt>
      <trkpt lat="42.45807" lon="2.47122">
        <ele>1783.9</ele>
        <time>2020-09-02T09:14:30.529Z</time>
      </trkpt>
      <trkpt lat="42.45813" lon="2.47104">
        <ele>1784.3</ele>
        <time>2020-09-02T09:14:53.441Z</time>
      </trkpt>
      <trkpt lat="42.45817" lon="2.47089">
        <ele>1785.8</ele>
        <time>2020-09-02T09:15:42.624Z</time>
      </trkpt>
      <trkpt lat="42.45821" lon="2.47073">
        <ele>1778</ele>
        <time>2020-09-02T09:15:45.560Z</time>
      </trkpt>
      <trkpt lat="42.45824" lon="2.47059">
        <ele>1773.4</ele>
        <time>2020-09-02T09:15:48.095Z</time>
      </trkpt>
      <trkpt lat="42.45827" lon="2.47051">
        <ele>1771.6</ele>
        <time>2020-09-02T09:15:49.655Z</time>
      </trkpt>
      <trkpt lat="42.45833" lon="2.47043">
        <ele>1770.4</ele>
        <time>2020-09-02T09:15:51.638Z</time>
      </trkpt>
      <trkpt lat="42.45848" lon="2.47018">
        <ele>1788.2</ele>
        <time>2020-09-02T09:17:39.564Z</time>
      </trkpt>
      <trkpt lat="42.45861" lon="2.46992">
        <ele>1775</ele>
        <time>2020-09-02T09:17:45.024Z</time>
      </trkpt>
      <trkpt lat="42.45873" lon="2.46964">
        <ele>1773.5</ele>
        <time>2020-09-02T09:17:50.337Z</time>
      </trkpt>
      <trkpt lat="42.45888" lon="2.46933">
        <ele>1771.9</ele>
        <time>2020-09-02T09:17:56.631Z</time>
      </trkpt>
      <trkpt lat="42.45903" lon="2.46902">
        <ele>1760.1</ele>
        <time>2020-09-02T09:18:03.075Z</time>
      </trkpt>
      <trkpt lat="42.45913" lon="2.46878">
        <ele>1754.8</ele>
        <time>2020-09-02T09:18:07.867Z</time>
      </trkpt>
      <trkpt lat="42.45921" lon="2.46854">
        <ele>1762.8</ele>
        <time>2020-09-02T09:19:36.072Z</time>
      </trkpt>
      <trkpt lat="42.4593" lon="2.46844">
        <ele>1761.3</ele>
        <time>2020-09-02T09:19:38.814Z</time>
      </trkpt>
      <trkpt lat="42.45938" lon="2.46841">
        <ele>1762.6</ele>
        <time>2020-09-02T09:20:16.496Z</time>
      </trkpt>
      <trkpt lat="42.45958" lon="2.46844">
        <ele>1765.2</ele>
        <time>2020-09-02T09:21:42.591Z</time>
      </trkpt>
      <trkpt lat="42.45966" lon="2.46841">
        <ele>1765</ele>
        <time>2020-09-02T09:21:45.236Z</time>
      </trkpt>
      <trkpt lat="42.45977" lon="2.46829">
        <ele>1748.7</ele>
        <time>2020-09-02T09:21:48.563Z</time>
      </trkpt>
      <trkpt lat="42.45992" lon="2.46819">
        <ele>1750</ele>
        <time>2020-09-02T09:22:30.616Z</time>
      </trkpt>
      <trkpt lat="42.46011" lon="2.46818">
        <ele>1758.8</ele>
        <time>2020-09-02T09:23:56.936Z</time>
      </trkpt>
      <trkpt lat="42.46023" lon="2.46818">
        <ele>1760.1</ele>
        <time>2020-09-02T09:24:36.910Z</time>
        <extensions>
          <visugpx:TrkExtension xmlns:visugpx="https://www.visugpx.com/editgpx/">
            <visugpx:node>4</visugpx:node>
            </visugpx:TrkExtension>
        </extensions>
      </trkpt>
      <trkpt lat="42.46023" lon="2.46818">
        <ele>1760.1</ele>
        <time>2020-09-02T09:24:36.910Z</time>
      </trkpt>
      <trkpt lat="42.46028" lon="2.46818">
        <ele>1760.9</ele>
        <time>2020-09-02T09:24:59.609Z</time>
      </trkpt>
      <trkpt lat="42.46033" lon="2.46811">
        <ele>1761.1</ele>
        <time>2020-09-02T09:25:10.963Z</time>
      </trkpt>
      <trkpt lat="42.4603" lon="2.46796">
        <ele>1759.1</ele>
        <time>2020-09-02T09:25:13.664Z</time>
      </trkpt>
      <trkpt lat="42.46029" lon="2.46788">
        <ele>1757.8</ele>
        <time>2020-09-02T09:25:15.075Z</time>
      </trkpt>
      <trkpt lat="42.46029" lon="2.46785">
        <ele>1757.2</ele>
        <time>2020-09-02T09:25:15.596Z</time>
      </trkpt>
      <trkpt lat="42.46029" lon="2.46777">
        <ele>1755.9</ele>
        <time>2020-09-02T09:25:16.987Z</time>
      </trkpt>
      <trkpt lat="42.4603" lon="2.4677">
        <ele>1754.8</ele>
        <time>2020-09-02T09:25:18.227Z</time>
      </trkpt>
      <trkpt lat="42.46032" lon="2.46761">
        <ele>1754.4</ele>
        <time>2020-09-02T09:25:19.833Z</time>
      </trkpt>
      <trkpt lat="42.46039" lon="2.46745">
        <ele>1743.8</ele>
        <time>2020-09-02T09:25:23.066Z</time>
      </trkpt>
      <trkpt lat="42.46041" lon="2.46739">
        <ele>1744.2</ele>
        <time>2020-09-02T09:25:35.752Z</time>
      </trkpt>
      <trkpt lat="42.46043" lon="2.46733">
        <ele>1744.3</ele>
        <time>2020-09-02T09:25:42.797Z</time>
      </trkpt>
      <trkpt lat="42.46044" lon="2.4673">
        <ele>1744.2</ele>
        <time>2020-09-02T09:25:43.447Z</time>
      </trkpt>
      <trkpt lat="42.46044" lon="2.46726">
        <ele>1743.7</ele>
        <time>2020-09-02T09:25:44.142Z</time>
      </trkpt>
      <trkpt lat="42.46044" lon="2.46713">
        <ele>1742.4</ele>
        <time>2020-09-02T09:25:46.402Z</time>
      </trkpt>
      <trkpt lat="42.46045" lon="2.46705">
        <ele>1741.5</ele>
        <time>2020-09-02T09:25:47.813Z</time>
      </trkpt>
      <trkpt lat="42.4605" lon="2.46697">
        <ele>1742.1</ele>
        <time>2020-09-02T09:26:07.241Z</time>
      </trkpt>
      <trkpt lat="42.46062" lon="2.46687">
        <ele>1744.8</ele>
        <time>2020-09-02T09:27:11.189Z</time>
      </trkpt>
      <trkpt lat="42.46071" lon="2.4668">
        <ele>1747.4</ele>
        <time>2020-09-02T09:27:58.295Z</time>
      </trkpt>
      <trkpt lat="42.4608" lon="2.46663">
        <ele>1748.2</ele>
        <time>2020-09-02T09:28:30.448Z</time>
      </trkpt>
      <trkpt lat="42.46087" lon="2.46645">
        <ele>1762.8</ele>
        <time>2020-09-02T09:29:38.595Z</time>
      </trkpt>
      <trkpt lat="42.46091" lon="2.46628">
        <ele>1763.6</ele>
        <time>2020-09-02T09:30:07.744Z</time>
      </trkpt>
      <trkpt lat="42.46091" lon="2.46612">
        <ele>1760.6</ele>
        <time>2020-09-02T09:30:10.525Z</time>
      </trkpt>
      <trkpt lat="42.46087" lon="2.46605">
        <ele>1756.8</ele>
        <time>2020-09-02T09:30:12.064Z</time>
      </trkpt>
      <trkpt lat="42.46085" lon="2.46601">
        <ele>1754.6</ele>
        <time>2020-09-02T09:30:12.904Z</time>
      </trkpt>
      <trkpt lat="42.46083" lon="2.46595">
        <ele>1733.4</ele>
        <time>2020-09-02T09:30:14.049Z</time>
      </trkpt>
      <trkpt lat="42.46083" lon="2.4659">
        <ele>1734.9</ele>
        <time>2020-09-02T09:30:30.795Z</time>
      </trkpt>
      <trkpt lat="42.46082" lon="2.46583">
        <ele>1737.2</ele>
        <time>2020-09-02T09:30:54.674Z</time>
      </trkpt>
      <trkpt lat="42.46083" lon="2.46575">
        <ele>1733.3</ele>
        <time>2020-09-02T09:30:56.084Z</time>
      </trkpt>
      <trkpt lat="42.46086" lon="2.46563">
        <ele>1754</ele>
        <time>2020-09-02T09:31:38.519Z</time>
      </trkpt>
      <trkpt lat="42.46086" lon="2.46558">
        <ele>1755.8</ele>
        <time>2020-09-02T09:31:55.265Z</time>
      </trkpt>
      <trkpt lat="42.46085" lon="2.46555">
        <ele>1756.5</ele>
        <time>2020-09-02T09:32:06.290Z</time>
      </trkpt>
      <trkpt lat="42.46082" lon="2.46551">
        <ele>1728.9</ele>
        <time>2020-09-02T09:32:07.282Z</time>
      </trkpt>
      <trkpt lat="42.46082" lon="2.46546">
        <ele>1728.8</ele>
        <time>2020-09-02T09:32:08.419Z</time>
      </trkpt>
      <trkpt lat="42.46081" lon="2.4654">
        <ele>1729.1</ele>
        <time>2020-09-02T09:32:18.860Z</time>
      </trkpt>
      <trkpt lat="42.46082" lon="2.46529">
        <ele>1731</ele>
        <time>2020-09-02T09:32:55.979Z</time>
      </trkpt>
      <trkpt lat="42.46081" lon="2.46522">
        <ele>1732.5</ele>
        <time>2020-09-02T09:33:19.859Z</time>
      </trkpt>
      <trkpt lat="42.46076" lon="2.46517">
        <ele>1733.5</ele>
        <time>2020-09-02T09:33:48.066Z</time>
      </trkpt>
      <trkpt lat="42.46074" lon="2.46511">
        <ele>1735.3</ele>
        <time>2020-09-02T09:34:10.117Z</time>
      </trkpt>
      <trkpt lat="42.46065" lon="2.46499">
        <ele>1737.9</ele>
        <time>2020-09-02T09:35:07.428Z</time>
      </trkpt>
      <trkpt lat="42.46054" lon="2.46492">
        <ele>1734</ele>
        <time>2020-09-02T09:35:10.291Z</time>
      </trkpt>
      <trkpt lat="42.46048" lon="2.46489">
        <ele>1731.9</ele>
        <time>2020-09-02T09:35:11.798Z</time>
      </trkpt>
      <trkpt lat="42.4604" lon="2.46482">
        <ele>1729.8</ele>
        <time>2020-09-02T09:35:14.041Z</time>
      </trkpt>
      <trkpt lat="42.46032" lon="2.46475">
        <ele>1728.1</ele>
        <time>2020-09-02T09:35:16.285Z</time>
      </trkpt>
      <trkpt lat="42.46024" lon="2.46468">
        <ele>1726.8</ele>
        <time>2020-09-02T09:35:18.529Z</time>
      </trkpt>
      <trkpt lat="42.46018" lon="2.46462">
        <ele>1726.4</ele>
        <time>2020-09-02T09:35:20.315Z</time>
      </trkpt>
      <trkpt lat="42.46014" lon="2.46458">
        <ele>1726.2</ele>
        <time>2020-09-02T09:35:21.656Z</time>
      </trkpt>
      <trkpt lat="42.46008" lon="2.46445">
        <ele>1726.3</ele>
        <time>2020-09-02T09:35:36.144Z</time>
      </trkpt>
      <trkpt lat="42.46006" lon="2.46438">
        <ele>1725.8</ele>
        <time>2020-09-02T09:35:37.449Z</time>
      </trkpt>
      <trkpt lat="42.46004" lon="2.46433">
        <ele>1725</ele>
        <time>2020-09-02T09:35:38.438Z</time>
      </trkpt>
      <trkpt lat="42.45998" lon="2.46421">
        <ele>1715.2</ele>
        <time>2020-09-02T09:35:40.958Z</time>
      </trkpt>
      <trkpt lat="42.45989" lon="2.46401">
        <ele>1711.4</ele>
        <time>2020-09-02T09:35:45.030Z</time>
      </trkpt>
      <trkpt lat="42.45986" lon="2.46392">
        <ele>1709.1</ele>
        <time>2020-09-02T09:35:46.747Z</time>
      </trkpt>
      <trkpt lat="42.45978" lon="2.46378">
        <ele>1706.9</ele>
        <time>2020-09-02T09:35:49.826Z</time>
      </trkpt>
      <trkpt lat="42.45968" lon="2.46365">
        <ele>1705.3</ele>
        <time>2020-09-02T09:35:53.090Z</time>
      </trkpt>
      <trkpt lat="42.45963" lon="2.46357">
        <ele>1704.6</ele>
        <time>2020-09-02T09:35:54.913Z</time>
      </trkpt>
      <trkpt lat="42.45961" lon="2.46352">
        <ele>1704.3</ele>
        <time>2020-09-02T09:35:55.902Z</time>
      </trkpt>
      <trkpt lat="42.45956" lon="2.46349">
        <ele>1703.4</ele>
        <time>2020-09-02T09:35:57.190Z</time>
      </trkpt>
      <trkpt lat="42.45953" lon="2.46346">
        <ele>1702.8</ele>
        <time>2020-09-02T09:35:58.069Z</time>
      </trkpt>
      <trkpt lat="42.45946" lon="2.46346">
        <ele>1701.5</ele>
        <time>2020-09-02T09:35:59.718Z</time>
      </trkpt>
      <trkpt lat="42.45941" lon="2.46346">
        <ele>1700.4</ele>
        <time>2020-09-02T09:36:00.896Z</time>
      </trkpt>
      <trkpt lat="42.45933" lon="2.46343">
        <ele>1698.6</ele>
        <time>2020-09-02T09:36:02.852Z</time>
      </trkpt>
      <trkpt lat="42.45928" lon="2.4634">
        <ele>1697.3</ele>
        <time>2020-09-02T09:36:04.141Z</time>
      </trkpt>
      <trkpt lat="42.45924" lon="2.46338">
        <ele>1696.1</ele>
        <time>2020-09-02T09:36:05.145Z</time>
      </trkpt>
      <trkpt lat="42.45919" lon="2.46338">
        <ele>1694.8</ele>
        <time>2020-09-02T09:36:06.323Z</time>
      </trkpt>
      <trkpt lat="42.45911" lon="2.46339">
        <ele>1688.6</ele>
        <time>2020-09-02T09:36:08.216Z</time>
      </trkpt>
      <trkpt lat="42.45903" lon="2.46341">
        <ele>1685.3</ele>
        <time>2020-09-02T09:36:10.133Z</time>
      </trkpt>
      <trkpt lat="42.45898" lon="2.4634">
        <ele>1683.6</ele>
        <time>2020-09-02T09:36:11.324Z</time>
      </trkpt>
      <trkpt lat="42.45893" lon="2.46339">
        <ele>1682.3</ele>
        <time>2020-09-02T09:36:12.515Z</time>
      </trkpt>
      <trkpt lat="42.45886" lon="2.46339">
        <ele>1680.5</ele>
        <time>2020-09-02T09:36:14.164Z</time>
      </trkpt>
      <trkpt lat="42.45881" lon="2.4634">
        <ele>1679.3</ele>
        <time>2020-09-02T09:36:15.355Z</time>
      </trkpt>
      <trkpt lat="42.45875" lon="2.46342">
        <ele>1677.8</ele>
        <time>2020-09-02T09:36:16.811Z</time>
      </trkpt>
      <trkpt lat="42.45871" lon="2.46343">
        <ele>1677</ele>
        <time>2020-09-02T09:36:17.770Z</time>
      </trkpt>
      <trkpt lat="42.45867" lon="2.46342">
        <ele>1676.2</ele>
        <time>2020-09-02T09:36:18.728Z</time>
      </trkpt>
      <trkpt lat="42.45865" lon="2.46339">
        <ele>1675.9</ele>
        <time>2020-09-02T09:36:19.431Z</time>
      </trkpt>
      <trkpt lat="42.45866" lon="2.46331">
        <ele>1671.6</ele>
        <time>2020-09-02T09:36:20.842Z</time>
      </trkpt>
      <trkpt lat="42.45873" lon="2.46319">
        <ele>1671.9</ele>
        <time>2020-09-02T09:36:38.400Z</time>
      </trkpt>
      <trkpt lat="42.45888" lon="2.46302">
        <ele>1672.2</ele>
        <time>2020-09-02T09:37:05.176Z</time>
      </trkpt>
      <trkpt lat="42.4591" lon="2.4628">
        <ele>1670.2</ele>
        <time>2020-09-02T09:37:11.618Z</time>
      </trkpt>
      <trkpt lat="42.4594" lon="2.46254">
        <ele>1678.6</ele>
        <time>2020-09-02T09:39:53.269Z</time>
      </trkpt>
      <trkpt lat="42.45963" lon="2.46237">
        <ele>1661.2</ele>
        <time>2020-09-02T09:39:59.442Z</time>
      </trkpt>
      <trkpt lat="42.45981" lon="2.46216">
        <ele>1659.3</ele>
        <time>2020-09-02T09:40:05.038Z</time>
      </trkpt>
      <trkpt lat="42.45997" lon="2.46202">
        <ele>1656.4</ele>
        <time>2020-09-02T09:40:09.525Z</time>
      </trkpt>
      <trkpt lat="42.46007" lon="2.46193">
        <ele>1668.1</ele>
        <time>2020-09-02T09:41:04.018Z</time>
      </trkpt>
      <trkpt lat="42.46011" lon="2.46191">
        <ele>1668.2</ele>
        <time>2020-09-02T09:41:10.409Z</time>
      </trkpt>
      <trkpt lat="42.46015" lon="2.46192">
        <ele>1669.3</ele>
        <time>2020-09-02T09:41:28.874Z</time>
      </trkpt>
      <trkpt lat="42.46022" lon="2.46193">
        <ele>1671.4</ele>
        <time>2020-09-02T09:42:00.829Z</time>
      </trkpt>
      <trkpt lat="42.46029" lon="2.46196">
        <ele>1673.8</ele>
        <time>2020-09-02T09:42:34.157Z</time>
      </trkpt>
      <trkpt lat="42.46034" lon="2.46196">
        <ele>1675.1</ele>
        <time>2020-09-02T09:42:56.856Z</time>
      </trkpt>
      <trkpt lat="42.46036" lon="2.46195">
        <ele>1675.5</ele>
        <time>2020-09-02T09:43:06.533Z</time>
      </trkpt>
      <trkpt lat="42.46038" lon="2.46193">
        <ele>1675.7</ele>
        <time>2020-09-02T09:43:12.924Z</time>
      </trkpt>
      <trkpt lat="42.46041" lon="2.4619">
        <ele>1675.9</ele>
        <time>2020-09-02T09:43:20.784Z</time>
      </trkpt>
      <trkpt lat="42.46041" lon="2.46185">
        <ele>1675.4</ele>
        <time>2020-09-02T09:43:21.653Z</time>
      </trkpt>
      <trkpt lat="42.46038" lon="2.46178">
        <ele>1673.7</ele>
        <time>2020-09-02T09:43:23.061Z</time>
      </trkpt>
      <trkpt lat="42.46035" lon="2.46172">
        <ele>1671.9</ele>
        <time>2020-09-02T09:43:24.321Z</time>
      </trkpt>
      <trkpt lat="42.46032" lon="2.46166">
        <ele>1659.9</ele>
        <time>2020-09-02T09:43:25.581Z</time>
      </trkpt>
      <trkpt lat="42.46032" lon="2.4616">
        <ele>1659.9</ele>
        <time>2020-09-02T09:43:30.790Z</time>
      </trkpt>
      <trkpt lat="42.46031" lon="2.46154">
        <ele>1659.5</ele>
        <time>2020-09-02T09:43:31.860Z</time>
      </trkpt>
      <trkpt lat="42.46029" lon="2.46151">
        <ele>1658.9</ele>
        <time>2020-09-02T09:43:32.563Z</time>
      </trkpt>
      <trkpt lat="42.46028" lon="2.46148">
        <ele>1658.5</ele>
        <time>2020-09-02T09:43:33.135Z</time>
      </trkpt>
      <trkpt lat="42.46025" lon="2.46139">
        <ele>1657.8</ele>
        <time>2020-09-02T09:43:34.852Z</time>
      </trkpt>
      <trkpt lat="42.4602" lon="2.46129">
        <ele>1656.6</ele>
        <time>2020-09-02T09:43:36.952Z</time>
      </trkpt>
      <trkpt lat="42.46015" lon="2.46116">
        <ele>1654.1</ele>
        <time>2020-09-02T09:43:39.500Z</time>
      </trkpt>
      <trkpt lat="42.46013" lon="2.46106">
        <ele>1651.2</ele>
        <time>2020-09-02T09:43:41.301Z</time>
      </trkpt>
      <trkpt lat="42.46012" lon="2.46094">
        <ele>1647</ele>
        <time>2020-09-02T09:43:43.401Z</time>
      </trkpt>
      <trkpt lat="42.46005" lon="2.46059">
        <ele>1643.9</ele>
        <time>2020-09-02T09:43:49.705Z</time>
      </trkpt>
      <trkpt lat="42.46001" lon="2.4605">
        <ele>1644.5</ele>
        <time>2020-09-02T09:44:09.148Z</time>
      </trkpt>
      <trkpt lat="42.45995" lon="2.46026">
        <ele>1620.2</ele>
        <time>2020-09-02T09:44:13.553Z</time>
      </trkpt>
      <trkpt lat="42.45993" lon="2.46013">
        <ele>1622.5</ele>
        <time>2020-09-02T09:44:58.029Z</time>
      </trkpt>
      <trkpt lat="42.45993" lon="2.46004">
        <ele>1625.4</ele>
        <time>2020-09-02T09:45:28.172Z</time>
      </trkpt>
      <trkpt lat="42.45995" lon="2.45993">
        <ele>1621.8</ele>
        <time>2020-09-02T09:45:30.141Z</time>
      </trkpt>
      <trkpt lat="42.46" lon="2.45977">
        <ele>1631.7</ele>
        <time>2020-09-02T09:46:28.338Z</time>
      </trkpt>
      <trkpt lat="42.46008" lon="2.45956">
        <ele>1629.4</ele>
        <time>2020-09-02T09:46:32.446Z</time>
      </trkpt>
      <trkpt lat="42.46014" lon="2.45944">
        <ele>1627.4</ele>
        <time>2020-09-02T09:46:34.966Z</time>
      </trkpt>
      <trkpt lat="42.46022" lon="2.45936">
        <ele>1627.1</ele>
        <time>2020-09-02T09:46:37.932Z</time>
      </trkpt>
      <trkpt lat="42.46037" lon="2.45921">
        <ele>1628.8</ele>
        <time>2020-09-02T09:47:30.479Z</time>
      </trkpt>
      <trkpt lat="42.46045" lon="2.45914">
        <ele>1613.6</ele>
        <time>2020-09-02T09:47:32.723Z</time>
      </trkpt>
      <trkpt lat="42.46054" lon="2.45908">
        <ele>1615.3</ele>
        <time>2020-09-02T09:48:18.254Z</time>
      </trkpt>
      <trkpt lat="42.4606" lon="2.45903">
        <ele>1616</ele>
        <time>2020-09-02T09:48:39.683Z</time>
      </trkpt>
      <trkpt lat="42.46069" lon="2.45893">
        <ele>1615.5</ele>
        <time>2020-09-02T09:48:42.746Z</time>
      </trkpt>
      <trkpt lat="42.46085" lon="2.45883">
        <ele>1622.3</ele>
        <time>2020-09-02T09:50:02.731Z</time>
      </trkpt>
      <trkpt lat="42.46106" lon="2.45873">
        <ele>1620.6</ele>
        <time>2020-09-02T09:50:07.975Z</time>
      </trkpt>
      <trkpt lat="42.46113" lon="2.45871">
        <ele>1620.5</ele>
        <time>2020-09-02T09:50:10.546Z</time>
      </trkpt>
      <trkpt lat="42.46122" lon="2.45867">
        <ele>1620.2</ele>
        <time>2020-09-02T09:50:13.329Z</time>
      </trkpt>
      <trkpt lat="42.46124" lon="2.45863">
        <ele>1619.6</ele>
        <time>2020-09-02T09:50:14.169Z</time>
      </trkpt>
      <trkpt lat="42.46125" lon="2.45859">
        <ele>1618.9</ele>
        <time>2020-09-02T09:50:14.903Z</time>
      </trkpt>
      <trkpt lat="42.46125" lon="2.45853">
        <ele>1617.9</ele>
        <time>2020-09-02T09:50:15.946Z</time>
      </trkpt>
      <trkpt lat="42.46123" lon="2.45841">
        <ele>1616.2</ele>
        <time>2020-09-02T09:50:18.085Z</time>
      </trkpt>
      <trkpt lat="42.46122" lon="2.45825">
        <ele>1598.6</ele>
        <time>2020-09-02T09:50:20.876Z</time>
      </trkpt>
      <trkpt lat="42.46122" lon="2.45811">
        <ele>1597.4</ele>
        <time>2020-09-02T09:50:23.309Z</time>
      </trkpt>
      <trkpt lat="42.46122" lon="2.45805">
        <ele>1596.7</ele>
        <time>2020-09-02T09:50:24.352Z</time>
      </trkpt>
      <trkpt lat="42.46112" lon="2.45799">
        <ele>1595.6</ele>
        <time>2020-09-02T09:50:26.929Z</time>
      </trkpt>
      <trkpt lat="42.46107" lon="2.45795">
        <ele>1594.8</ele>
        <time>2020-09-02T09:50:28.297Z</time>
      </trkpt>
      <trkpt lat="42.46101" lon="2.4579">
        <ele>1593.6</ele>
        <time>2020-09-02T09:50:29.957Z</time>
      </trkpt>
      <trkpt lat="42.461" lon="2.45785">
        <ele>1592.7</ele>
        <time>2020-09-02T09:50:30.857Z</time>
      </trkpt>
      <trkpt lat="42.46104" lon="2.45782">
        <ele>1592.5</ele>
        <time>2020-09-02T09:50:32.052Z</time>
      </trkpt>
      <trkpt lat="42.46106" lon="2.45779">
        <ele>1592</ele>
        <time>2020-09-02T09:50:32.755Z</time>
      </trkpt>
      <trkpt lat="42.4611" lon="2.45777">
        <ele>1592.1</ele>
        <time>2020-09-02T09:50:39.146Z</time>
      </trkpt>
      <trkpt lat="42.46116" lon="2.45772">
        <ele>1592</ele>
        <time>2020-09-02T09:50:41.670Z</time>
      </trkpt>
      <trkpt lat="42.46123" lon="2.4577">
        <ele>1592.5</ele>
        <time>2020-09-02T09:50:58.599Z</time>
      </trkpt>
      <trkpt lat="42.46131" lon="2.45768">
        <ele>1593</ele>
        <time>2020-09-02T09:51:16.700Z</time>
      </trkpt>
      <trkpt lat="42.46135" lon="2.45768">
        <ele>1593.3</ele>
        <time>2020-09-02T09:51:26.545Z</time>
      </trkpt>
      <trkpt lat="42.46142" lon="2.45769">
        <ele>1593.8</ele>
        <time>2020-09-02T09:51:43.346Z</time>
      </trkpt>
      <trkpt lat="42.46148" lon="2.45768">
        <ele>1593.9</ele>
        <time>2020-09-02T09:51:51.731Z</time>
      </trkpt>
      <trkpt lat="42.46155" lon="2.45771">
        <ele>1594.2</ele>
        <time>2020-09-02T09:52:05.541Z</time>
      </trkpt>
      <trkpt lat="42.46162" lon="2.45775">
        <ele>1594.8</ele>
        <time>2020-09-02T09:52:24.840Z</time>
      </trkpt>
      <trkpt lat="42.46165" lon="2.45776">
        <ele>1594.9</ele>
        <time>2020-09-02T09:52:30.008Z</time>
      </trkpt>
      <trkpt lat="42.46172" lon="2.45783">
        <ele>1608.8</ele>
        <time>2020-09-02T09:53:09.498Z</time>
      </trkpt>
      <trkpt lat="42.46177" lon="2.45785">
        <ele>1609.8</ele>
        <time>2020-09-02T09:53:33.164Z</time>
      </trkpt>
      <trkpt lat="42.46186" lon="2.45783">
        <ele>1610.8</ele>
        <time>2020-09-02T09:54:03.975Z</time>
      </trkpt>
      <trkpt lat="42.46187" lon="2.45779">
        <ele>1610.4</ele>
        <time>2020-09-02T09:54:04.709Z</time>
      </trkpt>
      <trkpt lat="42.46187" lon="2.45773">
        <ele>1609.5</ele>
        <time>2020-09-02T09:54:05.752Z</time>
      </trkpt>
      <trkpt lat="42.46187" lon="2.45766">
        <ele>1608.2</ele>
        <time>2020-09-02T09:54:06.969Z</time>
      </trkpt>
      <trkpt lat="42.46186" lon="2.45757">
        <ele>1605.9</ele>
        <time>2020-09-02T09:54:08.551Z</time>
      </trkpt>
      <trkpt lat="42.4618" lon="2.4574">
        <ele>1604.8</ele>
        <time>2020-09-02T09:54:11.827Z</time>
      </trkpt>
      <trkpt lat="42.46176" lon="2.45728">
        <ele>1606.9</ele>
        <time>2020-09-02T09:54:55.928Z</time>
      </trkpt>
      <trkpt lat="42.46174" lon="2.4572">
        <ele>1608.4</ele>
        <time>2020-09-02T09:55:24.217Z</time>
      </trkpt>
      <trkpt lat="42.46175" lon="2.45716">
        <ele>1609.2</ele>
        <time>2020-09-02T09:55:38.362Z</time>
      </trkpt>
      <trkpt lat="42.46176" lon="2.45711">
        <ele>1609.9</ele>
        <time>2020-09-02T09:55:55.712Z</time>
      </trkpt>
      <trkpt lat="42.46181" lon="2.45705">
        <ele>1611.1</ele>
        <time>2020-09-02T09:56:26.027Z</time>
      </trkpt>
      <trkpt lat="42.46184" lon="2.457">
        <ele>1611.6</ele>
        <time>2020-09-02T09:56:41.350Z</time>
      </trkpt>
      <trkpt lat="42.46186" lon="2.45694">
        <ele>1611.7</ele>
        <time>2020-09-02T09:56:48.395Z</time>
      </trkpt>
      <trkpt lat="42.46186" lon="2.45689">
        <ele>1611.4</ele>
        <time>2020-09-02T09:56:49.265Z</time>
      </trkpt>
      <trkpt lat="42.46186" lon="2.45684">
        <ele>1610.6</ele>
        <time>2020-09-02T09:56:50.134Z</time>
      </trkpt>
      <trkpt lat="42.46183" lon="2.45676">
        <ele>1608.4</ele>
        <time>2020-09-02T09:56:51.694Z</time>
      </trkpt>
      <trkpt lat="42.46174" lon="2.45659">
        <ele>1608.1</ele>
        <time>2020-09-02T09:56:56.884Z</time>
      </trkpt>
      <trkpt lat="42.46168" lon="2.45649">
        <ele>1613.1</ele>
        <time>2020-09-02T09:57:40.053Z</time>
      </trkpt>
      <trkpt lat="42.46167" lon="2.45643">
        <ele>1615.6</ele>
        <time>2020-09-02T09:58:00.654Z</time>
      </trkpt>
      <trkpt lat="42.46167" lon="2.45639">
        <ele>1617.2</ele>
        <time>2020-09-02T09:58:14.050Z</time>
      </trkpt>
      <trkpt lat="42.46169" lon="2.45631">
        <ele>1619.7</ele>
        <time>2020-09-02T09:58:42.340Z</time>
      </trkpt>
      <trkpt lat="42.46177" lon="2.45615">
        <ele>1622.7</ele>
        <time>2020-09-02T09:59:47.073Z</time>
      </trkpt>
      <trkpt lat="42.46178" lon="2.45608">
        <ele>1622.8</ele>
        <time>2020-09-02T09:59:54.569Z</time>
      </trkpt>
      <trkpt lat="42.46178" lon="2.45601">
        <ele>1622.1</ele>
        <time>2020-09-02T09:59:55.786Z</time>
      </trkpt>
      <trkpt lat="42.46174" lon="2.45579">
        <ele>1623</ele>
        <time>2020-09-02T10:00:31.075Z</time>
      </trkpt>
      <trkpt lat="42.46174" lon="2.45573">
        <ele>1626.1</ele>
        <time>2020-09-02T10:00:51.169Z</time>
      </trkpt>
      <trkpt lat="42.46174" lon="2.45569">
        <ele>1629.1</ele>
        <time>2020-09-02T10:01:04.566Z</time>
      </trkpt>
      <trkpt lat="42.46176" lon="2.45567">
        <ele>1631</ele>
        <time>2020-09-02T10:01:15.848Z</time>
      </trkpt>
      <trkpt lat="42.46179" lon="2.45567">
        <ele>1632</ele>
        <time>2020-09-02T10:01:29.468Z</time>
      </trkpt>
      <trkpt lat="42.4618" lon="2.45569">
        <ele>1631.8</ele>
        <time>2020-09-02T10:01:29.888Z</time>
      </trkpt>
      <trkpt lat="42.46182" lon="2.45575">
        <ele>1630.1</ele>
        <time>2020-09-02T10:01:31.032Z</time>
      </trkpt>
      <trkpt lat="42.46185" lon="2.45586">
        <ele>1622.8</ele>
        <time>2020-09-02T10:01:33.071Z</time>
      </trkpt>
      <trkpt lat="42.46188" lon="2.45598">
        <ele>1624.7</ele>
        <time>2020-09-02T10:02:15.505Z</time>
      </trkpt>
      <trkpt lat="42.46189" lon="2.45605">
        <ele>1625.5</ele>
        <time>2020-09-02T10:02:39.384Z</time>
      </trkpt>
      <trkpt lat="42.46192" lon="2.45612">
        <ele>1626.1</ele>
        <time>2020-09-02T10:02:57.746Z</time>
      </trkpt>
      <trkpt lat="42.46192" lon="2.45613">
        <ele>1626.2</ele>
        <time>2020-09-02T10:03:01.095Z</time>
      </trkpt>
      <trkpt lat="42.46203" lon="2.4563">
        <ele>1627.7</ele>
        <time>2020-09-02T10:03:47.586Z</time>
      </trkpt>
      <trkpt lat="42.46216" lon="2.45652">
        <ele>1630.5</ele>
        <time>2020-09-02T10:05:21.987Z</time>
      </trkpt>
      <trkpt lat="42.46228" lon="2.45672">
        <ele>1628.8</ele>
        <time>2020-09-02T10:05:26.468Z</time>
      </trkpt>
      <trkpt lat="42.46233" lon="2.45682">
        <ele>1629.3</ele>
        <time>2020-09-02T10:05:45.573Z</time>
      </trkpt>
      <trkpt lat="42.46237" lon="2.45686">
        <ele>1629.4</ele>
        <time>2020-09-02T10:05:52.745Z</time>
      </trkpt>
      <trkpt lat="42.46243" lon="2.45692">
        <ele>1629.1</ele>
        <time>2020-09-02T10:05:54.758Z</time>
      </trkpt>
      <trkpt lat="42.46248" lon="2.45699">
        <ele>1627.9</ele>
        <time>2020-09-02T10:05:56.452Z</time>
      </trkpt>
      <trkpt lat="42.46249" lon="2.45704">
        <ele>1627.1</ele>
        <time>2020-09-02T10:05:57.352Z</time>
      </trkpt>
      <trkpt lat="42.46248" lon="2.45708">
        <ele>1626.5</ele>
        <time>2020-09-02T10:05:58.086Z</time>
      </trkpt>
      <trkpt lat="42.46243" lon="2.45714">
        <ele>1625.4</ele>
        <time>2020-09-02T10:05:59.660Z</time>
      </trkpt>
      <trkpt lat="42.4624" lon="2.45719">
        <ele>1625</ele>
        <time>2020-09-02T10:06:00.780Z</time>
      </trkpt>
      <trkpt lat="42.4624" lon="2.45723">
        <ele>1625</ele>
        <time>2020-09-02T10:06:04.253Z</time>
      </trkpt>
      <trkpt lat="42.4624" lon="2.45727">
        <ele>1625.4</ele>
        <time>2020-09-02T10:06:17.649Z</time>
      </trkpt>
      <trkpt lat="42.4625" lon="2.45747">
        <ele>1637.9</ele>
        <time>2020-09-02T10:07:38.565Z</time>
      </trkpt>
      <trkpt lat="42.46261" lon="2.45767">
        <ele>1644.6</ele>
        <time>2020-09-02T10:09:02.112Z</time>
      </trkpt>
      <trkpt lat="42.46268" lon="2.45781">
        <ele>1647.7</ele>
        <time>2020-09-02T10:09:58.753Z</time>
      </trkpt>
      <trkpt lat="42.4627" lon="2.45789">
        <ele>1648</ele>
        <time>2020-09-02T10:10:11.423Z</time>
      </trkpt>
      <trkpt lat="42.4627" lon="2.45797">
        <ele>1647.6</ele>
        <time>2020-09-02T10:10:12.814Z</time>
      </trkpt>
      <trkpt lat="42.4627" lon="2.45802">
        <ele>1647.1</ele>
        <time>2020-09-02T10:10:13.683Z</time>
      </trkpt>
      <trkpt lat="42.46273" lon="2.45812">
        <ele>1646.5</ele>
        <time>2020-09-02T10:10:15.560Z</time>
      </trkpt>
      <trkpt lat="42.46282" lon="2.45832">
        <ele>1648.2</ele>
        <time>2020-09-02T10:11:07.627Z</time>
      </trkpt>
      <trkpt lat="42.46287" lon="2.45842">
        <ele>1650.6</ele>
        <time>2020-09-02T10:11:48.085Z</time>
      </trkpt>
      <trkpt lat="42.46291" lon="2.45845">
        <ele>1652.1</ele>
        <time>2020-09-02T10:12:08.838Z</time>
      </trkpt>
      <trkpt lat="42.46293" lon="2.45845">
        <ele>1653.1</ele>
        <time>2020-09-02T10:12:17.917Z</time>
      </trkpt>
      <trkpt lat="42.46296" lon="2.45843">
        <ele>1654.1</ele>
        <time>2020-09-02T10:12:33.094Z</time>
      </trkpt>
      <trkpt lat="42.46298" lon="2.45837">
        <ele>1654.8</ele>
        <time>2020-09-02T10:12:55.144Z</time>
      </trkpt>
      <trkpt lat="42.46298" lon="2.4583">
        <ele>1655.1</ele>
        <time>2020-09-02T10:13:06.367Z</time>
      </trkpt>
      <trkpt lat="42.46298" lon="2.45819">
        <ele>1654.8</ele>
        <time>2020-09-02T10:13:08.628Z</time>
      </trkpt>
      <trkpt lat="42.46297" lon="2.4581">
        <ele>1654.5</ele>
        <time>2020-09-02T10:13:10.367Z</time>
      </trkpt>
      <trkpt lat="42.46295" lon="2.45795">
        <ele>1653.9</ele>
        <time>2020-09-02T10:13:13.066Z</time>
      </trkpt>
      <trkpt lat="42.46289" lon="2.4577">
        <ele>1653</ele>
        <time>2020-09-02T10:13:18.012Z</time>
      </trkpt>
      <trkpt lat="42.46288" lon="2.45759">
        <ele>1652.5</ele>
        <time>2020-09-02T10:13:19.854Z</time>
      </trkpt>
      <trkpt lat="42.46288" lon="2.45756">
        <ele>1652.6</ele>
        <time>2020-09-02T10:13:24.270Z</time>
      </trkpt>
      <trkpt lat="42.4629" lon="2.45753">
        <ele>1653.5</ele>
        <time>2020-09-02T10:13:37.812Z</time>
      </trkpt>
      <trkpt lat="42.46295" lon="2.45751">
        <ele>1655.3</ele>
        <time>2020-09-02T10:14:01.478Z</time>
      </trkpt>
      <trkpt lat="42.46298" lon="2.45751">
        <ele>1656.5</ele>
        <time>2020-09-02T10:14:15.097Z</time>
      </trkpt>
      <trkpt lat="42.46301" lon="2.45751">
        <ele>1657.8</ele>
        <time>2020-09-02T10:14:28.716Z</time>
      </trkpt>
      <trkpt lat="42.46307" lon="2.45751">
        <ele>1659.9</ele>
        <time>2020-09-02T10:14:55.954Z</time>
      </trkpt>
      <trkpt lat="42.46311" lon="2.45752">
        <ele>1661.8</ele>
        <time>2020-09-02T10:15:14.420Z</time>
      </trkpt>
      <trkpt lat="42.46313" lon="2.45751">
        <ele>1662.9</ele>
        <time>2020-09-02T10:15:24.097Z</time>
      </trkpt>
      <trkpt lat="42.46317" lon="2.45748">
        <ele>1669</ele>
        <time>2020-09-02T10:15:44.850Z</time>
      </trkpt>
      <trkpt lat="42.4632" lon="2.45744">
        <ele>1669.8</ele>
        <time>2020-09-02T10:16:03.953Z</time>
      </trkpt>
      <trkpt lat="42.46321" lon="2.45736">
        <ele>1669.2</ele>
        <time>2020-09-02T10:16:05.364Z</time>
      </trkpt>
      <trkpt lat="42.4632" lon="2.45731">
        <ele>1668.5</ele>
        <time>2020-09-02T10:16:06.264Z</time>
      </trkpt>
      <trkpt lat="42.46317" lon="2.45722">
        <ele>1667.8</ele>
        <time>2020-09-02T10:16:07.981Z</time>
      </trkpt>
      <trkpt lat="42.46312" lon="2.45711">
        <ele>1667.3</ele>
        <time>2020-09-02T10:16:10.287Z</time>
      </trkpt>
      <trkpt lat="42.46302" lon="2.45693">
        <ele>1667.3</ele>
        <time>2020-09-02T10:16:29.852Z</time>
      </trkpt>
      <trkpt lat="42.46299" lon="2.45683">
        <ele>1667.5</ele>
        <time>2020-09-02T10:16:42.025Z</time>
      </trkpt>
      <trkpt lat="42.46299" lon="2.45676">
        <ele>1667.9</ele>
        <time>2020-09-02T10:16:54.984Z</time>
      </trkpt>
      <trkpt lat="42.46299" lon="2.4567">
        <ele>1668.4</ele>
        <time>2020-09-02T10:17:10.490Z</time>
      </trkpt>
      <trkpt lat="42.463" lon="2.45665">
        <ele>1677.3</ele>
        <time>2020-09-02T10:17:27.840Z</time>
      </trkpt>
      <trkpt lat="42.463" lon="2.4566">
        <ele>1677.4</ele>
        <time>2020-09-02T10:17:33.615Z</time>
      </trkpt>
      <trkpt lat="42.46298" lon="2.45652">
        <ele>1677</ele>
        <time>2020-09-02T10:17:34.986Z</time>
      </trkpt>
      <trkpt lat="42.46293" lon="2.45633">
        <ele>1676.3</ele>
        <time>2020-09-02T10:17:38.760Z</time>
      </trkpt>
      <trkpt lat="42.46292" lon="2.45626">
        <ele>1676.4</ele>
        <time>2020-09-02T10:17:46.256Z</time>
      </trkpt>
      <trkpt lat="42.46291" lon="2.4562">
        <ele>1676.6</ele>
        <time>2020-09-02T10:17:55.213Z</time>
      </trkpt>
      <trkpt lat="42.4629" lon="2.45612">
        <ele>1677</ele>
        <time>2020-09-02T10:18:09.058Z</time>
      </trkpt>
      <trkpt lat="42.4629" lon="2.45603">
        <ele>1677.7</ele>
        <time>2020-09-02T10:18:30.515Z</time>
      </trkpt>
      <trkpt lat="42.46293" lon="2.4559">
        <ele>1679.1</ele>
        <time>2020-09-02T10:19:16.132Z</time>
      </trkpt>
      <trkpt lat="42.46294" lon="2.45584">
        <ele>1679.8</ele>
        <time>2020-09-02T10:19:36.733Z</time>
      </trkpt>
      <trkpt lat="42.46294" lon="2.45578">
        <ele>1688.9</ele>
        <time>2020-09-02T10:19:56.827Z</time>
      </trkpt>
      <trkpt lat="42.46292" lon="2.45568">
        <ele>1688.9</ele>
        <time>2020-09-02T10:20:05.823Z</time>
      </trkpt>
      <trkpt lat="42.46291" lon="2.45551">
        <ele>1689.8</ele>
        <time>2020-09-02T10:20:35.969Z</time>
      </trkpt>
      <trkpt lat="42.46288" lon="2.45526">
        <ele>1691.3</ele>
        <time>2020-09-02T10:21:23.939Z</time>
      </trkpt>
      <trkpt lat="42.46288" lon="2.45515">
        <ele>1691.9</ele>
        <time>2020-09-02T10:21:43.746Z</time>
      </trkpt>
      <trkpt lat="42.46289" lon="2.45503">
        <ele>1693</ele>
        <time>2020-09-02T10:22:19.100Z</time>
      </trkpt>
      <trkpt lat="42.46291" lon="2.45494">
        <ele>1703.2</ele>
        <time>2020-09-02T10:22:50.579Z</time>
      </trkpt>
      <trkpt lat="42.46292" lon="2.45489">
        <ele>1703.6</ele>
        <time>2020-09-02T10:23:02.833Z</time>
      </trkpt>
      <trkpt lat="42.46291" lon="2.45485">
        <ele>1703.5</ele>
        <time>2020-09-02T10:23:03.744Z</time>
      </trkpt>
      <trkpt lat="42.46288" lon="2.45478">
        <ele>1703</ele>
        <time>2020-09-02T10:23:05.152Z</time>
      </trkpt>
      <trkpt lat="42.46286" lon="2.45468">
        <ele>1703.2</ele>
        <time>2020-09-02T10:23:16.983Z</time>
      </trkpt>
      <trkpt lat="42.46283" lon="2.45442">
        <ele>1704.4</ele>
        <time>2020-09-02T10:24:00.288Z</time>
      </trkpt>
      <trkpt lat="42.46282" lon="2.45426">
        <ele>1704.5</ele>
        <time>2020-09-02T10:24:15.399Z</time>
      </trkpt>
      <trkpt lat="42.4628" lon="2.45413">
        <ele>1712.5</ele>
        <time>2020-09-02T10:24:59.873Z</time>
      </trkpt>
      <trkpt lat="42.46279" lon="2.45395">
        <ele>1714.2</ele>
        <time>2020-09-02T10:25:55.671Z</time>
      </trkpt>
      <trkpt lat="42.46279" lon="2.45386">
        <ele>1715.5</ele>
        <time>2020-09-02T10:26:25.812Z</time>
      </trkpt>
      <trkpt lat="42.46279" lon="2.4537">
        <ele>1717.2</ele>
        <time>2020-09-02T10:27:19.396Z</time>
      </trkpt>
      <trkpt lat="42.4628" lon="2.45363">
        <ele>1717.8</ele>
        <time>2020-09-02T10:27:38.053Z</time>
      </trkpt>
      <trkpt lat="42.46284" lon="2.45348">
        <ele>1719.5</ele>
        <time>2020-09-02T10:28:31.470Z</time>
      </trkpt>
      <trkpt lat="42.4629" lon="2.45332">
        <ele>1731</ele>
        <time>2020-09-02T10:29:31.580Z</time>
      </trkpt>
      <trkpt lat="42.46291" lon="2.45325">
        <ele>1731.8</ele>
        <time>2020-09-02T10:29:55.459Z</time>
      </trkpt>
      <trkpt lat="42.4629" lon="2.45321">
        <ele>1731.7</ele>
        <time>2020-09-02T10:29:56.370Z</time>
      </trkpt>
      <trkpt lat="42.46288" lon="2.45316">
        <ele>1731.2</ele>
        <time>2020-09-02T10:29:57.359Z</time>
      </trkpt>
      <trkpt lat="42.46281" lon="2.45307">
        <ele>1729.9</ele>
        <time>2020-09-02T10:29:59.632Z</time>
      </trkpt>
      <trkpt lat="42.46273" lon="2.45295">
        <ele>1729.5</ele>
        <time>2020-09-02T10:30:03.072Z</time>
      </trkpt>
      <trkpt lat="42.4627" lon="2.45288">
        <ele>1729.5</ele>
        <time>2020-09-02T10:30:10.101Z</time>
      </trkpt>
      <trkpt lat="42.46268" lon="2.45282">
        <ele>1729.4</ele>
        <time>2020-09-02T10:30:11.712Z</time>
      </trkpt>
      <trkpt lat="42.46266" lon="2.45274">
        <ele>1729</ele>
        <time>2020-09-02T10:30:13.083Z</time>
      </trkpt>
      <trkpt lat="42.46264" lon="2.45264">
        <ele>1727.7</ele>
        <time>2020-09-02T10:30:14.884Z</time>
      </trkpt>
      <trkpt lat="42.46262" lon="2.45256">
        <ele>1726.3</ele>
        <time>2020-09-02T10:30:16.352Z</time>
      </trkpt>
      <trkpt lat="42.46258" lon="2.45246">
        <ele>1730.2</ele>
        <time>2020-09-02T10:30:54.449Z</time>
      </trkpt>
      <trkpt lat="42.46253" lon="2.45234">
        <ele>1735.2</ele>
        <time>2020-09-02T10:31:40.604Z</time>
      </trkpt>
      <trkpt lat="42.4625" lon="2.45227">
        <ele>1721.3</ele>
        <time>2020-09-02T10:31:42.012Z</time>
      </trkpt>
      <trkpt lat="42.46247" lon="2.45216">
        <ele>1722.6</ele>
        <time>2020-09-02T10:32:21.288Z</time>
      </trkpt>
      <trkpt lat="42.46247" lon="2.45207">
        <ele>1724.1</ele>
        <time>2020-09-02T10:32:51.429Z</time>
      </trkpt>
      <trkpt lat="42.46245" lon="2.45198">
        <ele>1726.1</ele>
        <time>2020-09-02T10:33:22.909Z</time>
      </trkpt>
      <trkpt lat="42.4624" lon="2.45166">
        <ele>1740.6</ele>
        <time>2020-09-02T10:35:12.456Z</time>
      </trkpt>
      <trkpt lat="42.46238" lon="2.45159">
        <ele>1740.6</ele>
        <time>2020-09-02T10:35:18.973Z</time>
      </trkpt>
      <trkpt lat="42.46235" lon="2.45154">
        <ele>1740.6</ele>
        <time>2020-09-02T10:35:24.569Z</time>
      </trkpt>
      <trkpt lat="42.46231" lon="2.45149">
        <ele>1740.5</ele>
        <time>2020-09-02T10:35:26.422Z</time>
      </trkpt>
      <trkpt lat="42.46225" lon="2.45145">
        <ele>1740.4</ele>
        <time>2020-09-02T10:35:28.796Z</time>
      </trkpt>
      <trkpt lat="42.46219" lon="2.4514">
        <ele>1740.1</ele>
        <time>2020-09-02T10:35:30.655Z</time>
      </trkpt>
      <trkpt lat="42.46213" lon="2.45133">
        <ele>1740.1</ele>
        <time>2020-09-02T10:35:39.973Z</time>
      </trkpt>
      <trkpt lat="42.46204" lon="2.45124">
        <ele>1740.2</ele>
        <time>2020-09-02T10:35:54.310Z</time>
      </trkpt>
      <trkpt lat="42.46201" lon="2.4512">
        <ele>1740.2</ele>
        <time>2020-09-02T10:35:59.263Z</time>
      </trkpt>
      <trkpt lat="42.46199" lon="2.45118">
        <ele>1740.2</ele>
        <time>2020-09-02T10:36:02.188Z</time>
        <extensions>
          <visugpx:TrkExtension xmlns:visugpx="https://www.visugpx.com/editgpx/">
            <visugpx:node>5</visugpx:node>
            </visugpx:TrkExtension>
        </extensions>
      </trkpt>
      <trkpt lat="42.46195" lon="2.45115">
        <ele>1740.1</ele>
        <time>2020-09-02T10:36:03.682Z</time>
      </trkpt>
      <trkpt lat="42.46186" lon="2.45107">
        <ele>1740</ele>
        <time>2020-09-02T10:36:07.793Z</time>
      </trkpt>
      <trkpt lat="42.46181" lon="2.45104">
        <ele>1739.9</ele>
        <time>2020-09-02T10:36:09.657Z</time>
      </trkpt>
      <trkpt lat="42.46172" lon="2.45102">
        <ele>1739.7</ele>
        <time>2020-09-02T10:36:12.635Z</time>
      </trkpt>
      <trkpt lat="42.46165" lon="2.45099">
        <ele>1732.4</ele>
        <time>2020-09-02T10:36:14.365Z</time>
      </trkpt>
      <trkpt lat="42.46159" lon="2.45096">
        <ele>1732.7</ele>
        <time>2020-09-02T10:36:27.265Z</time>
      </trkpt>
      <trkpt lat="42.46153" lon="2.45091">
        <ele>1732.5</ele>
        <time>2020-09-02T10:36:29.407Z</time>
      </trkpt>
      <trkpt lat="42.46145" lon="2.45085">
        <ele>1731.1</ele>
        <time>2020-09-02T10:36:31.561Z</time>
      </trkpt>
      <trkpt lat="42.46139" lon="2.45078">
        <ele>1738.9</ele>
        <time>2020-09-02T10:37:07.499Z</time>
      </trkpt>
      <trkpt lat="42.46137" lon="2.45073">
        <ele>1738.9</ele>
        <time>2020-09-02T10:37:12.438Z</time>
      </trkpt>
      <trkpt lat="42.46135" lon="2.45066">
        <ele>1739</ele>
        <time>2020-09-02T10:37:20.247Z</time>
      </trkpt>
      <trkpt lat="42.46132" lon="2.45057">
        <ele>1739.2</ele>
        <time>2020-09-02T10:37:31.703Z</time>
      </trkpt>
      <trkpt lat="42.46129" lon="2.45047">
        <ele>1739.5</ele>
        <time>2020-09-02T10:37:46.014Z</time>
      </trkpt>
      <trkpt lat="42.46125" lon="2.45036">
        <ele>1739.9</ele>
        <time>2020-09-02T10:38:03.910Z</time>
      </trkpt>
      <trkpt lat="42.46122" lon="2.45022">
        <ele>1740.3</ele>
        <time>2020-09-02T10:38:23.109Z</time>
      </trkpt>
      <trkpt lat="42.46118" lon="2.45005">
        <ele>1740.4</ele>
        <time>2020-09-02T10:38:39.761Z</time>
      </trkpt>
      <trkpt lat="42.46116" lon="2.45">
        <ele>1745.5</ele>
        <time>2020-09-02T10:38:58.810Z</time>
      </trkpt>
      <trkpt lat="42.46114" lon="2.44996">
        <ele>1745.2</ele>
        <time>2020-09-02T10:38:59.650Z</time>
      </trkpt>
      <trkpt lat="42.46108" lon="2.44993">
        <ele>1744.4</ele>
        <time>2020-09-02T10:39:01.157Z</time>
      </trkpt>
      <trkpt lat="42.46105" lon="2.44993">
        <ele>1743.9</ele>
        <time>2020-09-02T10:39:01.864Z</time>
      </trkpt>
      <trkpt lat="42.46101" lon="2.44994">
        <ele>1743</ele>
        <time>2020-09-02T10:39:02.822Z</time>
      </trkpt>
      <trkpt lat="42.46096" lon="2.44998">
        <ele>1741.6</ele>
        <time>2020-09-02T10:39:04.190Z</time>
      </trkpt>
      <trkpt lat="42.46087" lon="2.45005">
        <ele>1737.6</ele>
        <time>2020-09-02T10:39:06.635Z</time>
      </trkpt>
      <trkpt lat="42.46083" lon="2.45006">
        <ele>1734.1</ele>
        <time>2020-09-02T10:39:07.593Z</time>
      </trkpt>
      <trkpt lat="42.4608" lon="2.45006">
        <ele>1733.8</ele>
        <time>2020-09-02T10:39:08.300Z</time>
      </trkpt>
      <trkpt lat="42.46075" lon="2.45003">
        <ele>1733.2</ele>
        <time>2020-09-02T10:39:09.589Z</time>
      </trkpt>
      <trkpt lat="42.4607" lon="2.44996">
        <ele>1735.7</ele>
        <time>2020-09-02T10:39:42.221Z</time>
      </trkpt>
      <trkpt lat="42.46056" lon="2.44982">
        <ele>1734.6</ele>
        <time>2020-09-02T10:39:46.077Z</time>
      </trkpt>
      <trkpt lat="42.46054" lon="2.44979">
        <ele>1734.5</ele>
        <time>2020-09-02T10:39:46.937Z</time>
      </trkpt>
      <trkpt lat="42.46053" lon="2.44974">
        <ele>1734.6</ele>
        <time>2020-09-02T10:39:52.853Z</time>
      </trkpt>
      <trkpt lat="42.46051" lon="2.44969">
        <ele>1734.7</ele>
        <time>2020-09-02T10:39:59.170Z</time>
      </trkpt>
      <trkpt lat="42.46046" lon="2.44958">
        <ele>1735.1</ele>
        <time>2020-09-02T10:40:17.394Z</time>
      </trkpt>
      <trkpt lat="42.46044" lon="2.44952">
        <ele>1735.3</ele>
        <time>2020-09-02T10:40:26.573Z</time>
      </trkpt>
      <trkpt lat="42.46043" lon="2.44948">
        <ele>1735.6</ele>
        <time>2020-09-02T10:40:35.776Z</time>
      </trkpt>
      <trkpt lat="42.46043" lon="2.4494">
        <ele>1736.2</ele>
        <time>2020-09-02T10:40:54.137Z</time>
      </trkpt>
      <trkpt lat="42.46045" lon="2.44923">
        <ele>1737.2</ele>
        <time>2020-09-02T10:41:26.337Z</time>
      </trkpt>
      <trkpt lat="42.46045" lon="2.44917">
        <ele>1737.4</ele>
        <time>2020-09-02T10:41:35.168Z</time>
      </trkpt>
      <trkpt lat="42.46044" lon="2.44912">
        <ele>1744.9</ele>
        <time>2020-09-02T10:41:52.518Z</time>
      </trkpt>
      <trkpt lat="42.46042" lon="2.449">
        <ele>1745.2</ele>
        <time>2020-09-02T10:42:07.839Z</time>
      </trkpt>
      <trkpt lat="42.46035" lon="2.4488">
        <ele>1746</ele>
        <time>2020-09-02T10:42:41.227Z</time>
      </trkpt>
      <trkpt lat="42.46033" lon="2.44872">
        <ele>1746.5</ele>
        <time>2020-09-02T10:42:57.220Z</time>
      </trkpt>
      <trkpt lat="42.46033" lon="2.44868">
        <ele>1746.7</ele>
        <time>2020-09-02T10:43:04.093Z</time>
      </trkpt>
      <trkpt lat="42.46033" lon="2.44864">
        <ele>1747</ele>
        <time>2020-09-02T10:43:13.274Z</time>
      </trkpt>
      <trkpt lat="42.46035" lon="2.44861">
        <ele>1747.3</ele>
        <time>2020-09-02T10:43:22.455Z</time>
      </trkpt>
      <trkpt lat="42.46037" lon="2.44858">
        <ele>1747.5</ele>
        <time>2020-09-02T10:43:29.366Z</time>
      </trkpt>
      <trkpt lat="42.46043" lon="2.44854">
        <ele>1748.2</ele>
        <time>2020-09-02T10:43:50.811Z</time>
      </trkpt>
      <trkpt lat="42.46051" lon="2.44849">
        <ele>1749.2</ele>
        <time>2020-09-02T10:44:21.864Z</time>
      </trkpt>
      <trkpt lat="42.46055" lon="2.44846">
        <ele>1750</ele>
        <time>2020-09-02T10:44:42.617Z</time>
      </trkpt>
      <trkpt lat="42.46058" lon="2.44842">
        <ele>1750.6</ele>
        <time>2020-09-02T10:45:01.720Z</time>
      </trkpt>
      <trkpt lat="42.46058" lon="2.44838">
        <ele>1750.8</ele>
        <time>2020-09-02T10:45:08.594Z</time>
      </trkpt>
      <trkpt lat="42.46058" lon="2.44833">
        <ele>1756.2</ele>
        <time>2020-09-02T10:45:25.340Z</time>
      </trkpt>
      <trkpt lat="42.46057" lon="2.44823">
        <ele>1756.3</ele>
        <time>2020-09-02T10:45:35.331Z</time>
      </trkpt>
      <trkpt lat="42.46057" lon="2.44815">
        <ele>1756.4</ele>
        <time>2020-09-02T10:45:43.554Z</time>
      </trkpt>
      <trkpt lat="42.46058" lon="2.44811">
        <ele>1756.6</ele>
        <time>2020-09-02T10:45:50.624Z</time>
      </trkpt>
      <trkpt lat="42.4606" lon="2.44805">
        <ele>1757</ele>
        <time>2020-09-02T10:46:03.309Z</time>
      </trkpt>
      <trkpt lat="42.46065" lon="2.44796">
        <ele>1757.6</ele>
        <time>2020-09-02T10:46:23.324Z</time>
      </trkpt>
      <trkpt lat="42.46067" lon="2.44787">
        <ele>1758.3</ele>
        <time>2020-09-02T10:46:44.745Z</time>
      </trkpt>
      <trkpt lat="42.46064" lon="2.44785">
        <ele>1758.3</ele>
        <time>2020-09-02T10:46:48.680Z</time>
      </trkpt>
      <trkpt lat="42.46058" lon="2.44781">
        <ele>1758.1</ele>
        <time>2020-09-02T10:46:50.681Z</time>
      </trkpt>
      <trkpt lat="42.46045" lon="2.44772">
        <ele>1757.4</ele>
        <time>2020-09-02T10:46:54.353Z</time>
      </trkpt>
      <trkpt lat="42.46036" lon="2.44767">
        <ele>1756.6</ele>
        <time>2020-09-02T10:46:56.645Z</time>
      </trkpt>
      <trkpt lat="42.46033" lon="2.44764">
        <ele>1756.5</ele>
        <time>2020-09-02T10:46:57.797Z</time>
      </trkpt>
      <trkpt lat="42.46031" lon="2.4476">
        <ele>1756.4</ele>
        <time>2020-09-02T10:46:58.885Z</time>
      </trkpt>
      <trkpt lat="42.46029" lon="2.44751">
        <ele>1756.2</ele>
        <time>2020-09-02T10:47:00.984Z</time>
      </trkpt>
      <trkpt lat="42.46027" lon="2.4474">
        <ele>1761.6</ele>
        <time>2020-09-02T10:47:38.927Z</time>
      </trkpt>
      <trkpt lat="42.46026" lon="2.44734">
        <ele>1761.8</ele>
        <time>2020-09-02T10:47:47.884Z</time>
      </trkpt>
      <trkpt lat="42.46022" lon="2.4472">
        <ele>1762.7</ele>
        <time>2020-09-02T10:48:16.549Z</time>
      </trkpt>
      <trkpt lat="42.46019" lon="2.44709">
        <ele>1763.5</ele>
        <time>2020-09-02T10:48:41.218Z</time>
      </trkpt>
      <trkpt lat="42.46017" lon="2.44704">
        <ele>1763.8</ele>
        <time>2020-09-02T10:48:51.269Z</time>
      </trkpt>
      <trkpt lat="42.46014" lon="2.447">
        <ele>1763.9</ele>
        <time>2020-09-02T10:48:57.600Z</time>
      </trkpt>
      <trkpt lat="42.46009" lon="2.44695">
        <ele>1764</ele>
        <time>2020-09-02T10:49:06.178Z</time>
      </trkpt>
      <trkpt lat="42.46005" lon="2.44689">
        <ele>1764.1</ele>
        <time>2020-09-02T10:49:14.473Z</time>
      </trkpt>
      <trkpt lat="42.45999" lon="2.44676">
        <ele>1763.5</ele>
        <time>2020-09-02T10:49:17.197Z</time>
      </trkpt>
      <trkpt lat="42.45996" lon="2.44668">
        <ele>1763.8</ele>
        <time>2020-09-02T10:49:30.416Z</time>
      </trkpt>
      <trkpt lat="42.45994" lon="2.44656">
        <ele>1769.4</ele>
        <time>2020-09-02T10:50:11.619Z</time>
      </trkpt>
      <trkpt lat="42.45992" lon="2.44636">
        <ele>1773.9</ele>
        <time>2020-09-02T10:51:19.215Z</time>
      </trkpt>
      <trkpt lat="42.4599" lon="2.44632">
        <ele>1774.5</ele>
        <time>2020-09-02T10:51:35.399Z</time>
      </trkpt>
      <trkpt lat="42.45988" lon="2.4463">
        <ele>1775</ele>
        <time>2020-09-02T10:51:46.682Z</time>
      </trkpt>
      <trkpt lat="42.45982" lon="2.44629">
        <ele>1775.4</ele>
        <time>2020-09-02T10:52:00.597Z</time>
      </trkpt>
      <trkpt lat="42.45978" lon="2.44628">
        <ele>1775.9</ele>
        <time>2020-09-02T10:52:16.627Z</time>
      </trkpt>
      <trkpt lat="42.45971" lon="2.44628">
        <ele>1776.4</ele>
        <time>2020-09-02T10:52:33.386Z</time>
      </trkpt>
      <trkpt lat="42.45968" lon="2.44631">
        <ele>1776.4</ele>
        <time>2020-09-02T10:52:37.774Z</time>
      </trkpt>
      <trkpt lat="42.45965" lon="2.44636">
        <ele>1776.2</ele>
        <time>2020-09-02T10:52:39.036Z</time>
      </trkpt>
      <trkpt lat="42.45962" lon="2.44646">
        <ele>1775.7</ele>
        <time>2020-09-02T10:52:40.807Z</time>
      </trkpt>
      <trkpt lat="42.45957" lon="2.44658">
        <ele>1775.3</ele>
        <time>2020-09-02T10:52:43.575Z</time>
      </trkpt>
      <trkpt lat="42.45952" lon="2.4467">
        <ele>1765.8</ele>
        <time>2020-09-02T10:52:45.971Z</time>
      </trkpt>
      <trkpt lat="42.45947" lon="2.44678">
        <ele>1765.9</ele>
        <time>2020-09-02T10:52:56.298Z</time>
      </trkpt>
      <trkpt lat="42.45943" lon="2.44682">
        <ele>1766.1</ele>
        <time>2020-09-02T10:53:05.563Z</time>
      </trkpt>
      <trkpt lat="42.45936" lon="2.44688">
        <ele>1766.2</ele>
        <time>2020-09-02T10:53:16.523Z</time>
      </trkpt>
      <trkpt lat="42.4593" lon="2.44693">
        <ele>1766</ele>
        <time>2020-09-02T10:53:18.664Z</time>
      </trkpt>
      <trkpt lat="42.45922" lon="2.44701">
        <ele>1765.1</ele>
        <time>2020-09-02T10:53:21.007Z</time>
      </trkpt>
      <trkpt lat="42.45911" lon="2.44715">
        <ele>1772.7</ele>
        <time>2020-09-02T10:54:29.507Z</time>
      </trkpt>
      <trkpt lat="42.45903" lon="2.44724">
        <ele>1771.8</ele>
        <time>2020-09-02T10:54:31.957Z</time>
      </trkpt>
      <trkpt lat="42.45895" lon="2.4473">
        <ele>1771.8</ele>
        <time>2020-09-02T10:54:42.718Z</time>
      </trkpt>
      <trkpt lat="42.4588" lon="2.44743">
        <ele>1773.8</ele>
        <time>2020-09-02T10:55:44.655Z</time>
      </trkpt>
      <trkpt lat="42.45871" lon="2.44752">
        <ele>1765.2</ele>
        <time>2020-09-02T10:55:47.290Z</time>
      </trkpt>
      <trkpt lat="42.45864" lon="2.44761">
        <ele>1766.1</ele>
        <time>2020-09-02T10:56:15.006Z</time>
      </trkpt>
      <trkpt lat="42.45856" lon="2.44774">
        <ele>1766</ele>
        <time>2020-09-02T10:56:19.860Z</time>
      </trkpt>
      <trkpt lat="42.45852" lon="2.44782">
        <ele>1765.2</ele>
        <time>2020-09-02T10:56:21.540Z</time>
      </trkpt>
      <trkpt lat="42.45849" lon="2.44788">
        <ele>1764.7</ele>
        <time>2020-09-02T10:56:22.800Z</time>
      </trkpt>
      <trkpt lat="42.45844" lon="2.44794">
        <ele>1764</ele>
        <time>2020-09-02T10:56:24.374Z</time>
      </trkpt>
      <trkpt lat="42.45839" lon="2.44802">
        <ele>1763.2</ele>
        <time>2020-09-02T10:56:26.196Z</time>
      </trkpt>
      <trkpt lat="42.45835" lon="2.4481">
        <ele>1762.4</ele>
        <time>2020-09-02T10:56:27.876Z</time>
      </trkpt>
      <trkpt lat="42.45832" lon="2.44818">
        <ele>1770</ele>
        <time>2020-09-02T10:56:57.933Z</time>
      </trkpt>
      <trkpt lat="42.45831" lon="2.44829">
        <ele>1764.5</ele>
        <time>2020-09-02T10:56:59.860Z</time>
      </trkpt>
      <trkpt lat="42.45829" lon="2.44841">
        <ele>1762.1</ele>
        <time>2020-09-02T10:57:01.999Z</time>
      </trkpt>
      <trkpt lat="42.45826" lon="2.44849">
        <ele>1762.8</ele>
        <time>2020-09-02T10:57:23.461Z</time>
      </trkpt>
      <trkpt lat="42.45812" lon="2.4488">
        <ele>1762.5</ele>
        <time>2020-09-02T10:57:33.450Z</time>
      </trkpt>
      <trkpt lat="42.45801" lon="2.44902">
        <ele>1761.7</ele>
        <time>2020-09-02T10:57:38.714Z</time>
      </trkpt>
      <trkpt lat="42.45794" lon="2.44912">
        <ele>1761.8</ele>
        <time>2020-09-02T10:57:51.869Z</time>
      </trkpt>
      <trkpt lat="42.45788" lon="2.44919">
        <ele>1758.5</ele>
        <time>2020-09-02T10:57:53.734Z</time>
      </trkpt>
      <trkpt lat="42.45785" lon="2.44927">
        <ele>1758.7</ele>
        <time>2020-09-02T10:58:04.508Z</time>
      </trkpt>
      <trkpt lat="42.45781" lon="2.44938">
        <ele>1758.9</ele>
        <time>2020-09-02T10:58:17.860Z</time>
      </trkpt>
      <trkpt lat="42.4578" lon="2.44939">
        <ele>1758.9</ele>
        <time>2020-09-02T10:58:19.323Z</time>
        <extensions>
          <visugpx:TrkExtension xmlns:visugpx="https://www.visugpx.com/editgpx/">
            <visugpx:node>7</visugpx:node>
            </visugpx:TrkExtension>
        </extensions>
      </trkpt>
      <trkpt lat="42.45705" lon="2.448">
        <ele>1787.3</ele>
        <time>2020-09-02T11:07:56.096Z</time>
        <extensions>
          <visugpx:TrkExtension xmlns:visugpx="https://www.visugpx.com/editgpx/">
            <visugpx:node>8</visugpx:node>
            </visugpx:TrkExtension>
        </extensions>
      </trkpt>
      <trkpt lat="42.45705" lon="2.44801">
        <ele>1787.3</ele>
        <time>2020-09-02T11:07:56.965Z</time>
      </trkpt>
      <trkpt lat="42.45697" lon="2.44785">
        <ele>1789.7</ele>
        <time>2020-09-02T11:09:01.701Z</time>
      </trkpt>
      <trkpt lat="42.45682" lon="2.44748">
        <ele>1806.9</ele>
        <time>2020-09-02T11:11:23.103Z</time>
      </trkpt>
      <trkpt lat="42.45673" lon="2.44724">
        <ele>1810.5</ele>
        <time>2020-09-02T11:12:53.275Z</time>
      </trkpt>
      <trkpt lat="42.45664" lon="2.44705">
        <ele>1809.3</ele>
        <time>2020-09-02T11:12:57.201Z</time>
      </trkpt>
      <trkpt lat="42.45658" lon="2.44687">
        <ele>1814.4</ele>
        <time>2020-09-02T11:14:03.357Z</time>
      </trkpt>
      <trkpt lat="42.45646" lon="2.4466">
        <ele>1822.9</ele>
        <time>2020-09-02T11:15:48.930Z</time>
      </trkpt>
      <trkpt lat="42.45641" lon="2.44651">
        <ele>1821.9</ele>
        <time>2020-09-02T11:15:50.889Z</time>
      </trkpt>
      <trkpt lat="42.45639" lon="2.44642">
        <ele>1821.5</ele>
        <time>2020-09-02T11:15:52.495Z</time>
      </trkpt>
      <trkpt lat="42.45637" lon="2.44639">
        <ele>1821.2</ele>
        <time>2020-09-02T11:15:53.198Z</time>
      </trkpt>
      <trkpt lat="42.45636" lon="2.44635">
        <ele>1821</ele>
        <time>2020-09-02T11:15:53.884Z</time>
      </trkpt>
      <trkpt lat="42.45637" lon="2.44633">
        <ele>1821.3</ele>
        <time>2020-09-02T11:16:01.976Z</time>
      </trkpt>
      <trkpt lat="42.45641" lon="2.44627">
        <ele>1821.9</ele>
        <time>2020-09-02T11:16:20.338Z</time>
      </trkpt>
      <trkpt lat="42.45641" lon="2.44621">
        <ele>1822.2</ele>
        <time>2020-09-02T11:16:30.649Z</time>
      </trkpt>
      <trkpt lat="42.45644" lon="2.44618">
        <ele>1822.8</ele>
        <time>2020-09-02T11:16:47.573Z</time>
      </trkpt>
      <trkpt lat="42.45652" lon="2.44612">
        <ele>1824.8</ele>
        <time>2020-09-02T11:17:29.081Z</time>
      </trkpt>
      <trkpt lat="42.45659" lon="2.44608">
        <ele>1826.4</ele>
        <time>2020-09-02T11:18:03.567Z</time>
      </trkpt>
      <trkpt lat="42.45662" lon="2.44607">
        <ele>1827</ele>
        <time>2020-09-02T11:18:17.592Z</time>
      </trkpt>
      <trkpt lat="42.45666" lon="2.44608">
        <ele>1827</ele>
        <time>2020-09-02T11:18:22.380Z</time>
      </trkpt>
      <trkpt lat="42.45671" lon="2.44608">
        <ele>1835.6</ele>
        <time>2020-09-02T11:18:45.078Z</time>
      </trkpt>
      <trkpt lat="42.45677" lon="2.44604">
        <ele>1836</ele>
        <time>2020-09-02T11:18:59.785Z</time>
      </trkpt>
      <trkpt lat="42.45683" lon="2.44599">
        <ele>1836.3</ele>
        <time>2020-09-02T11:19:13.378Z</time>
        <extensions>
          <visugpx:TrkExtension xmlns:visugpx="https://www.visugpx.com/editgpx/">
            <visugpx:node>9</visugpx:node>
            </visugpx:TrkExtension>
        </extensions>
      </trkpt>
      <trkpt lat="42.45687" lon="2.44595">
        <ele>1836.5</ele>
        <time>2020-09-02T11:19:22.644Z</time>
      </trkpt>
      <trkpt lat="42.45697" lon="2.44582">
        <ele>1842.4</ele>
        <time>2020-09-02T11:20:25.546Z</time>
      </trkpt>
      <trkpt lat="42.45706" lon="2.4457">
        <ele>1843.6</ele>
        <time>2020-09-02T11:21:02.409Z</time>
      </trkpt>
      <trkpt lat="42.45714" lon="2.44559">
        <ele>1844.5</ele>
        <time>2020-09-02T11:21:31.358Z</time>
      </trkpt>
      <trkpt lat="42.45718" lon="2.44554">
        <ele>1845</ele>
        <time>2020-09-02T11:21:46.792Z</time>
      </trkpt>
      <trkpt lat="42.45721" lon="2.44547">
        <ele>1845.5</ele>
        <time>2020-09-02T11:22:02.569Z</time>
      </trkpt>
      <trkpt lat="42.45729" lon="2.44527">
        <ele>1847.7</ele>
        <time>2020-09-02T11:23:16.251Z</time>
      </trkpt>
      <trkpt lat="42.45735" lon="2.4451">
        <ele>1851.6</ele>
        <time>2020-09-02T11:24:19.369Z</time>
      </trkpt>
      <trkpt lat="42.45739" lon="2.445">
        <ele>1852.7</ele>
        <time>2020-09-02T11:24:56.211Z</time>
      </trkpt>
      <trkpt lat="42.45742" lon="2.4449">
        <ele>1851.6</ele>
        <time>2020-09-02T11:24:58.087Z</time>
      </trkpt>
      <trkpt lat="42.45747" lon="2.44474">
        <ele>1847.2</ele>
        <time>2020-09-02T11:25:01.108Z</time>
      </trkpt>
      <trkpt lat="42.45749" lon="2.4447">
        <ele>1846.4</ele>
        <time>2020-09-02T11:25:01.948Z</time>
      </trkpt>
      <trkpt lat="42.45753" lon="2.44464">
        <ele>1859.9</ele>
        <time>2020-09-02T11:25:29.033Z</time>
      </trkpt>
      <trkpt lat="42.45757" lon="2.44459">
        <ele>1859.8</ele>
        <time>2020-09-02T11:25:30.885Z</time>
      </trkpt>
      <trkpt lat="42.45764" lon="2.44454">
        <ele>1859.8</ele>
        <time>2020-09-02T11:25:40.198Z</time>
      </trkpt>
      <trkpt lat="42.4577" lon="2.4445">
        <ele>1860</ele>
        <time>2020-09-02T11:25:51.038Z</time>
      </trkpt>
      <trkpt lat="42.45773" lon="2.44447">
        <ele>1860.1</ele>
        <time>2020-09-02T11:25:56.855Z</time>
      </trkpt>
      <trkpt lat="42.45777" lon="2.44444">
        <ele>1860.4</ele>
        <time>2020-09-02T11:26:07.336Z</time>
      </trkpt>
      <trkpt lat="42.45788" lon="2.44438">
        <ele>1861.4</ele>
        <time>2020-09-02T11:26:38.822Z</time>
      </trkpt>
      <trkpt lat="42.45791" lon="2.44435">
        <ele>1861.8</ele>
        <time>2020-09-02T11:26:51.105Z</time>
      </trkpt>
      <trkpt lat="42.45794" lon="2.44431">
        <ele>1862.3</ele>
        <time>2020-09-02T11:27:06.877Z</time>
      </trkpt>
      <trkpt lat="42.45798" lon="2.44424">
        <ele>1863.3</ele>
        <time>2020-09-02T11:27:36.532Z</time>
      </trkpt>
      <trkpt lat="42.45803" lon="2.44415">
        <ele>1868.3</ele>
        <time>2020-09-02T11:28:14.266Z</time>
      </trkpt>
      <trkpt lat="42.45811" lon="2.44401">
        <ele>1869.6</ele>
        <time>2020-09-02T11:28:54.061Z</time>
      </trkpt>
      <trkpt lat="42.45813" lon="2.44395">
        <ele>1869.9</ele>
        <time>2020-09-02T11:29:04.892Z</time>
      </trkpt>
      <trkpt lat="42.45816" lon="2.4439">
        <ele>1870.2</ele>
        <time>2020-09-02T11:29:15.596Z</time>
      </trkpt>
      <trkpt lat="42.45822" lon="2.44382">
        <ele>1871.2</ele>
        <time>2020-09-02T11:29:47.139Z</time>
      </trkpt>
      <trkpt lat="42.45825" lon="2.44377">
        <ele>1871.9</ele>
        <time>2020-09-02T11:30:08.725Z</time>
      </trkpt>
      <trkpt lat="42.45829" lon="2.44372">
        <ele>1872.8</ele>
        <time>2020-09-02T11:30:33.427Z</time>
      </trkpt>
      <trkpt lat="42.45834" lon="2.44356">
        <ele>1882.3</ele>
        <time>2020-09-02T11:31:31.624Z</time>
      </trkpt>
      <trkpt lat="42.4584" lon="2.44338">
        <ele>1886.3</ele>
        <time>2020-09-02T11:32:37.779Z</time>
      </trkpt>
      <trkpt lat="42.45842" lon="2.44334">
        <ele>1886.3</ele>
        <time>2020-09-02T11:32:41.974Z</time>
      </trkpt>
      <trkpt lat="42.45844" lon="2.44326">
        <ele>1891</ele>
        <time>2020-09-02T11:33:10.265Z</time>
      </trkpt>
      <trkpt lat="42.45847" lon="2.44322">
        <ele>1891.2</ele>
        <time>2020-09-02T11:33:18.787Z</time>
      </trkpt>
      <trkpt lat="42.45851" lon="2.44317">
        <ele>1891.5</ele>
        <time>2020-09-02T11:33:30.375Z</time>
      </trkpt>
      <trkpt lat="42.45854" lon="2.44308">
        <ele>1892</ele>
        <time>2020-09-02T11:33:47.454Z</time>
      </trkpt>
      <trkpt lat="42.45864" lon="2.4428">
        <ele>1893.6</ele>
        <time>2020-09-02T11:34:41.692Z</time>
      </trkpt>
      <trkpt lat="42.45869" lon="2.44266">
        <ele>1894.5</ele>
        <time>2020-09-02T11:35:10.714Z</time>
      </trkpt>
      <trkpt lat="42.45869" lon="2.44259">
        <ele>1894.8</ele>
        <time>2020-09-02T11:35:21.938Z</time>
      </trkpt>
      <trkpt lat="42.4587" lon="2.44254">
        <ele>1895</ele>
        <time>2020-09-02T11:35:29.925Z</time>
      </trkpt>
      <trkpt lat="42.45871" lon="2.44248">
        <ele>1901.4</ele>
        <time>2020-09-02T11:35:50.527Z</time>
      </trkpt>
      <trkpt lat="42.45873" lon="2.4424">
        <ele>1902</ele>
        <time>2020-09-02T11:36:08.933Z</time>
        <extensions>
          <visugpx:TrkExtension xmlns:visugpx="https://www.visugpx.com/editgpx/">
            <visugpx:node>10</visugpx:node>
            </visugpx:TrkExtension>
        </extensions>
      </trkpt>
      <trkpt lat="42.4588" lon="2.44222">
        <ele>1903.4</ele>
        <time>2020-09-02T11:36:52.048Z</time>
      </trkpt>
      <trkpt lat="42.45882" lon="2.44214">
        <ele>1904.1</ele>
        <time>2020-09-02T11:37:13.726Z</time>
      </trkpt>
      <trkpt lat="42.45884" lon="2.44208">
        <ele>1904.7</ele>
        <time>2020-09-02T11:37:33.014Z</time>
      </trkpt>
      <trkpt lat="42.45888" lon="2.44193">
        <ele>1906.8</ele>
        <time>2020-09-02T11:38:26.434Z</time>
      </trkpt>
      <trkpt lat="42.45889" lon="2.44187">
        <ele>1907.7</ele>
        <time>2020-09-02T11:38:47.036Z</time>
      </trkpt>
      <trkpt lat="42.45894" lon="2.44181">
        <ele>1909.6</ele>
        <time>2020-09-02T11:39:17.352Z</time>
      </trkpt>
      <trkpt lat="42.45897" lon="2.44178">
        <ele>1911</ele>
        <time>2020-09-02T11:39:34.276Z</time>
      </trkpt>
      <trkpt lat="42.45902" lon="2.4417">
        <ele>1914.2</ele>
        <time>2020-09-02T11:40:09.392Z</time>
      </trkpt>
      <trkpt lat="42.45913" lon="2.44155">
        <ele>1920.2</ele>
        <time>2020-09-02T11:41:20.227Z</time>
      </trkpt>
      <trkpt lat="42.45922" lon="2.44141">
        <ele>1932.8</ele>
        <time>2020-09-02T11:42:22.420Z</time>
      </trkpt>
      <trkpt lat="42.45923" lon="2.44136">
        <ele>1933.8</ele>
        <time>2020-09-02T11:42:39.770Z</time>
      </trkpt>
      <trkpt lat="42.45926" lon="2.4413">
        <ele>1935.2</ele>
        <time>2020-09-02T11:43:04.046Z</time>
      </trkpt>
      <trkpt lat="42.45933" lon="2.44115">
        <ele>1937.8</ele>
        <time>2020-09-02T11:44:03.491Z</time>
      </trkpt>
      <trkpt lat="42.45941" lon="2.44101">
        <ele>1939.8</ele>
        <time>2020-09-02T11:45:02.800Z</time>
      </trkpt>
      <trkpt lat="42.45942" lon="2.44097">
        <ele>1940.2</ele>
        <time>2020-09-02T11:45:15.982Z</time>
      </trkpt>
      <trkpt lat="42.4594" lon="2.44089">
        <ele>1940.8</ele>
        <time>2020-09-02T11:45:34.388Z</time>
      </trkpt>
      <trkpt lat="42.45941" lon="2.44086">
        <ele>1941</ele>
        <time>2020-09-02T11:45:40.731Z</time>
      </trkpt>
      <trkpt lat="42.45951" lon="2.44072">
        <ele>1955.7</ele>
        <time>2020-09-02T11:46:45.995Z</time>
      </trkpt>
      <trkpt lat="42.45957" lon="2.44061">
        <ele>1957.5</ele>
        <time>2020-09-02T11:47:31.812Z</time>
      </trkpt>
      <trkpt lat="42.45955" lon="2.44059">
        <ele>1957.5</ele>
        <time>2020-09-02T11:47:34.738Z</time>
      </trkpt>
      <trkpt lat="42.45948" lon="2.44055">
        <ele>1957</ele>
        <time>2020-09-02T11:47:36.388Z</time>
      </trkpt>
      <trkpt lat="42.45947" lon="2.4405">
        <ele>1957.5</ele>
        <time>2020-09-02T11:47:53.108Z</time>
      </trkpt>
      <trkpt lat="42.4595" lon="2.44042">
        <ele>1958.6</ele>
        <time>2020-09-02T11:48:23.164Z</time>
      </trkpt>
      <trkpt lat="42.45953" lon="2.44035">
        <ele>1959.8</ele>
        <time>2020-09-02T11:48:50.277Z</time>
      </trkpt>
      <trkpt lat="42.45962" lon="2.44024">
        <ele>1962.2</ele>
        <time>2020-09-02T11:49:45.292Z</time>
      </trkpt>
      <trkpt lat="42.45965" lon="2.4402">
        <ele>1963.3</ele>
        <time>2020-09-02T11:50:04.396Z</time>
      </trkpt>
      <trkpt lat="42.45964" lon="2.44018">
        <ele>1963.3</ele>
        <time>2020-09-02T11:50:06.494Z</time>
      </trkpt>
      <trkpt lat="42.45961" lon="2.44013">
        <ele>1963.1</ele>
        <time>2020-09-02T11:50:07.755Z</time>
      </trkpt>
      <trkpt lat="42.45962" lon="2.44008">
        <ele>1963.8</ele>
        <time>2020-09-02T11:50:25.106Z</time>
      </trkpt>
      <trkpt lat="42.45966" lon="2.44">
        <ele>1974.1</ele>
        <time>2020-09-02T11:50:57.473Z</time>
      </trkpt>
      <trkpt lat="42.45967" lon="2.43988">
        <ele>1974.6</ele>
        <time>2020-09-02T11:51:16.574Z</time>
      </trkpt>
      <trkpt lat="42.45969" lon="2.43984">
        <ele>1975</ele>
        <time>2020-09-02T11:51:28.958Z</time>
      </trkpt>
      <trkpt lat="42.45968" lon="2.4398">
        <ele>1975</ele>
        <time>2020-09-02T11:51:32.626Z</time>
      </trkpt>
      <trkpt lat="42.45968" lon="2.43974">
        <ele>1975.2</ele>
        <time>2020-09-02T11:51:41.456Z</time>
      </trkpt>
      <trkpt lat="42.45971" lon="2.43964">
        <ele>1976.1</ele>
        <time>2020-09-02T11:52:09.370Z</time>
      </trkpt>
      <trkpt lat="42.45977" lon="2.43946">
        <ele>1978.7</ele>
        <time>2020-09-02T11:53:15.523Z</time>
      </trkpt>
      <trkpt lat="42.4598" lon="2.43945">
        <ele>1979.3</ele>
        <time>2020-09-02T11:53:29.548Z</time>
      </trkpt>
      <trkpt lat="42.45982" lon="2.43941">
        <ele>1980.3</ele>
        <time>2020-09-02T11:53:45.732Z</time>
      </trkpt>
      <trkpt lat="42.45985" lon="2.43929">
        <ele>1983.8</ele>
        <time>2020-09-02T11:54:28.167Z</time>
      </trkpt>
      <trkpt lat="42.4599" lon="2.43925">
        <ele>1986.7</ele>
        <time>2020-09-02T11:54:54.524Z</time>
      </trkpt>
      <trkpt lat="42.45995" lon="2.4392">
        <ele>1990.6</ele>
        <time>2020-09-02T11:55:22.732Z</time>
      </trkpt>
      <trkpt lat="42.45997" lon="2.43914">
        <ele>1991.3</ele>
        <time>2020-09-02T11:55:44.783Z</time>
      </trkpt>
      <trkpt lat="42.46002" lon="2.4391">
        <ele>1995.7</ele>
        <time>2020-09-02T11:56:11.140Z</time>
      </trkpt>
      <trkpt lat="42.46008" lon="2.43909">
        <ele>1996.1</ele>
        <time>2020-09-02T11:56:25.055Z</time>
      </trkpt>
      <trkpt lat="42.46013" lon="2.4391">
        <ele>1996.5</ele>
        <time>2020-09-02T11:56:37.911Z</time>
      </trkpt>
      <trkpt lat="42.46017" lon="2.4391">
        <ele>1996.9</ele>
        <time>2020-09-02T11:56:50.154Z</time>
      </trkpt>
      <trkpt lat="42.46024" lon="2.43906">
        <ele>1997.6</ele>
        <time>2020-09-02T11:57:11.752Z</time>
      </trkpt>
      <trkpt lat="42.46031" lon="2.43901">
        <ele>1998.2</ele>
        <time>2020-09-02T11:57:31.353Z</time>
      </trkpt>
      <trkpt lat="42.46039" lon="2.43887">
        <ele>1999</ele>
        <time>2020-09-02T11:58:00.376Z</time>
      </trkpt>
      <trkpt lat="42.46051" lon="2.43876">
        <ele>2000.4</ele>
        <time>2020-09-02T11:58:43.310Z</time>
      </trkpt>
      <trkpt lat="42.46063" lon="2.43867">
        <ele>2002.3</ele>
        <time>2020-09-02T11:59:45.569Z</time>
      </trkpt>
      <trkpt lat="42.46076" lon="2.43856">
        <ele>2005.6</ele>
        <time>2020-09-02T12:00:55.141Z</time>
      </trkpt>
      <trkpt lat="42.46082" lon="2.43848">
        <ele>2008.5</ele>
        <time>2020-09-02T12:01:33.348Z</time>
      </trkpt>
      <trkpt lat="42.46098" lon="2.4383">
        <ele>2021.3</ele>
        <time>2020-09-02T12:03:07.741Z</time>
      </trkpt>
      <trkpt lat="42.46101" lon="2.43824">
        <ele>2022.4</ele>
        <time>2020-09-02T12:03:32.017Z</time>
      </trkpt>
      <trkpt lat="42.4611" lon="2.43803">
        <ele>2025.4</ele>
        <time>2020-09-02T12:04:53.355Z</time>
      </trkpt>
      <trkpt lat="42.46122" lon="2.4378">
        <ele>2027.7</ele>
        <time>2020-09-02T12:06:04.345Z</time>
      </trkpt>
      <trkpt lat="42.46135" lon="2.43751">
        <ele>2032.3</ele>
        <time>2020-09-02T12:07:57.993Z</time>
      </trkpt>
      <trkpt lat="42.46139" lon="2.43744">
        <ele>2035.3</ele>
        <time>2020-09-02T12:08:27.647Z</time>
      </trkpt>
      <trkpt lat="42.4614" lon="2.43739">
        <ele>2035.4</ele>
        <time>2020-09-02T12:08:33.563Z</time>
      </trkpt>
      <trkpt lat="42.46143" lon="2.43724">
        <ele>2035.1</ele>
        <time>2020-09-02T12:08:37.135Z</time>
      </trkpt>
      <trkpt lat="42.46151" lon="2.43699">
        <ele>2037</ele>
        <time>2020-09-02T12:09:35.541Z</time>
      </trkpt>
      <trkpt lat="42.46162" lon="2.43667">
        <ele>2049.4</ele>
        <time>2020-09-02T12:11:33.776Z</time>
      </trkpt>
      <trkpt lat="42.4617" lon="2.4365">
        <ele>2059.5</ele>
        <time>2020-09-02T12:12:41.307Z</time>
      </trkpt>
      <trkpt lat="42.46176" lon="2.43639">
        <ele>2061.5</ele>
        <time>2020-09-02T12:13:27.123Z</time>
      </trkpt>
      <trkpt lat="42.4619" lon="2.43618">
        <ele>2063.4</ele>
        <time>2020-09-02T12:14:25.876Z</time>
      </trkpt>
      <trkpt lat="42.46202" lon="2.43598">
        <ele>2064.7</ele>
        <time>2020-09-02T12:15:10.366Z</time>
      </trkpt>
      <trkpt lat="42.46216" lon="2.43579">
        <ele>2064.9</ele>
        <time>2020-09-02T12:15:36.059Z</time>
      </trkpt>
      <trkpt lat="42.46229" lon="2.4356">
        <ele>2066.8</ele>
        <time>2020-09-02T12:16:34.223Z</time>
      </trkpt>
      <trkpt lat="42.46242" lon="2.43543">
        <ele>2067.3</ele>
        <time>2020-09-02T12:17:02.705Z</time>
      </trkpt>
      <trkpt lat="42.46253" lon="2.43529">
        <ele>2082.4</ele>
        <time>2020-09-02T12:18:11.203Z</time>
      </trkpt>
      <trkpt lat="42.46271" lon="2.43503">
        <ele>2082.6</ele>
        <time>2020-09-02T12:18:44.480Z</time>
      </trkpt>
      <trkpt lat="42.4629" lon="2.43478">
        <ele>2088.9</ele>
        <time>2020-09-02T12:20:44.687Z</time>
      </trkpt>
      <trkpt lat="42.46317" lon="2.4345">
        <ele>2094.1</ele>
        <time>2020-09-02T12:23:19.016Z</time>
      </trkpt>
      <trkpt lat="42.4632" lon="2.43446">
        <ele>2095.1</ele>
        <time>2020-09-02T12:23:38.119Z</time>
        <extensions>
          <visugpx:TrkExtension xmlns:visugpx="https://www.visugpx.com/editgpx/">
            <visugpx:node>11</visugpx:node>
            </visugpx:TrkExtension>
        </extensions>
      </trkpt>
      <trkpt lat="42.46337" lon="2.43426">
        <ele>2106.9</ele>
        <time>2020-09-02T12:25:20.307Z</time>
      </trkpt>
      <trkpt lat="42.46347" lon="2.43406">
        <ele>2112.3</ele>
        <time>2020-09-02T12:26:41.222Z</time>
      </trkpt>
      <trkpt lat="42.46354" lon="2.43379">
        <ele>2115.1</ele>
        <time>2020-09-02T12:28:15.957Z</time>
      </trkpt>
      <trkpt lat="42.46369" lon="2.43342">
        <ele>2117.6</ele>
        <time>2020-09-02T12:29:35.911Z</time>
      </trkpt>
      <trkpt lat="42.46379" lon="2.43308">
        <ele>2126.7</ele>
        <time>2020-09-02T12:31:38.492Z</time>
      </trkpt>
      <trkpt lat="42.4639" lon="2.43289">
        <ele>2128.8</ele>
        <time>2020-09-02T12:32:44.518Z</time>
      </trkpt>
      <trkpt lat="42.46398" lon="2.43273">
        <ele>2131.4</ele>
        <time>2020-09-02T12:33:49.250Z</time>
      </trkpt>
      <trkpt lat="42.46409" lon="2.43244">
        <ele>2141.8</ele>
        <time>2020-09-02T12:35:38.456Z</time>
      </trkpt>
      <trkpt lat="42.46422" lon="2.43229">
        <ele>2144.5</ele>
        <time>2020-09-02T12:36:55.957Z</time>
      </trkpt>
      <trkpt lat="42.46441" lon="2.43197">
        <ele>2148.9</ele>
        <time>2020-09-02T12:39:13.523Z</time>
      </trkpt>
      <trkpt lat="42.46466" lon="2.43165">
        <ele>2160.1</ele>
        <time>2020-09-02T12:41:49.617Z</time>
      </trkpt>
      <trkpt lat="42.46479" lon="2.43141">
        <ele>2160.5</ele>
        <time>2020-09-02T12:42:20.645Z</time>
      </trkpt>
      <trkpt lat="42.46497" lon="2.43102">
        <ele>2164</ele>
        <time>2020-09-02T12:44:07.786Z</time>
      </trkpt>
      <trkpt lat="42.46514" lon="2.43059">
        <ele>2169</ele>
        <time>2020-09-02T12:46:51.165Z</time>
      </trkpt>
      <trkpt lat="42.46533" lon="2.4302">
        <ele>2172</ele>
        <time>2020-09-02T12:48:24.837Z</time>
      </trkpt>
      <trkpt lat="42.46549" lon="2.42985">
        <ele>2178.3</ele>
        <time>2020-09-02T12:50:42.729Z</time>
      </trkpt>
      <trkpt lat="42.46568" lon="2.42941">
        <ele>2180.9</ele>
        <time>2020-09-02T12:52:11.223Z</time>
      </trkpt>
      <trkpt lat="42.46582" lon="2.42908">
        <ele>2184.7</ele>
        <time>2020-09-02T12:54:18.708Z</time>
      </trkpt>
      <trkpt lat="42.46604" lon="2.42867">
        <ele>2194.3</ele>
        <time>2020-09-02T12:57:08.493Z</time>
      </trkpt>
      <trkpt lat="42.46637" lon="2.42824">
        <ele>2200.2</ele>
        <time>2020-09-02T13:00:23.502Z</time>
      </trkpt>
      <trkpt lat="42.46662" lon="2.42793">
        <ele>2201.1</ele>
        <time>2020-09-02T13:01:16.202Z</time>
      </trkpt>
      <trkpt lat="42.46676" lon="2.42776">
        <ele>2209.2</ele>
        <time>2020-09-02T13:02:41.527Z</time>
      </trkpt>
      <trkpt lat="42.46699" lon="2.42763">
        <ele>2210.6</ele>
        <time>2020-09-02T13:03:34.976Z</time>
      </trkpt>
      <trkpt lat="42.46711" lon="2.42749">
        <ele>2214.5</ele>
        <time>2020-09-02T13:04:46.849Z</time>
      </trkpt>
      <trkpt lat="42.46724" lon="2.42726">
        <ele>2215.9</ele>
        <time>2020-09-02T13:05:35.809Z</time>
      </trkpt>
      <trkpt lat="42.46736" lon="2.42712">
        <ele>2216.8</ele>
        <time>2020-09-02T13:06:09.921Z</time>
      </trkpt>
      <trkpt lat="42.46751" lon="2.42696">
        <ele>2227.1</ele>
        <time>2020-09-02T13:07:36.569Z</time>
      </trkpt>
      <trkpt lat="42.46771" lon="2.42679">
        <ele>2228.1</ele>
        <time>2020-09-02T13:08:21.969Z</time>
      </trkpt>
      <trkpt lat="42.46801" lon="2.42655">
        <ele>2234.7</ele>
        <time>2020-09-02T13:11:00.107Z</time>
      </trkpt>
      <trkpt lat="42.46831" lon="2.42625">
        <ele>2236.5</ele>
        <time>2020-09-02T13:12:15.974Z</time>
      </trkpt>
      <trkpt lat="42.46859" lon="2.42595">
        <ele>2246.7</ele>
        <time>2020-09-02T13:14:57.993Z</time>
      </trkpt>
      <trkpt lat="42.46884" lon="2.42568">
        <ele>2249.3</ele>
        <time>2020-09-02T13:16:20.774Z</time>
      </trkpt>
      <trkpt lat="42.46896" lon="2.42548">
        <ele>2249.9</ele>
        <time>2020-09-02T13:16:52.254Z</time>
      </trkpt>
      <trkpt lat="42.46906" lon="2.42514">
        <ele>2251.8</ele>
        <time>2020-09-02T13:17:56.378Z</time>
      </trkpt>
      <trkpt lat="42.46919" lon="2.4245">
        <ele>2263.3</ele>
        <time>2020-09-02T13:21:38.672Z</time>
      </trkpt>
      <trkpt lat="42.46939" lon="2.42393">
        <ele>2265.6</ele>
        <time>2020-09-02T13:23:14.115Z</time>
      </trkpt>
      <trkpt lat="42.46954" lon="2.42356">
        <ele>2267</ele>
        <time>2020-09-02T13:24:16.156Z</time>
      </trkpt>
      <trkpt lat="42.46964" lon="2.42319">
        <ele>2267.5</ele>
        <time>2020-09-02T13:24:56.765Z</time>
      </trkpt>
      <trkpt lat="42.46976" lon="2.42282">
        <ele>2269.5</ele>
        <time>2020-09-02T13:26:05.855Z</time>
      </trkpt>
      <trkpt lat="42.46976" lon="2.42258">
        <ele>2271.5</ele>
        <time>2020-09-02T13:27:07.881Z</time>
      </trkpt>
      <trkpt lat="42.46984" lon="2.42238">
        <ele>2272.4</ele>
        <time>2020-09-02T13:27:43.260Z</time>
      </trkpt>
      <trkpt lat="42.46999" lon="2.42218">
        <ele>2271.8</ele>
        <time>2020-09-02T13:27:49.648Z</time>
      </trkpt>
      <trkpt lat="42.47004" lon="2.42194">
        <ele>2290.7</ele>
        <time>2020-09-02T13:29:13.160Z</time>
      </trkpt>
      <trkpt lat="42.47016" lon="2.4215">
        <ele>2289.9</ele>
        <time>2020-09-02T13:29:24.310Z</time>
      </trkpt>
      <trkpt lat="42.47017" lon="2.42146">
        <ele>2290.2</ele>
        <time>2020-09-02T13:29:33.513Z</time>
        <extensions>
          <visugpx:TrkExtension xmlns:visugpx="https://www.visugpx.com/editgpx/">
            <visugpx:node>12</visugpx:node>
            </visugpx:TrkExtension>
        </extensions>
      </trkpt>
      <trkpt lat="42.4702" lon="2.42136">
        <ele>2290.6</ele>
        <time>2020-09-02T13:29:49.925Z</time>
      </trkpt>
      <trkpt lat="42.47026" lon="2.4211">
        <ele>2290.5</ele>
        <time>2020-09-02T13:30:11.901Z</time>
      </trkpt>
      <trkpt lat="42.4703" lon="2.42066">
        <ele>2291.3</ele>
        <time>2020-09-02T13:31:01.504Z</time>
      </trkpt>
      <trkpt lat="42.4707" lon="2.42019">
        <ele>2295.4</ele>
        <time>2020-09-02T13:33:14.336Z</time>
      </trkpt>
      <trkpt lat="42.47103" lon="2.41944">
        <ele>2296.2</ele>
        <time>2020-09-02T13:34:39.884Z</time>
      </trkpt>
      <trkpt lat="42.47125" lon="2.41871">
        <ele>2291.9</ele>
        <time>2020-09-02T13:34:53.590Z</time>
      </trkpt>
      <trkpt lat="42.47143" lon="2.4183">
        <ele>2287.9</ele>
        <time>2020-09-02T13:35:01.882Z</time>
      </trkpt>
      <trkpt lat="42.47157" lon="2.41792">
        <ele>2287.9</ele>
        <time>2020-09-02T13:35:38.758Z</time>
      </trkpt>
      <trkpt lat="42.4719" lon="2.41765">
        <ele>2283.3</ele>
        <time>2020-09-02T13:35:47.840Z</time>
      </trkpt>
      <trkpt lat="42.47212" lon="2.41731">
        <ele>2283.4</ele>
        <time>2020-09-02T13:36:28.213Z</time>
      </trkpt>
      <trkpt lat="42.47249" lon="2.41701">
        <ele>2282.7</ele>
        <time>2020-09-02T13:36:43.278Z</time>
      </trkpt>
      <trkpt lat="42.47269" lon="2.41659">
        <ele>2279.5</ele>
        <time>2020-09-02T13:36:51.966Z</time>
      </trkpt>
      <trkpt lat="42.47287" lon="2.41611">
        <ele>2278.9</ele>
        <time>2020-09-02T13:37:06.040Z</time>
      </trkpt>
      <trkpt lat="42.47309" lon="2.416">
        <ele>2277.6</ele>
        <time>2020-09-02T13:37:11.572Z</time>
      </trkpt>
      <trkpt lat="42.47326" lon="2.41581">
        <ele>2276.5</ele>
        <time>2020-09-02T13:37:17.019Z</time>
      </trkpt>
      <trkpt lat="42.47341" lon="2.41559">
        <ele>2272.9</ele>
        <time>2020-09-02T13:37:22.226Z</time>
      </trkpt>
      <trkpt lat="42.47358" lon="2.41545">
        <ele>2272.1</ele>
        <time>2020-09-02T13:37:27.596Z</time>
      </trkpt>
      <trkpt lat="42.47371" lon="2.41531">
        <ele>2271.5</ele>
        <time>2020-09-02T13:37:32.259Z</time>
      </trkpt>
      <trkpt lat="42.47387" lon="2.41507">
        <ele>2270.4</ele>
        <time>2020-09-02T13:37:38.361Z</time>
      </trkpt>
      <trkpt lat="42.47399" lon="2.41477">
        <ele>2270.5</ele>
        <time>2020-09-02T13:38:09.106Z</time>
      </trkpt>
      <trkpt lat="42.47412" lon="2.41449">
        <ele>2270.9</ele>
        <time>2020-09-02T13:38:42.902Z</time>
      </trkpt>
      <trkpt lat="42.47429" lon="2.41422">
        <ele>2268.6</ele>
        <time>2020-09-02T13:38:49.072Z</time>
      </trkpt>
      <trkpt lat="42.47446" lon="2.41395">
        <ele>2269.7</ele>
        <time>2020-09-02T13:39:39.166Z</time>
      </trkpt>
      <trkpt lat="42.47461" lon="2.41374">
        <ele>2269.7</ele>
        <time>2020-09-02T13:40:04.543Z</time>
        <extensions>
          <visugpx:TrkExtension xmlns:visugpx="https://www.visugpx.com/editgpx/">
            <visugpx:node>13</visugpx:node>
            </visugpx:TrkExtension>
        </extensions>
      </trkpt>
      <trkpt lat="42.47465" lon="2.41367">
        <ele>2269.8</ele>
        <time>2020-09-02T13:40:13.484Z</time>
      </trkpt>
      <trkpt lat="42.47483" lon="2.41347">
        <ele>2269.8</ele>
        <time>2020-09-02T13:40:40.875Z</time>
      </trkpt>
      <trkpt lat="42.47497" lon="2.41332">
        <ele>2269.8</ele>
        <time>2020-09-02T13:41:01.877Z</time>
      </trkpt>
      <trkpt lat="42.47507" lon="2.41317">
        <ele>2269</ele>
        <time>2020-09-02T13:41:05.449Z</time>
      </trkpt>
      <trkpt lat="42.47514" lon="2.41291">
        <ele>2268</ele>
        <time>2020-09-02T13:41:10.537Z</time>
      </trkpt>
      <trkpt lat="42.47525" lon="2.41265">
        <ele>2267.2</ele>
        <time>2020-09-02T13:41:16.743Z</time>
      </trkpt>
      <trkpt lat="42.47537" lon="2.41242">
        <ele>2263.6</ele>
        <time>2020-09-02T13:41:21.639Z</time>
      </trkpt>
      <trkpt lat="42.4755" lon="2.41231">
        <ele>2263.5</ele>
        <time>2020-09-02T13:41:38.036Z</time>
      </trkpt>
      <trkpt lat="42.47568" lon="2.41227">
        <ele>2263.9</ele>
        <time>2020-09-02T13:42:04.900Z</time>
      </trkpt>
      <trkpt lat="42.47583" lon="2.41224">
        <ele>2264</ele>
        <time>2020-09-02T13:42:23.893Z</time>
      </trkpt>
      <trkpt lat="42.47595" lon="2.41214">
        <ele>2261.6</ele>
        <time>2020-09-02T13:42:27.212Z</time>
      </trkpt>
      <trkpt lat="42.47598" lon="2.41198">
        <ele>2260.8</ele>
        <time>2020-09-02T13:42:29.860Z</time>
      </trkpt>
      <trkpt lat="42.47597" lon="2.41182">
        <ele>2260.4</ele>
        <time>2020-09-02T13:42:33.265Z</time>
      </trkpt>
      <trkpt lat="42.47596" lon="2.41162">
        <ele>2258.1</ele>
        <time>2020-09-02T13:42:36.749Z</time>
      </trkpt>
      <trkpt lat="42.4759" lon="2.41144">
        <ele>2257</ele>
        <time>2020-09-02T13:42:40.182Z</time>
      </trkpt>
      <trkpt lat="42.47589" lon="2.41121">
        <ele>2255.2</ele>
        <time>2020-09-02T13:42:44.186Z</time>
      </trkpt>
      <trkpt lat="42.47589" lon="2.41101">
        <ele>2253.5</ele>
        <time>2020-09-02T13:42:47.662Z</time>
      </trkpt>
      <trkpt lat="42.47595" lon="2.41082">
        <ele>2249.4</ele>
        <time>2020-09-02T13:42:51.254Z</time>
      </trkpt>
      <trkpt lat="42.47606" lon="2.41065">
        <ele>2247.9</ele>
        <time>2020-09-02T13:42:55.184Z</time>
      </trkpt>
      <trkpt lat="42.47619" lon="2.41052">
        <ele>2247</ele>
        <time>2020-09-02T13:42:58.987Z</time>
      </trkpt>
      <trkpt lat="42.47634" lon="2.41041">
        <ele>2246.7</ele>
        <time>2020-09-02T13:43:04.848Z</time>
      </trkpt>
      <trkpt lat="42.47646" lon="2.41027">
        <ele>2246.2</ele>
        <time>2020-09-02T13:43:09.504Z</time>
      </trkpt>
      <trkpt lat="42.4766" lon="2.41007">
        <ele>2245.4</ele>
        <time>2020-09-02T13:43:15.040Z</time>
      </trkpt>
      <trkpt lat="42.47668" lon="2.40987">
        <ele>2244</ele>
        <time>2020-09-02T13:43:18.995Z</time>
      </trkpt>
      <trkpt lat="42.47687" lon="2.40973">
        <ele>2243.2</ele>
        <time>2020-09-02T13:43:25.017Z</time>
      </trkpt>
      <trkpt lat="42.47702" lon="2.4096">
        <ele>2242.9</ele>
        <time>2020-09-02T13:43:31.191Z</time>
      </trkpt>
      <trkpt lat="42.47714" lon="2.40946">
        <ele>2242.6</ele>
        <time>2020-09-02T13:43:36.544Z</time>
      </trkpt>
      <trkpt lat="42.47733" lon="2.40926">
        <ele>2242.4</ele>
        <time>2020-09-02T13:43:45.854Z</time>
      </trkpt>
      <trkpt lat="42.47745" lon="2.40914">
        <ele>2238.5</ele>
        <time>2020-09-02T13:43:49.368Z</time>
      </trkpt>
      <trkpt lat="42.47757" lon="2.409">
        <ele>2235.7</ele>
        <time>2020-09-02T13:43:53.098Z</time>
      </trkpt>
      <trkpt lat="42.47771" lon="2.40887">
        <ele>2232.3</ele>
        <time>2020-09-02T13:43:57.096Z</time>
      </trkpt>
      <trkpt lat="42.47786" lon="2.40878">
        <ele>2230.5</ele>
        <time>2020-09-02T13:44:00.961Z</time>
      </trkpt>
      <trkpt lat="42.47801" lon="2.40875">
        <ele>2230.1</ele>
        <time>2020-09-02T13:44:05.673Z</time>
      </trkpt>
      <trkpt lat="42.47809" lon="2.40869">
        <ele>2228.7</ele>
        <time>2020-09-02T13:44:07.827Z</time>
      </trkpt>
      <trkpt lat="42.47818" lon="2.40864">
        <ele>2227.5</ele>
        <time>2020-09-02T13:44:10.119Z</time>
      </trkpt>
      <trkpt lat="42.47827" lon="2.40859">
        <ele>2225.4</ele>
        <time>2020-09-02T13:44:12.411Z</time>
      </trkpt>
      <trkpt lat="42.47835" lon="2.40853">
        <ele>2219.1</ele>
        <time>2020-09-02T13:44:14.565Z</time>
      </trkpt>
      <trkpt lat="42.47843" lon="2.40849">
        <ele>2218.3</ele>
        <time>2020-09-02T13:44:16.574Z</time>
      </trkpt>
      <trkpt lat="42.47856" lon="2.40845">
        <ele>2218</ele>
        <time>2020-09-02T13:44:20.900Z</time>
      </trkpt>
      <trkpt lat="42.47872" lon="2.40844">
        <ele>2217.1</ele>
        <time>2020-09-02T13:44:24.655Z</time>
      </trkpt>
      <trkpt lat="42.4788" lon="2.4084">
        <ele>2215.8</ele>
        <time>2020-09-02T13:44:26.664Z</time>
      </trkpt>
      <trkpt lat="42.47889" lon="2.40839">
        <ele>2214.2</ele>
        <time>2020-09-02T13:44:28.792Z</time>
      </trkpt>
      <trkpt lat="42.47904" lon="2.4084">
        <ele>2210</ele>
        <time>2020-09-02T13:44:32.331Z</time>
      </trkpt>
      <trkpt lat="42.4792" lon="2.40848">
        <ele>2202.3</ele>
        <time>2020-09-02T13:44:36.349Z</time>
      </trkpt>
      <trkpt lat="42.47927" lon="2.40851">
        <ele>2202.3</ele>
        <time>2020-09-02T13:44:44.990Z</time>
      </trkpt>
      <trkpt lat="42.47932" lon="2.40852">
        <ele>2202.2</ele>
        <time>2020-09-02T13:44:46.682Z</time>
      </trkpt>
      <trkpt lat="42.47935" lon="2.40854">
        <ele>2202</ele>
        <time>2020-09-02T13:44:47.443Z</time>
      </trkpt>
      <trkpt lat="42.47939" lon="2.40855">
        <ele>2201.8</ele>
        <time>2020-09-02T13:44:48.455Z</time>
      </trkpt>
      <trkpt lat="42.47944" lon="2.40855">
        <ele>2201.4</ele>
        <time>2020-09-02T13:44:49.634Z</time>
      </trkpt>
      <trkpt lat="42.47949" lon="2.40854">
        <ele>2200.9</ele>
        <time>2020-09-02T13:44:50.824Z</time>
      </trkpt>
      <trkpt lat="42.47955" lon="2.40853">
        <ele>2200.2</ele>
        <time>2020-09-02T13:44:52.249Z</time>
      </trkpt>
      <trkpt lat="42.47963" lon="2.40853">
        <ele>2199.2</ele>
        <time>2020-09-02T13:44:54.134Z</time>
      </trkpt>
      <trkpt lat="42.47968" lon="2.40853">
        <ele>2198.5</ele>
        <time>2020-09-02T13:44:55.312Z</time>
      </trkpt>
      <trkpt lat="42.47973" lon="2.40852">
        <ele>2197.7</ele>
        <time>2020-09-02T13:44:56.503Z</time>
      </trkpt>
      <trkpt lat="42.47977" lon="2.4085">
        <ele>2196.7</ele>
        <time>2020-09-02T13:44:57.508Z</time>
      </trkpt>
      <trkpt lat="42.47987" lon="2.40845">
        <ele>2194.1</ele>
        <time>2020-09-02T13:45:00.019Z</time>
      </trkpt>
      <trkpt lat="42.47995" lon="2.40843">
        <ele>2192</ele>
        <time>2020-09-02T13:45:01.936Z</time>
      </trkpt>
      <trkpt lat="42.48" lon="2.40841">
        <ele>2185.4</ele>
        <time>2020-09-02T13:45:03.164Z</time>
      </trkpt>
      <trkpt lat="42.48002" lon="2.4084">
        <ele>2185.4</ele>
        <time>2020-09-02T13:45:05.673Z</time>
      </trkpt>
      <trkpt lat="42.48006" lon="2.40838">
        <ele>2185.2</ele>
        <time>2020-09-02T13:45:06.755Z</time>
      </trkpt>
      <trkpt lat="42.4801" lon="2.40837">
        <ele>2184.5</ele>
        <time>2020-09-02T13:45:07.714Z</time>
      </trkpt>
      <trkpt lat="42.48016" lon="2.40834">
        <ele>2183.4</ele>
        <time>2020-09-02T13:45:09.221Z</time>
      </trkpt>
      <trkpt lat="42.48022" lon="2.40831">
        <ele>2176</ele>
        <time>2020-09-02T13:45:10.727Z</time>
      </trkpt>
      <trkpt lat="42.48028" lon="2.40827">
        <ele>2174.3</ele>
        <time>2020-09-02T13:45:12.303Z</time>
      </trkpt>
      <trkpt lat="42.48033" lon="2.40824">
        <ele>2173</ele>
        <time>2020-09-02T13:45:13.591Z</time>
      </trkpt>
      <trkpt lat="42.48037" lon="2.40821">
        <ele>2172.1</ele>
        <time>2020-09-02T13:45:14.668Z</time>
      </trkpt>
      <trkpt lat="42.48042" lon="2.40818">
        <ele>2171.1</ele>
        <time>2020-09-02T13:45:15.957Z</time>
      </trkpt>
      <trkpt lat="42.48047" lon="2.40815">
        <ele>2170.3</ele>
        <time>2020-09-02T13:45:17.245Z</time>
      </trkpt>
      <trkpt lat="42.48053" lon="2.40812">
        <ele>2169.7</ele>
        <time>2020-09-02T13:45:18.752Z</time>
      </trkpt>
      <trkpt lat="42.48058" lon="2.40811">
        <ele>2169.3</ele>
        <time>2020-09-02T13:45:19.943Z</time>
      </trkpt>
      <trkpt lat="42.48062" lon="2.4081">
        <ele>2169</ele>
        <time>2020-09-02T13:45:20.901Z</time>
      </trkpt>
      <trkpt lat="42.48066" lon="2.40809">
        <ele>2168.8</ele>
        <time>2020-09-02T13:45:21.913Z</time>
      </trkpt>
      <trkpt lat="42.48071" lon="2.40807">
        <ele>2168.5</ele>
        <time>2020-09-02T13:45:23.122Z</time>
      </trkpt>
      <trkpt lat="42.48075" lon="2.40804">
        <ele>2168</ele>
        <time>2020-09-02T13:45:24.199Z</time>
      </trkpt>
      <trkpt lat="42.4808" lon="2.408">
        <ele>2167.5</ele>
        <time>2020-09-02T13:45:25.567Z</time>
      </trkpt>
      <trkpt lat="42.48085" lon="2.40795">
        <ele>2158.7</ele>
        <time>2020-09-02T13:45:27.031Z</time>
      </trkpt>
      <trkpt lat="42.48087" lon="2.40793">
        <ele>2158.2</ele>
        <time>2020-09-02T13:45:27.617Z</time>
      </trkpt>
      <trkpt lat="42.48092" lon="2.40789">
        <ele>2157.6</ele>
        <time>2020-09-02T13:45:28.985Z</time>
      </trkpt>
      <trkpt lat="42.48096" lon="2.40787">
        <ele>2157</ele>
        <time>2020-09-02T13:45:29.989Z</time>
      </trkpt>
      <trkpt lat="42.48101" lon="2.40786">
        <ele>2156.6</ele>
        <time>2020-09-02T13:45:31.180Z</time>
      </trkpt>
      <trkpt lat="42.48106" lon="2.40786">
        <ele>2156.3</ele>
        <time>2020-09-02T13:45:32.317Z</time>
      </trkpt>
      <trkpt lat="42.48112" lon="2.40788">
        <ele>2156</ele>
        <time>2020-09-02T13:45:33.863Z</time>
      </trkpt>
      <trkpt lat="42.48118" lon="2.40789">
        <ele>2155.6</ele>
        <time>2020-09-02T13:45:35.173Z</time>
      </trkpt>
      <trkpt lat="42.48124" lon="2.40791">
        <ele>2155.1</ele>
        <time>2020-09-02T13:45:36.629Z</time>
      </trkpt>
      <trkpt lat="42.48129" lon="2.40793">
        <ele>2154.7</ele>
        <time>2020-09-02T13:45:37.857Z</time>
      </trkpt>
      <trkpt lat="42.48135" lon="2.40796">
        <ele>2154.2</ele>
        <time>2020-09-02T13:45:39.364Z</time>
      </trkpt>
      <trkpt lat="42.4814" lon="2.40799">
        <ele>2153.9</ele>
        <time>2020-09-02T13:45:40.660Z</time>
      </trkpt>
      <trkpt lat="42.48142" lon="2.40802">
        <ele>2153.8</ele>
        <time>2020-09-02T13:45:41.520Z</time>
      </trkpt>
      <trkpt lat="42.48146" lon="2.40807">
        <ele>2153.7</ele>
        <time>2020-09-02T13:45:43.372Z</time>
      </trkpt>
      <trkpt lat="42.48149" lon="2.40811">
        <ele>2153.4</ele>
        <time>2020-09-02T13:45:44.363Z</time>
      </trkpt>
      <trkpt lat="42.48152" lon="2.40812">
        <ele>2153.1</ele>
        <time>2020-09-02T13:45:45.091Z</time>
      </trkpt>
      <trkpt lat="42.48157" lon="2.40812">
        <ele>2152.8</ele>
        <time>2020-09-02T13:45:46.228Z</time>
      </trkpt>
      <trkpt lat="42.48161" lon="2.40812">
        <ele>2152.5</ele>
        <time>2020-09-02T13:45:47.171Z</time>
      </trkpt>
      <trkpt lat="42.48165" lon="2.40811">
        <ele>2152.3</ele>
        <time>2020-09-02T13:45:48.183Z</time>
      </trkpt>
      <trkpt lat="42.48168" lon="2.40808">
        <ele>2138.9</ele>
        <time>2020-09-02T13:45:49.061Z</time>
      </trkpt>
      <trkpt lat="42.48169" lon="2.40804">
        <ele>2138</ele>
        <time>2020-09-02T13:45:49.795Z</time>
      </trkpt>
      <trkpt lat="42.4817" lon="2.408">
        <ele>2137.3</ele>
        <time>2020-09-02T13:45:50.529Z</time>
      </trkpt>
      <trkpt lat="42.4817" lon="2.40796">
        <ele>2136.8</ele>
        <time>2020-09-02T13:45:51.224Z</time>
      </trkpt>
      <trkpt lat="42.48174" lon="2.40792">
        <ele>2136.3</ele>
        <time>2020-09-02T13:45:52.395Z</time>
      </trkpt>
      <trkpt lat="42.48178" lon="2.40791">
        <ele>2135.7</ele>
        <time>2020-09-02T13:45:53.354Z</time>
      </trkpt>
      <trkpt lat="42.48183" lon="2.40789">
        <ele>2135</ele>
        <time>2020-09-02T13:45:54.582Z</time>
      </trkpt>
      <trkpt lat="42.48186" lon="2.40786">
        <ele>2134.5</ele>
        <time>2020-09-02T13:45:55.460Z</time>
      </trkpt>
      <trkpt lat="42.48188" lon="2.40783">
        <ele>2134.2</ele>
        <time>2020-09-02T13:45:56.163Z</time>
      </trkpt>
      <trkpt lat="42.48187" lon="2.4078">
        <ele>2134.3</ele>
        <time>2020-09-02T13:46:00.752Z</time>
      </trkpt>
      <trkpt lat="42.48186" lon="2.40776">
        <ele>2134.6</ele>
        <time>2020-09-02T13:46:09.955Z</time>
      </trkpt>
      <trkpt lat="42.48183" lon="2.40772">
        <ele>2135.3</ele>
        <time>2020-09-02T13:46:29.055Z</time>
      </trkpt>
      <trkpt lat="42.48177" lon="2.40763">
        <ele>2137.3</ele>
        <time>2020-09-02T13:47:09.674Z</time>
      </trkpt>
      <trkpt lat="42.48173" lon="2.40755">
        <ele>2139.5</ele>
        <time>2020-09-02T13:47:42.033Z</time>
      </trkpt>
      <trkpt lat="42.48172" lon="2.4075">
        <ele>2138.5</ele>
        <time>2020-09-02T13:47:42.934Z</time>
      </trkpt>
      <trkpt lat="42.4817" lon="2.40744">
        <ele>2136.7</ele>
        <time>2020-09-02T13:47:44.078Z</time>
      </trkpt>
      <trkpt lat="42.48169" lon="2.40738">
        <ele>2133</ele>
        <time>2020-09-02T13:47:45.147Z</time>
      </trkpt>
      <trkpt lat="42.48168" lon="2.40731">
        <ele>2129.9</ele>
        <time>2020-09-02T13:47:46.386Z</time>
      </trkpt>
      <trkpt lat="42.48166" lon="2.40726">
        <ele>2138</ele>
        <time>2020-09-02T13:48:05.430Z</time>
      </trkpt>
      <trkpt lat="42.48165" lon="2.40722">
        <ele>2137.2</ele>
        <time>2020-09-02T13:48:06.164Z</time>
      </trkpt>
      <trkpt lat="42.48167" lon="2.4072">
        <ele>2136.7</ele>
        <time>2020-09-02T13:48:06.749Z</time>
      </trkpt>
      <trkpt lat="42.4817" lon="2.4072">
        <ele>2125.5</ele>
        <time>2020-09-02T13:48:07.456Z</time>
      </trkpt>
      <trkpt lat="42.48175" lon="2.40722">
        <ele>2125.6</ele>
        <time>2020-09-02T13:48:14.900Z</time>
      </trkpt>
      <trkpt lat="42.48181" lon="2.40724">
        <ele>2125.4</ele>
        <time>2020-09-02T13:48:16.702Z</time>
      </trkpt>
      <trkpt lat="42.48189" lon="2.40728">
        <ele>2124.5</ele>
        <time>2020-09-02T13:48:18.711Z</time>
      </trkpt>
      <trkpt lat="42.48197" lon="2.40731">
        <ele>2123.1</ele>
        <time>2020-09-02T13:48:20.667Z</time>
      </trkpt>
      <trkpt lat="42.48205" lon="2.40733">
        <ele>2121.7</ele>
        <time>2020-09-02T13:48:22.584Z</time>
      </trkpt>
      <trkpt lat="42.48212" lon="2.40735">
        <ele>2120.3</ele>
        <time>2020-09-02T13:48:24.269Z</time>
      </trkpt>
      <trkpt lat="42.48219" lon="2.40737">
        <ele>2119</ele>
        <time>2020-09-02T13:48:25.955Z</time>
      </trkpt>
      <trkpt lat="42.48226" lon="2.40737">
        <ele>2117.8</ele>
        <time>2020-09-02T13:48:27.604Z</time>
      </trkpt>
      <trkpt lat="42.48232" lon="2.40737">
        <ele>2116.9</ele>
        <time>2020-09-02T13:48:29.018Z</time>
      </trkpt>
      <trkpt lat="42.48238" lon="2.40736">
        <ele>2116.2</ele>
        <time>2020-09-02T13:48:30.442Z</time>
      </trkpt>
      <trkpt lat="42.48243" lon="2.40734">
        <ele>2115.7</ele>
        <time>2020-09-02T13:48:31.671Z</time>
      </trkpt>
      <trkpt lat="42.48248" lon="2.40733">
        <ele>2115.4</ele>
        <time>2020-09-02T13:48:32.826Z</time>
      </trkpt>
      <trkpt lat="42.48253" lon="2.40733">
        <ele>2103.7</ele>
        <time>2020-09-02T13:48:34.004Z</time>
      </trkpt>
      <trkpt lat="42.48258" lon="2.40734">
        <ele>2103.3</ele>
        <time>2020-09-02T13:48:35.195Z</time>
      </trkpt>
      <trkpt lat="42.48262" lon="2.40736">
        <ele>2102.5</ele>
        <time>2020-09-02T13:48:36.199Z</time>
      </trkpt>
      <trkpt lat="42.48266" lon="2.40737">
        <ele>2101.6</ele>
        <time>2020-09-02T13:48:37.158Z</time>
      </trkpt>
      <trkpt lat="42.48271" lon="2.40737">
        <ele>2100</ele>
        <time>2020-09-02T13:48:38.336Z</time>
      </trkpt>
      <trkpt lat="42.48272" lon="2.40735">
        <ele>2099.5</ele>
        <time>2020-09-02T13:48:38.756Z</time>
      </trkpt>
      <trkpt lat="42.48271" lon="2.40731">
        <ele>2099.2</ele>
        <time>2020-09-02T13:48:39.490Z</time>
      </trkpt>
      <trkpt lat="42.48269" lon="2.40726">
        <ele>2098.6</ele>
        <time>2020-09-02T13:48:40.478Z</time>
      </trkpt>
      <trkpt lat="42.48266" lon="2.4072">
        <ele>2098</ele>
        <time>2020-09-02T13:48:41.738Z</time>
      </trkpt>
      <trkpt lat="42.48263" lon="2.40713">
        <ele>2097.4</ele>
        <time>2020-09-02T13:48:43.145Z</time>
      </trkpt>
      <trkpt lat="42.48257" lon="2.407">
        <ele>2096.4</ele>
        <time>2020-09-02T13:48:45.810Z</time>
      </trkpt>
      <trkpt lat="42.48259" lon="2.40699">
        <ele>2096.2</ele>
        <time>2020-09-02T13:48:46.312Z</time>
      </trkpt>
      <trkpt lat="42.48263" lon="2.40702">
        <ele>2096.2</ele>
        <time>2020-09-02T13:48:51.692Z</time>
      </trkpt>
      <trkpt lat="42.48266" lon="2.40705">
        <ele>2096.1</ele>
        <time>2020-09-02T13:48:52.845Z</time>
      </trkpt>
      <trkpt lat="42.48271" lon="2.40707">
        <ele>2095.8</ele>
        <time>2020-09-02T13:48:54.054Z</time>
      </trkpt>
      <trkpt lat="42.48276" lon="2.40708">
        <ele>2095.2</ele>
        <time>2020-09-02T13:48:55.245Z</time>
      </trkpt>
      <trkpt lat="42.48282" lon="2.40709">
        <ele>2094.5</ele>
        <time>2020-09-02T13:48:56.669Z</time>
      </trkpt>
      <trkpt lat="42.48287" lon="2.40709">
        <ele>2093.7</ele>
        <time>2020-09-02T13:48:57.847Z</time>
      </trkpt>
      <trkpt lat="42.48291" lon="2.40707">
        <ele>2093</ele>
        <time>2020-09-02T13:48:58.852Z</time>
      </trkpt>
      <trkpt lat="42.48295" lon="2.40704">
        <ele>2092.3</ele>
        <time>2020-09-02T13:48:59.929Z</time>
      </trkpt>
      <trkpt lat="42.483" lon="2.40702">
        <ele>2091.5</ele>
        <time>2020-09-02T13:49:01.157Z</time>
      </trkpt>
      <trkpt lat="42.48304" lon="2.40699">
        <ele>2090.8</ele>
        <time>2020-09-02T13:49:02.234Z</time>
      </trkpt>
      <trkpt lat="42.4831" lon="2.40697">
        <ele>2090</ele>
        <time>2020-09-02T13:49:03.690Z</time>
      </trkpt>
      <trkpt lat="42.48315" lon="2.40695">
        <ele>2089.3</ele>
        <time>2020-09-02T13:49:04.918Z</time>
      </trkpt>
      <trkpt lat="42.48319" lon="2.40693">
        <ele>2088.5</ele>
        <time>2020-09-02T13:49:05.923Z</time>
      </trkpt>
      <trkpt lat="42.48321" lon="2.4069">
        <ele>2088.1</ele>
        <time>2020-09-02T13:49:06.626Z</time>
      </trkpt>
      <trkpt lat="42.48327" lon="2.40683">
        <ele>2086.4</ele>
        <time>2020-09-02T13:49:08.491Z</time>
      </trkpt>
      <trkpt lat="42.48333" lon="2.40674">
        <ele>2083.8</ele>
        <time>2020-09-02T13:49:10.599Z</time>
      </trkpt>
      <trkpt lat="42.48343" lon="2.40667">
        <ele>2077.6</ele>
        <time>2020-09-02T13:49:13.251Z</time>
      </trkpt>
      <trkpt lat="42.48354" lon="2.40657">
        <ele>2078</ele>
        <time>2020-09-02T13:49:34.799Z</time>
      </trkpt>
      <trkpt lat="42.48367" lon="2.40651">
        <ele>2077.1</ele>
        <time>2020-09-02T13:49:37.789Z</time>
      </trkpt>
      <trkpt lat="42.48366" lon="2.40659">
        <ele>2077.3</ele>
        <time>2020-09-02T13:49:47.940Z</time>
      </trkpt>
      <trkpt lat="42.48368" lon="2.40664">
        <ele>2077.1</ele>
        <time>2020-09-02T13:49:48.997Z</time>
      </trkpt>
      <trkpt lat="42.48371" lon="2.40667">
        <ele>2072.4</ele>
        <time>2020-09-02T13:49:49.876Z</time>
      </trkpt>
      <trkpt lat="42.48377" lon="2.40667">
        <ele>2076.5</ele>
        <time>2020-09-02T13:50:17.114Z</time>
      </trkpt>
      <trkpt lat="42.48378" lon="2.40669">
        <ele>2071.6</ele>
        <time>2020-09-02T13:50:17.534Z</time>
      </trkpt>
      <trkpt lat="42.48381" lon="2.40667">
        <ele>2071.3</ele>
        <time>2020-09-02T13:50:18.322Z</time>
      </trkpt>
      <trkpt lat="42.48384" lon="2.40668">
        <ele>2071.1</ele>
        <time>2020-09-02T13:50:18.998Z</time>
      </trkpt>
      <trkpt lat="42.48386" lon="2.40672">
        <ele>2070.8</ele>
        <time>2020-09-02T13:50:19.838Z</time>
      </trkpt>
      <trkpt lat="42.48389" lon="2.40668">
        <ele>2070.7</ele>
        <time>2020-09-02T13:50:21.184Z</time>
      </trkpt>
      <trkpt lat="42.48395" lon="2.40668">
        <ele>2070.5</ele>
        <time>2020-09-02T13:50:22.917Z</time>
      </trkpt>
      <trkpt lat="42.48399" lon="2.4067">
        <ele>2070.3</ele>
        <time>2020-09-02T13:50:23.999Z</time>
      </trkpt>
      <trkpt lat="42.48401" lon="2.40675">
        <ele>2070</ele>
        <time>2020-09-02T13:50:24.988Z</time>
      </trkpt>
      <trkpt lat="42.484" lon="2.4068">
        <ele>2069.7</ele>
        <time>2020-09-02T13:50:25.888Z</time>
      </trkpt>
      <trkpt lat="42.48399" lon="2.40683">
        <ele>2069.6</ele>
        <time>2020-09-02T13:50:26.538Z</time>
      </trkpt>
      <trkpt lat="42.48403" lon="2.40685">
        <ele>2069.3</ele>
        <time>2020-09-02T13:50:27.542Z</time>
      </trkpt>
      <trkpt lat="42.48408" lon="2.40686">
        <ele>2069.1</ele>
        <time>2020-09-02T13:50:28.915Z</time>
      </trkpt>
      <trkpt lat="42.48411" lon="2.40689">
        <ele>2068.6</ele>
        <time>2020-09-02T13:50:29.793Z</time>
      </trkpt>
      <trkpt lat="42.48407" lon="2.40693">
        <ele>2068.2</ele>
        <time>2020-09-02T13:50:30.965Z</time>
      </trkpt>
      <trkpt lat="42.48405" lon="2.40698">
        <ele>2067.7</ele>
        <time>2020-09-02T13:50:31.953Z</time>
      </trkpt>
      <trkpt lat="42.48403" lon="2.40705">
        <ele>2066.8</ele>
        <time>2020-09-02T13:50:33.257Z</time>
      </trkpt>
      <trkpt lat="42.48401" lon="2.40712">
        <ele>2065.9</ele>
        <time>2020-09-02T13:50:34.562Z</time>
      </trkpt>
      <trkpt lat="42.48398" lon="2.40721">
        <ele>2064.5</ele>
        <time>2020-09-02T13:50:36.278Z</time>
      </trkpt>
      <trkpt lat="42.48397" lon="2.40729">
        <ele>2062.9</ele>
        <time>2020-09-02T13:50:37.688Z</time>
      </trkpt>
      <trkpt lat="42.48394" lon="2.40746">
        <ele>2060.9</ele>
        <time>2020-09-02T13:50:40.726Z</time>
      </trkpt>
      <trkpt lat="42.48394" lon="2.40756">
        <ele>2053</ele>
        <time>2020-09-02T13:50:42.463Z</time>
      </trkpt>
      <trkpt lat="42.484" lon="2.40766">
        <ele>2051.8</ele>
        <time>2020-09-02T13:50:44.704Z</time>
      </trkpt>
      <trkpt lat="42.484" lon="2.40767">
        <ele>2051.8</ele>
        <time>2020-09-02T13:50:45.571Z</time>
        <extensions>
          <visugpx:TrkExtension xmlns:visugpx="https://www.visugpx.com/editgpx/">
            <visugpx:node>14</visugpx:node>
            </visugpx:TrkExtension>
        </extensions>
      </trkpt>
      <trkpt lat="42.48401" lon="2.40774">
        <ele>2051.6</ele>
        <time>2020-09-02T13:50:47.021Z</time>
      </trkpt>
      <trkpt lat="42.48405" lon="2.40782">
        <ele>2050.7</ele>
        <time>2020-09-02T13:50:48.701Z</time>
      </trkpt>
      <trkpt lat="42.48408" lon="2.40794">
        <ele>2049</ele>
        <time>2020-09-02T13:50:50.902Z</time>
      </trkpt>
      <trkpt lat="42.48409" lon="2.40804">
        <ele>2046.3</ele>
        <time>2020-09-02T13:50:52.656Z</time>
      </trkpt>
      <trkpt lat="42.4841" lon="2.40817">
        <ele>2041.4</ele>
        <time>2020-09-02T13:50:54.927Z</time>
      </trkpt>
      <trkpt lat="42.48413" lon="2.40839">
        <ele>2030.3</ele>
        <time>2020-09-02T13:50:58.815Z</time>
      </trkpt>
      <trkpt lat="42.48423" lon="2.40855">
        <ele>2021.2</ele>
        <time>2020-09-02T13:51:02.460Z</time>
      </trkpt>
      <trkpt lat="42.48429" lon="2.40876">
        <ele>2017.9</ele>
        <time>2020-09-02T13:51:06.373Z</time>
      </trkpt>
      <trkpt lat="42.48431" lon="2.40895">
        <ele>2015.7</ele>
        <time>2020-09-02T13:51:09.708Z</time>
      </trkpt>
      <trkpt lat="42.4843" lon="2.40909">
        <ele>2014.5</ele>
        <time>2020-09-02T13:51:12.152Z</time>
      </trkpt>
      <trkpt lat="42.4843" lon="2.40929">
        <ele>2003.4</ele>
        <time>2020-09-02T13:51:15.628Z</time>
      </trkpt>
      <trkpt lat="42.48432" lon="2.40936">
        <ele>2001</ele>
        <time>2020-09-02T13:51:16.932Z</time>
      </trkpt>
      <trkpt lat="42.4843" lon="2.40954">
        <ele>1997.1</ele>
        <time>2020-09-02T13:51:20.095Z</time>
      </trkpt>
      <trkpt lat="42.48435" lon="2.40974">
        <ele>1993.8</ele>
        <time>2020-09-02T13:51:23.765Z</time>
      </trkpt>
      <trkpt lat="42.48434" lon="2.40989">
        <ele>1992.8</ele>
        <time>2020-09-02T13:51:26.382Z</time>
      </trkpt>
      <trkpt lat="42.48436" lon="2.40996">
        <ele>1992.4</ele>
        <time>2020-09-02T13:51:27.687Z</time>
      </trkpt>
      <trkpt lat="42.48433" lon="2.41009">
        <ele>1980.1</ele>
        <time>2020-09-02T13:51:30.054Z</time>
      </trkpt>
      <trkpt lat="42.48431" lon="2.41033">
        <ele>1973.9</ele>
        <time>2020-09-02T13:51:34.251Z</time>
      </trkpt>
      <trkpt lat="42.48428" lon="2.41053">
        <ele>1970.7</ele>
        <time>2020-09-02T13:51:37.797Z</time>
      </trkpt>
      <trkpt lat="42.48429" lon="2.41068">
        <ele>1969.6</ele>
        <time>2020-09-02T13:51:40.414Z</time>
      </trkpt>
      <trkpt lat="42.48427" lon="2.41074">
        <ele>1969.9</ele>
        <time>2020-09-02T13:51:51.243Z</time>
      </trkpt>
      <trkpt lat="42.48427" lon="2.4108">
        <ele>1970</ele>
        <time>2020-09-02T13:51:57.811Z</time>
      </trkpt>
      <trkpt lat="42.48428" lon="2.41082">
        <ele>1969.9</ele>
        <time>2020-09-02T13:51:58.229Z</time>
      </trkpt>
      <trkpt lat="42.4843" lon="2.41082">
        <ele>1969.5</ele>
        <time>2020-09-02T13:51:58.700Z</time>
      </trkpt>
      <trkpt lat="42.48431" lon="2.41085">
        <ele>1960.6</ele>
        <time>2020-09-02T13:51:59.272Z</time>
      </trkpt>
      <trkpt lat="42.48432" lon="2.41087">
        <ele>1959.5</ele>
        <time>2020-09-02T13:51:59.692Z</time>
      </trkpt>
      <trkpt lat="42.48435" lon="2.41088">
        <ele>1958</ele>
        <time>2020-09-02T13:52:00.420Z</time>
      </trkpt>
      <trkpt lat="42.48441" lon="2.41089">
        <ele>1954.7</ele>
        <time>2020-09-02T13:52:01.844Z</time>
      </trkpt>
      <trkpt lat="42.48444" lon="2.41083">
        <ele>1966.6</ele>
        <time>2020-09-02T13:52:26.113Z</time>
      </trkpt>
      <trkpt lat="42.48448" lon="2.41085">
        <ele>1952.3</ele>
        <time>2020-09-02T13:52:27.118Z</time>
      </trkpt>
      <trkpt lat="42.48451" lon="2.41087">
        <ele>1951.4</ele>
        <time>2020-09-02T13:52:27.906Z</time>
      </trkpt>
      <trkpt lat="42.48451" lon="2.41091">
        <ele>1951.2</ele>
        <time>2020-09-02T13:52:28.601Z</time>
      </trkpt>
      <trkpt lat="42.48452" lon="2.41092">
        <ele>1950.6</ele>
        <time>2020-09-02T13:52:28.893Z</time>
      </trkpt>
      <trkpt lat="42.48451" lon="2.41097">
        <ele>1950.3</ele>
        <time>2020-09-02T13:52:29.794Z</time>
      </trkpt>
      <trkpt lat="42.48453" lon="2.41097">
        <ele>1949.8</ele>
        <time>2020-09-02T13:52:30.265Z</time>
      </trkpt>
      <trkpt lat="42.48456" lon="2.41096">
        <ele>1949.2</ele>
        <time>2020-09-02T13:52:30.993Z</time>
      </trkpt>
      <trkpt lat="42.48457" lon="2.41095">
        <ele>1948.8</ele>
        <time>2020-09-02T13:52:31.286Z</time>
      </trkpt>
      <trkpt lat="42.48458" lon="2.41097">
        <ele>1948.4</ele>
        <time>2020-09-02T13:52:31.705Z</time>
      </trkpt>
      <trkpt lat="42.48458" lon="2.411">
        <ele>1948.3</ele>
        <time>2020-09-02T13:52:32.276Z</time>
      </trkpt>
      <trkpt lat="42.48458" lon="2.41104">
        <ele>1948</ele>
        <time>2020-09-02T13:52:32.971Z</time>
      </trkpt>
      <trkpt lat="42.48458" lon="2.41106">
        <ele>1947.7</ele>
        <time>2020-09-02T13:52:33.318Z</time>
      </trkpt>
      <trkpt lat="42.4846" lon="2.41108">
        <ele>1947.1</ele>
        <time>2020-09-02T13:52:33.904Z</time>
      </trkpt>
      <trkpt lat="42.48462" lon="2.4111">
        <ele>1946.4</ele>
        <time>2020-09-02T13:52:34.490Z</time>
      </trkpt>
      <trkpt lat="42.48463" lon="2.41114">
        <ele>1945.8</ele>
        <time>2020-09-02T13:52:35.223Z</time>
      </trkpt>
      <trkpt lat="42.48465" lon="2.41117">
        <ele>1945.1</ele>
        <time>2020-09-02T13:52:35.926Z</time>
      </trkpt>
      <trkpt lat="42.48467" lon="2.4112">
        <ele>1944.5</ele>
        <time>2020-09-02T13:52:36.629Z</time>
      </trkpt>
      <trkpt lat="42.48468" lon="2.41126">
        <ele>1943.8</ele>
        <time>2020-09-02T13:52:37.698Z</time>
      </trkpt>
      <trkpt lat="42.48468" lon="2.41132">
        <ele>1943</ele>
        <time>2020-09-02T13:52:38.740Z</time>
      </trkpt>
      <trkpt lat="42.48471" lon="2.41138">
        <ele>1941.6</ele>
        <time>2020-09-02T13:52:40.000Z</time>
      </trkpt>
      <trkpt lat="42.48472" lon="2.41143">
        <ele>1940.6</ele>
        <time>2020-09-02T13:52:40.900Z</time>
      </trkpt>
      <trkpt lat="42.48473" lon="2.41151">
        <ele>1939.2</ele>
        <time>2020-09-02T13:52:42.310Z</time>
      </trkpt>
      <trkpt lat="42.48473" lon="2.41155">
        <ele>1938.8</ele>
        <time>2020-09-02T13:52:43.005Z</time>
      </trkpt>
      <trkpt lat="42.48473" lon="2.41159">
        <ele>1938.2</ele>
        <time>2020-09-02T13:52:43.700Z</time>
      </trkpt>
      <trkpt lat="42.48473" lon="2.41162">
        <ele>1937.9</ele>
        <time>2020-09-02T13:52:44.222Z</time>
      </trkpt>
      <trkpt lat="42.48475" lon="2.41164">
        <ele>1937.3</ele>
        <time>2020-09-02T13:52:44.807Z</time>
      </trkpt>
      <trkpt lat="42.48477" lon="2.41165">
        <ele>1936.5</ele>
        <time>2020-09-02T13:52:45.310Z</time>
      </trkpt>
      <trkpt lat="42.4848" lon="2.41165">
        <ele>1935.2</ele>
        <time>2020-09-02T13:52:46.016Z</time>
      </trkpt>
      <trkpt lat="42.48482" lon="2.41165">
        <ele>1934.3</ele>
        <time>2020-09-02T13:52:46.488Z</time>
      </trkpt>
      <trkpt lat="42.48484" lon="2.41166">
        <ele>1933.5</ele>
        <time>2020-09-02T13:52:46.990Z</time>
      </trkpt>
      <trkpt lat="42.48485" lon="2.41167">
        <ele>1933.1</ele>
        <time>2020-09-02T13:52:47.283Z</time>
      </trkpt>
      <trkpt lat="42.48484" lon="2.41169">
        <ele>1925.8</ele>
        <time>2020-09-02T13:52:47.703Z</time>
      </trkpt>
      <trkpt lat="42.48485" lon="2.41172">
        <ele>1925.6</ele>
        <time>2020-09-02T13:52:48.275Z</time>
      </trkpt>
      <trkpt lat="42.48487" lon="2.41173">
        <ele>1925.3</ele>
        <time>2020-09-02T13:52:48.777Z</time>
      </trkpt>
      <trkpt lat="42.48488" lon="2.4118">
        <ele>1925.3</ele>
        <time>2020-09-02T13:52:54.966Z</time>
      </trkpt>
      <trkpt lat="42.48488" lon="2.41184">
        <ele>1925.3</ele>
        <time>2020-09-02T13:52:58.438Z</time>
      </trkpt>
      <trkpt lat="42.4849" lon="2.41185">
        <ele>1925</ele>
        <time>2020-09-02T13:52:58.940Z</time>
      </trkpt>
      <trkpt lat="42.48492" lon="2.41186">
        <ele>1924.9</ele>
        <time>2020-09-02T13:52:59.481Z</time>
      </trkpt>
      <trkpt lat="42.48493" lon="2.41187">
        <ele>1924.7</ele>
        <time>2020-09-02T13:52:59.774Z</time>
      </trkpt>
      <trkpt lat="42.48494" lon="2.4119">
        <ele>1924.6</ele>
        <time>2020-09-02T13:53:00.423Z</time>
      </trkpt>
      <trkpt lat="42.48495" lon="2.41196">
        <ele>1924.2</ele>
        <time>2020-09-02T13:53:01.492Z</time>
      </trkpt>
      <trkpt lat="42.48497" lon="2.41196">
        <ele>1924</ele>
        <time>2020-09-02T13:53:01.963Z</time>
      </trkpt>
      <trkpt lat="42.48499" lon="2.41201">
        <ele>1923.4</ele>
        <time>2020-09-02T13:53:02.952Z</time>
      </trkpt>
      <trkpt lat="42.485" lon="2.41204">
        <ele>1923</ele>
        <time>2020-09-02T13:53:03.524Z</time>
      </trkpt>
      <trkpt lat="42.48502" lon="2.41207">
        <ele>1907.6</ele>
        <time>2020-09-02T13:53:04.227Z</time>
      </trkpt>
      <trkpt lat="42.48503" lon="2.41209">
        <ele>1907.1</ele>
        <time>2020-09-02T13:53:04.647Z</time>
      </trkpt>
      <trkpt lat="42.48503" lon="2.41213">
        <ele>1906.5</ele>
        <time>2020-09-02T13:53:05.342Z</time>
      </trkpt>
      <trkpt lat="42.48503" lon="2.41216">
        <ele>1905.9</ele>
        <time>2020-09-02T13:53:05.863Z</time>
      </trkpt>
      <trkpt lat="42.48503" lon="2.41222">
        <ele>1905.3</ele>
        <time>2020-09-02T13:53:06.905Z</time>
      </trkpt>
      <trkpt lat="42.48502" lon="2.41223">
        <ele>1905.1</ele>
        <time>2020-09-02T13:53:07.198Z</time>
      </trkpt>
      <trkpt lat="42.48502" lon="2.41228">
        <ele>1904.7</ele>
        <time>2020-09-02T13:53:08.067Z</time>
      </trkpt>
      <trkpt lat="42.48502" lon="2.4123">
        <ele>1904.5</ele>
        <time>2020-09-02T13:53:08.415Z</time>
      </trkpt>
      <trkpt lat="42.48503" lon="2.41231">
        <ele>1904.4</ele>
        <time>2020-09-02T13:53:08.707Z</time>
      </trkpt>
      <trkpt lat="42.48505" lon="2.41231">
        <ele>1904.3</ele>
        <time>2020-09-02T13:53:09.202Z</time>
      </trkpt>
      <trkpt lat="42.48507" lon="2.41235">
        <ele>1904</ele>
        <time>2020-09-02T13:53:10.041Z</time>
      </trkpt>
      <trkpt lat="42.48509" lon="2.4124">
        <ele>1903.8</ele>
        <time>2020-09-02T13:53:11.099Z</time>
      </trkpt>
      <trkpt lat="42.48511" lon="2.41244">
        <ele>1903.6</ele>
        <time>2020-09-02T13:53:11.935Z</time>
      </trkpt>
      <trkpt lat="42.48509" lon="2.4125">
        <ele>1898.3</ele>
        <time>2020-09-02T13:53:13.079Z</time>
      </trkpt>
      <trkpt lat="42.48507" lon="2.41253">
        <ele>1899</ele>
        <time>2020-09-02T13:53:26.619Z</time>
      </trkpt>
      <trkpt lat="42.48506" lon="2.4126">
        <ele>1896.6</ele>
        <time>2020-09-02T13:53:27.857Z</time>
      </trkpt>
      <trkpt lat="42.48507" lon="2.41265">
        <ele>1894.4</ele>
        <time>2020-09-02T13:53:28.758Z</time>
      </trkpt>
      <trkpt lat="42.48509" lon="2.41268">
        <ele>1893.1</ele>
        <time>2020-09-02T13:53:29.460Z</time>
      </trkpt>
      <trkpt lat="42.48508" lon="2.41274">
        <ele>1891.6</ele>
        <time>2020-09-02T13:53:30.529Z</time>
      </trkpt>
      <trkpt lat="42.48507" lon="2.41278">
        <ele>1890.5</ele>
        <time>2020-09-02T13:53:31.263Z</time>
      </trkpt>
      <trkpt lat="42.48506" lon="2.4128">
        <ele>1890.2</ele>
        <time>2020-09-02T13:53:31.683Z</time>
      </trkpt>
      <trkpt lat="42.48505" lon="2.41286">
        <ele>1889</ele>
        <time>2020-09-02T13:53:32.752Z</time>
      </trkpt>
      <trkpt lat="42.48506" lon="2.41289">
        <ele>1888.3</ele>
        <time>2020-09-02T13:53:33.324Z</time>
      </trkpt>
      <trkpt lat="42.48528" lon="2.41275">
        <ele>1888.1</ele>
        <time>2020-09-02T13:53:42.741Z</time>
      </trkpt>
      <trkpt lat="42.48535" lon="2.4127">
        <ele>1887.5</ele>
        <time>2020-09-02T13:53:44.605Z</time>
      </trkpt>
      <trkpt lat="42.48542" lon="2.41266">
        <ele>1886.7</ele>
        <time>2020-09-02T13:53:46.395Z</time>
      </trkpt>
      <trkpt lat="42.48548" lon="2.41264">
        <ele>1885.8</ele>
        <time>2020-09-02T13:53:47.851Z</time>
      </trkpt>
      <trkpt lat="42.48559" lon="2.41257">
        <ele>1884.6</ele>
        <time>2020-09-02T13:53:50.714Z</time>
      </trkpt>
      <trkpt lat="42.48563" lon="2.41254">
        <ele>1884.1</ele>
        <time>2020-09-02T13:53:51.791Z</time>
      </trkpt>
      <trkpt lat="42.48568" lon="2.41249">
        <ele>1891.9</ele>
        <time>2020-09-02T13:54:19.995Z</time>
      </trkpt>
      <trkpt lat="42.48571" lon="2.41245">
        <ele>1890.9</ele>
        <time>2020-09-02T13:54:20.986Z</time>
      </trkpt>
      <trkpt lat="42.48574" lon="2.4124">
        <ele>1891.2</ele>
        <time>2020-09-02T13:54:31.688Z</time>
      </trkpt>
      <trkpt lat="42.48577" lon="2.41234">
        <ele>1892.8</ele>
        <time>2020-09-02T13:54:55.956Z</time>
      </trkpt>
      <trkpt lat="42.48579" lon="2.41228">
        <ele>1894.6</ele>
        <time>2020-09-02T13:55:18.000Z</time>
      </trkpt>
      <trkpt lat="42.48581" lon="2.41223">
        <ele>1896.1</ele>
        <time>2020-09-02T13:55:37.043Z</time>
      </trkpt>
      <trkpt lat="42.48583" lon="2.41219">
        <ele>1897.2</ele>
        <time>2020-09-02T13:55:53.222Z</time>
      </trkpt>
      <trkpt lat="42.48587" lon="2.41217">
        <ele>1893.9</ele>
        <time>2020-09-02T13:55:54.226Z</time>
      </trkpt>
      <trkpt lat="42.48592" lon="2.41218">
        <ele>1893.7</ele>
        <time>2020-09-02T13:55:55.599Z</time>
      </trkpt>
      <trkpt lat="42.48594" lon="2.4122">
        <ele>1893.4</ele>
        <time>2020-09-02T13:55:56.185Z</time>
      </trkpt>
      <trkpt lat="42.48596" lon="2.41222">
        <ele>1893.1</ele>
        <time>2020-09-02T13:55:56.770Z</time>
      </trkpt>
      <trkpt lat="42.486" lon="2.41225">
        <ele>1892.6</ele>
        <time>2020-09-02T13:55:57.847Z</time>
      </trkpt>
      <trkpt lat="42.48622" lon="2.41241">
        <ele>1892.5</ele>
        <time>2020-09-02T13:56:25.531Z</time>
      </trkpt>
      <trkpt lat="42.48628" lon="2.4124">
        <ele>1892.8</ele>
        <time>2020-09-02T13:56:37.941Z</time>
      </trkpt>
      <trkpt lat="42.48631" lon="2.41239">
        <ele>1893</ele>
        <time>2020-09-02T13:56:44.978Z</time>
      </trkpt>
      <trkpt lat="42.48638" lon="2.4124">
        <ele>1892.8</ele>
        <time>2020-09-02T13:56:47.118Z</time>
      </trkpt>
      <trkpt lat="42.4864" lon="2.41241">
        <ele>1892.5</ele>
        <time>2020-09-02T13:56:47.621Z</time>
      </trkpt>
      <trkpt lat="42.48641" lon="2.41244">
        <ele>1892.2</ele>
        <time>2020-09-02T13:56:48.193Z</time>
      </trkpt>
      <trkpt lat="42.48647" lon="2.41262">
        <ele>1877.7</ele>
        <time>2020-09-02T13:56:51.625Z</time>
      </trkpt>
      <trkpt lat="42.48652" lon="2.41266">
        <ele>1877.6</ele>
        <time>2020-09-02T13:56:53.629Z</time>
      </trkpt>
      <trkpt lat="42.48657" lon="2.41269">
        <ele>1877.5</ele>
        <time>2020-09-02T13:56:55.493Z</time>
      </trkpt>
      <trkpt lat="42.48662" lon="2.41272">
        <ele>1876.8</ele>
        <time>2020-09-02T13:56:56.781Z</time>
      </trkpt>
      <trkpt lat="42.48685" lon="2.41284">
        <ele>1874.5</ele>
        <time>2020-09-02T13:57:02.588Z</time>
      </trkpt>
      <trkpt lat="42.48694" lon="2.41287">
        <ele>1873.8</ele>
        <time>2020-09-02T13:57:04.772Z</time>
      </trkpt>
      <trkpt lat="42.48703" lon="2.41291">
        <ele>1873.3</ele>
        <time>2020-09-02T13:57:07.056Z</time>
      </trkpt>
      <trkpt lat="42.48712" lon="2.41294">
        <ele>1872.9</ele>
        <time>2020-09-02T13:57:09.491Z</time>
      </trkpt>
      <trkpt lat="42.48717" lon="2.41296">
        <ele>1872.5</ele>
        <time>2020-09-02T13:57:10.719Z</time>
      </trkpt>
      <trkpt lat="42.48724" lon="2.413">
        <ele>1871.5</ele>
        <time>2020-09-02T13:57:12.509Z</time>
      </trkpt>
      <trkpt lat="42.48731" lon="2.41304">
        <ele>1870.2</ele>
        <time>2020-09-02T13:57:14.299Z</time>
      </trkpt>
      <trkpt lat="42.48736" lon="2.41309">
        <ele>1868.6</ele>
        <time>2020-09-02T13:57:15.763Z</time>
      </trkpt>
      <trkpt lat="42.48741" lon="2.41313">
        <ele>1866.5</ele>
        <time>2020-09-02T13:57:17.131Z</time>
      </trkpt>
      <trkpt lat="42.48745" lon="2.41317">
        <ele>1864.7</ele>
        <time>2020-09-02T13:57:18.302Z</time>
      </trkpt>
      <trkpt lat="42.4875" lon="2.4132">
        <ele>1863.4</ele>
        <time>2020-09-02T13:57:19.590Z</time>
      </trkpt>
      <trkpt lat="42.48756" lon="2.41322">
        <ele>1862.9</ele>
        <time>2020-09-02T13:57:21.046Z</time>
      </trkpt>
      <trkpt lat="42.48761" lon="2.41324">
        <ele>1863.6</ele>
        <time>2020-09-02T13:57:44.711Z</time>
      </trkpt>
      <trkpt lat="42.48767" lon="2.41325">
        <ele>1864.7</ele>
        <time>2020-09-02T13:58:12.155Z</time>
      </trkpt>
      <trkpt lat="42.48775" lon="2.41329">
        <ele>1865.8</ele>
        <time>2020-09-02T13:58:48.536Z</time>
      </trkpt>
      <trkpt lat="42.48782" lon="2.41332">
        <ele>1866.2</ele>
        <time>2020-09-02T13:59:04.102Z</time>
      </trkpt>
      <trkpt lat="42.4879" lon="2.41337">
        <ele>1846.4</ele>
        <time>2020-09-02T13:59:06.178Z</time>
      </trkpt>
      <trkpt lat="42.48796" lon="2.4134">
        <ele>1846.1</ele>
        <time>2020-09-02T13:59:07.801Z</time>
      </trkpt>
      <trkpt lat="42.48802" lon="2.41342">
        <ele>1845.9</ele>
        <time>2020-09-02T13:59:09.603Z</time>
      </trkpt>
      <trkpt lat="42.48808" lon="2.41344">
        <ele>1846</ele>
        <time>2020-09-02T13:59:18.141Z</time>
      </trkpt>
      <trkpt lat="42.48818" lon="2.41347">
        <ele>1846.5</ele>
        <time>2020-09-02T13:59:39.057Z</time>
      </trkpt>
      <trkpt lat="42.4882" lon="2.41348">
        <ele>1846.5</ele>
        <time>2020-09-02T13:59:41.566Z</time>
        <extensions>
          <visugpx:TrkExtension xmlns:visugpx="https://www.visugpx.com/editgpx/">
            <visugpx:node>15</visugpx:node>
            </visugpx:TrkExtension>
        </extensions>
      </trkpt>
      <trkpt lat="42.48826" lon="2.41351">
        <ele>1846.2</ele>
        <time>2020-09-02T13:59:43.189Z</time>
      </trkpt>
      <trkpt lat="42.48832" lon="2.41355">
        <ele>1845.5</ele>
        <time>2020-09-02T13:59:44.765Z</time>
      </trkpt>
      <trkpt lat="42.48837" lon="2.41357">
        <ele>1838.5</ele>
        <time>2020-09-02T13:59:45.993Z</time>
      </trkpt>
      <trkpt lat="42.48842" lon="2.4136">
        <ele>1837</ele>
        <time>2020-09-02T13:59:47.281Z</time>
      </trkpt>
      <trkpt lat="42.48855" lon="2.4136">
        <ele>1835.3</ele>
        <time>2020-09-02T13:59:50.344Z</time>
      </trkpt>
      <trkpt lat="42.48861" lon="2.41358">
        <ele>1834.8</ele>
        <time>2020-09-02T13:59:51.800Z</time>
      </trkpt>
      <trkpt lat="42.48866" lon="2.41356">
        <ele>1834.4</ele>
        <time>2020-09-02T13:59:53.029Z</time>
      </trkpt>
      <trkpt lat="42.4887" lon="2.41354">
        <ele>1834.1</ele>
        <time>2020-09-02T13:59:54.033Z</time>
      </trkpt>
      <trkpt lat="42.48878" lon="2.4135">
        <ele>1833.4</ele>
        <time>2020-09-02T13:59:56.042Z</time>
      </trkpt>
      <trkpt lat="42.48885" lon="2.41345">
        <ele>1833</ele>
        <time>2020-09-02T13:59:57.988Z</time>
      </trkpt>
      <trkpt lat="42.48905" lon="2.41332">
        <ele>1843</ele>
        <time>2020-09-02T14:01:38.673Z</time>
      </trkpt>
      <trkpt lat="42.48923" lon="2.41322">
        <ele>1833.8</ele>
        <time>2020-09-02T14:01:43.257Z</time>
      </trkpt>
      <trkpt lat="42.48932" lon="2.41317">
        <ele>1833.8</ele>
        <time>2020-09-02T14:01:54.704Z</time>
      </trkpt>
      <trkpt lat="42.48941" lon="2.41312">
        <ele>1833.5</ele>
        <time>2020-09-02T14:01:57.586Z</time>
      </trkpt>
      <trkpt lat="42.48948" lon="2.41308">
        <ele>1833.2</ele>
        <time>2020-09-02T14:01:59.651Z</time>
      </trkpt>
      <trkpt lat="42.48954" lon="2.41302">
        <ele>1833.2</ele>
        <time>2020-09-02T14:02:08.425Z</time>
      </trkpt>
      <trkpt lat="42.4896" lon="2.41296">
        <ele>1833.1</ele>
        <time>2020-09-02T14:02:11.123Z</time>
      </trkpt>
      <trkpt lat="42.48968" lon="2.41289">
        <ele>1833</ele>
        <time>2020-09-02T14:02:14.702Z</time>
      </trkpt>
      <trkpt lat="42.48975" lon="2.41283">
        <ele>1833.2</ele>
        <time>2020-09-02T14:02:27.217Z</time>
      </trkpt>
      <trkpt lat="42.48982" lon="2.41277">
        <ele>1833.4</ele>
        <time>2020-09-02T14:02:39.732Z</time>
      </trkpt>
      <trkpt lat="42.48988" lon="2.41272">
        <ele>1833.8</ele>
        <time>2020-09-02T14:02:54.901Z</time>
      </trkpt>
      <trkpt lat="42.48994" lon="2.41267">
        <ele>1834.3</ele>
        <time>2020-09-02T14:03:11.706Z</time>
      </trkpt>
      <trkpt lat="42.49001" lon="2.41263">
        <ele>1822.2</ele>
        <time>2020-09-02T14:03:13.496Z</time>
      </trkpt>
      <trkpt lat="42.49008" lon="2.41259">
        <ele>1822.8</ele>
        <time>2020-09-02T14:03:32.794Z</time>
      </trkpt>
      <trkpt lat="42.49016" lon="2.41254">
        <ele>1819.3</ele>
        <time>2020-09-02T14:03:34.869Z</time>
      </trkpt>
      <trkpt lat="42.49024" lon="2.41249">
        <ele>1829.9</ele>
        <time>2020-09-02T14:04:14.859Z</time>
      </trkpt>
      <trkpt lat="42.49032" lon="2.41243">
        <ele>1828</ele>
        <time>2020-09-02T14:04:17.013Z</time>
      </trkpt>
      <trkpt lat="42.49038" lon="2.41237">
        <ele>1826.5</ele>
        <time>2020-09-02T14:04:18.769Z</time>
      </trkpt>
      <trkpt lat="42.49046" lon="2.41227">
        <ele>1825.2</ele>
        <time>2020-09-02T14:04:21.333Z</time>
      </trkpt>
      <trkpt lat="42.49051" lon="2.4122">
        <ele>1824.9</ele>
        <time>2020-09-02T14:04:23.245Z</time>
      </trkpt>
      <trkpt lat="42.49056" lon="2.41213">
        <ele>1825.1</ele>
        <time>2020-09-02T14:04:34.597Z</time>
      </trkpt>
      <trkpt lat="42.49061" lon="2.41206">
        <ele>1825.3</ele>
        <time>2020-09-02T14:04:45.949Z</time>
      </trkpt>
      <trkpt lat="42.49068" lon="2.41198">
        <ele>1825.4</ele>
        <time>2020-09-02T14:04:57.921Z</time>
      </trkpt>
      <trkpt lat="42.49073" lon="2.41192">
        <ele>1825.3</ele>
        <time>2020-09-02T14:05:00.291Z</time>
      </trkpt>
      <trkpt lat="42.49078" lon="2.41186">
        <ele>1824.9</ele>
        <time>2020-09-02T14:05:01.810Z</time>
      </trkpt>
      <trkpt lat="42.49083" lon="2.41181">
        <ele>1824.4</ele>
        <time>2020-09-02T14:05:03.274Z</time>
      </trkpt>
      <trkpt lat="42.49087" lon="2.41176">
        <ele>1812.6</ele>
        <time>2020-09-02T14:05:04.556Z</time>
      </trkpt>
      <trkpt lat="42.4909" lon="2.41171">
        <ele>1814.3</ele>
        <time>2020-09-02T14:05:26.134Z</time>
      </trkpt>
      <trkpt lat="42.49093" lon="2.41166">
        <ele>1823.7</ele>
        <time>2020-09-02T14:05:47.712Z</time>
      </trkpt>
      <trkpt lat="42.49112" lon="2.41162">
        <ele>1823.8</ele>
        <time>2020-09-02T14:06:11.475Z</time>
      </trkpt>
      <trkpt lat="42.49117" lon="2.41162">
        <ele>1823</ele>
        <time>2020-09-02T14:06:12.653Z</time>
      </trkpt>
      <trkpt lat="42.49126" lon="2.41163">
        <ele>1821.2</ele>
        <time>2020-09-02T14:06:14.781Z</time>
      </trkpt>
      <trkpt lat="42.49133" lon="2.41162">
        <ele>1819.1</ele>
        <time>2020-09-02T14:06:16.439Z</time>
      </trkpt>
      <trkpt lat="42.49141" lon="2.41161">
        <ele>1816.3</ele>
        <time>2020-09-02T14:06:18.332Z</time>
      </trkpt>
      <trkpt lat="42.49149" lon="2.41158">
        <ele>1813.3</ele>
        <time>2020-09-02T14:06:20.288Z</time>
      </trkpt>
      <trkpt lat="42.49157" lon="2.41155">
        <ele>1810.5</ele>
        <time>2020-09-02T14:06:22.244Z</time>
      </trkpt>
      <trkpt lat="42.49164" lon="2.41152">
        <ele>1810.3</ele>
        <time>2020-09-02T14:06:24.504Z</time>
      </trkpt>
      <trkpt lat="42.49173" lon="2.41147">
        <ele>1797.9</ele>
        <time>2020-09-02T14:06:26.795Z</time>
      </trkpt>
      <trkpt lat="42.49179" lon="2.41143">
        <ele>1798.3</ele>
        <time>2020-09-02T14:06:41.502Z</time>
      </trkpt>
      <trkpt lat="42.49188" lon="2.41138">
        <ele>1798.6</ele>
        <time>2020-09-02T14:06:57.457Z</time>
      </trkpt>
      <trkpt lat="42.49202" lon="2.41127">
        <ele>1798.6</ele>
        <time>2020-09-02T14:07:16.500Z</time>
      </trkpt>
      <trkpt lat="42.49217" lon="2.41119">
        <ele>1797.4</ele>
        <time>2020-09-02T14:07:20.298Z</time>
      </trkpt>
      <trkpt lat="42.49248" lon="2.41094">
        <ele>1796.9</ele>
        <time>2020-09-02T14:07:33.279Z</time>
      </trkpt>
      <trkpt lat="42.49254" lon="2.4109">
        <ele>1788.4</ele>
        <time>2020-09-02T14:07:34.854Z</time>
      </trkpt>
      <trkpt lat="42.4926" lon="2.41085">
        <ele>1786.1</ele>
        <time>2020-09-02T14:07:36.513Z</time>
      </trkpt>
      <trkpt lat="42.49266" lon="2.41082">
        <ele>1797.4</ele>
        <time>2020-09-02T14:08:05.544Z</time>
      </trkpt>
      <trkpt lat="42.49271" lon="2.41077">
        <ele>1797.3</ele>
        <time>2020-09-02T14:08:07.718Z</time>
      </trkpt>
      <trkpt lat="42.49276" lon="2.41072">
        <ele>1797.3</ele>
        <time>2020-09-02T14:08:15.030Z</time>
      </trkpt>
      <trkpt lat="42.49279" lon="2.41065">
        <ele>1797.6</ele>
        <time>2020-09-02T14:08:27.337Z</time>
      </trkpt>
      <trkpt lat="42.49282" lon="2.4106">
        <ele>1798.1</ele>
        <time>2020-09-02T14:08:42.660Z</time>
      </trkpt>
      <trkpt lat="42.49285" lon="2.41053">
        <ele>1798.9</ele>
        <time>2020-09-02T14:09:09.762Z</time>
      </trkpt>
      <trkpt lat="42.49287" lon="2.41047">
        <ele>1799.9</ele>
        <time>2020-09-02T14:09:31.804Z</time>
      </trkpt>
      <trkpt lat="42.49289" lon="2.41042">
        <ele>1800.9</ele>
        <time>2020-09-02T14:09:50.845Z</time>
      </trkpt>
      <trkpt lat="42.4929" lon="2.41037">
        <ele>1801.8</ele>
        <time>2020-09-02T14:10:08.187Z</time>
      </trkpt>
      <trkpt lat="42.49293" lon="2.41034">
        <ele>1802.2</ele>
        <time>2020-09-02T14:10:20.471Z</time>
      </trkpt>
      <trkpt lat="42.49295" lon="2.41032">
        <ele>1802.2</ele>
        <time>2020-09-02T14:10:23.395Z</time>
      </trkpt>
      <trkpt lat="42.49297" lon="2.41033">
        <ele>1801.9</ele>
        <time>2020-09-02T14:10:23.898Z</time>
      </trkpt>
      <trkpt lat="42.493" lon="2.41034">
        <ele>1801.4</ele>
        <time>2020-09-02T14:10:24.626Z</time>
      </trkpt>
      <trkpt lat="42.49301" lon="2.41036">
        <ele>1800.8</ele>
        <time>2020-09-02T14:10:25.045Z</time>
      </trkpt>
      <trkpt lat="42.49303" lon="2.41037">
        <ele>1800.2</ele>
        <time>2020-09-02T14:10:25.548Z</time>
      </trkpt>
      <trkpt lat="42.49305" lon="2.4104">
        <ele>1799.4</ele>
        <time>2020-09-02T14:10:26.250Z</time>
      </trkpt>
      <trkpt lat="42.49308" lon="2.41042">
        <ele>1798.3</ele>
        <time>2020-09-02T14:10:27.038Z</time>
      </trkpt>
      <trkpt lat="42.49313" lon="2.41044">
        <ele>1797</ele>
        <time>2020-09-02T14:10:28.266Z</time>
      </trkpt>
      <trkpt lat="42.49318" lon="2.41045">
        <ele>1796.1</ele>
        <time>2020-09-02T14:10:29.457Z</time>
      </trkpt>
      <trkpt lat="42.49324" lon="2.41046">
        <ele>1795</ele>
        <time>2020-09-02T14:10:30.882Z</time>
      </trkpt>
      <trkpt lat="42.49331" lon="2.41047">
        <ele>1794.1</ele>
        <time>2020-09-02T14:10:32.540Z</time>
      </trkpt>
      <trkpt lat="42.49339" lon="2.41047">
        <ele>1780.5</ele>
        <time>2020-09-02T14:10:34.425Z</time>
      </trkpt>
      <trkpt lat="42.49348" lon="2.41047">
        <ele>1780.1</ele>
        <time>2020-09-02T14:10:36.762Z</time>
      </trkpt>
      <trkpt lat="42.49356" lon="2.41047">
        <ele>1779.6</ele>
        <time>2020-09-02T14:10:38.545Z</time>
      </trkpt>
      <trkpt lat="42.49362" lon="2.41045">
        <ele>1779.6</ele>
        <time>2020-09-02T14:10:45.817Z</time>
      </trkpt>
      <trkpt lat="42.49368" lon="2.41043">
        <ele>1779.8</ele>
        <time>2020-09-02T14:10:56.154Z</time>
      </trkpt>
      <trkpt lat="42.49374" lon="2.4104">
        <ele>1780</ele>
        <time>2020-09-02T14:11:06.702Z</time>
      </trkpt>
      <trkpt lat="42.4938" lon="2.41037">
        <ele>1780.1</ele>
        <time>2020-09-02T14:11:15.487Z</time>
      </trkpt>
      <trkpt lat="42.49386" lon="2.41033">
        <ele>1780.5</ele>
        <time>2020-09-02T14:11:30.193Z</time>
      </trkpt>
      <trkpt lat="42.49392" lon="2.4103">
        <ele>1781.2</ele>
        <time>2020-09-02T14:11:51.754Z</time>
      </trkpt>
      <trkpt lat="42.49398" lon="2.41026">
        <ele>1782.2</ele>
        <time>2020-09-02T14:12:22.105Z</time>
      </trkpt>
      <trkpt lat="42.49402" lon="2.41023">
        <ele>1783</ele>
        <time>2020-09-02T14:12:42.856Z</time>
      </trkpt>
      <trkpt lat="42.49407" lon="2.41021">
        <ele>1784</ele>
        <time>2020-09-02T14:13:06.521Z</time>
      </trkpt>
      <trkpt lat="42.49414" lon="2.41019">
        <ele>1784.8</ele>
        <time>2020-09-02T14:13:31.269Z</time>
      </trkpt>
      <trkpt lat="42.49421" lon="2.41018">
        <ele>1771.7</ele>
        <time>2020-09-02T14:13:32.928Z</time>
      </trkpt>
      <trkpt lat="42.49429" lon="2.41017">
        <ele>1769.8</ele>
        <time>2020-09-02T14:13:34.821Z</time>
      </trkpt>
      <trkpt lat="42.49438" lon="2.41015">
        <ele>1766.4</ele>
        <time>2020-09-02T14:13:36.970Z</time>
      </trkpt>
      <trkpt lat="42.49447" lon="2.41011">
        <ele>1763.1</ele>
        <time>2020-09-02T14:13:39.202Z</time>
      </trkpt>
      <trkpt lat="42.49458" lon="2.41008">
        <ele>1759.1</ele>
        <time>2020-09-02T14:13:41.845Z</time>
      </trkpt>
      <trkpt lat="42.49468" lon="2.41005">
        <ele>1756.5</ele>
        <time>2020-09-02T14:13:44.259Z</time>
      </trkpt>
      <trkpt lat="42.49476" lon="2.41002">
        <ele>1754.8</ele>
        <time>2020-09-02T14:13:46.214Z</time>
      </trkpt>
      <trkpt lat="42.49486" lon="2.40999">
        <ele>1772.9</ele>
        <time>2020-09-02T14:14:32.709Z</time>
      </trkpt>
      <trkpt lat="42.49499" lon="2.40994">
        <ele>1762.9</ele>
        <time>2020-09-02T14:14:35.893Z</time>
      </trkpt>
      <trkpt lat="42.49512" lon="2.4099">
        <ele>1763.4</ele>
        <time>2020-09-02T14:14:59.794Z</time>
      </trkpt>
      <trkpt lat="42.49519" lon="2.40986">
        <ele>1766.5</ele>
        <time>2020-09-02T14:15:34.278Z</time>
      </trkpt>
      <trkpt lat="42.49524" lon="2.40982">
        <ele>1768.4</ele>
        <time>2020-09-02T14:16:00.631Z</time>
      </trkpt>
      <trkpt lat="42.49528" lon="2.40978">
        <ele>1769.8</ele>
        <time>2020-09-02T14:16:23.192Z</time>
      </trkpt>
      <trkpt lat="42.49533" lon="2.40975">
        <ele>1770.8</ele>
        <time>2020-09-02T14:16:48.013Z</time>
      </trkpt>
      <trkpt lat="42.49538" lon="2.40973">
        <ele>1771.2</ele>
        <time>2020-09-02T14:17:01.019Z</time>
      </trkpt>
      <trkpt lat="42.49542" lon="2.40973">
        <ele>1771.1</ele>
        <time>2020-09-02T14:17:02.281Z</time>
      </trkpt>
      <trkpt lat="42.49545" lon="2.40973">
        <ele>1770.9</ele>
        <time>2020-09-02T14:17:02.929Z</time>
      </trkpt>
      <trkpt lat="42.49549" lon="2.40973">
        <ele>1770.6</ele>
        <time>2020-09-02T14:17:03.871Z</time>
      </trkpt>
      <trkpt lat="42.49554" lon="2.40971">
        <ele>1770.7</ele>
        <time>2020-09-02T14:17:11.315Z</time>
      </trkpt>
      <trkpt lat="42.49558" lon="2.40969">
        <ele>1771</ele>
        <time>2020-09-02T14:17:21.440Z</time>
      </trkpt>
      <trkpt lat="42.49562" lon="2.40966">
        <ele>1771.3</ele>
        <time>2020-09-02T14:17:31.920Z</time>
      </trkpt>
      <trkpt lat="42.49567" lon="2.40965">
        <ele>1771.6</ele>
        <time>2020-09-02T14:17:43.001Z</time>
      </trkpt>
      <trkpt lat="42.4957" lon="2.40964">
        <ele>1771.7</ele>
        <time>2020-09-02T14:17:48.169Z</time>
      </trkpt>
      <trkpt lat="42.49574" lon="2.40964">
        <ele>1771.6</ele>
        <time>2020-09-02T14:17:49.431Z</time>
      </trkpt>
      <trkpt lat="42.49579" lon="2.40964">
        <ele>1771.2</ele>
        <time>2020-09-02T14:17:50.609Z</time>
      </trkpt>
      <trkpt lat="42.49584" lon="2.40965">
        <ele>1768.5</ele>
        <time>2020-09-02T14:17:51.800Z</time>
      </trkpt>
      <trkpt lat="42.49589" lon="2.40967">
        <ele>1767.9</ele>
        <time>2020-09-02T14:17:53.028Z</time>
      </trkpt>
      <trkpt lat="42.49595" lon="2.40969">
        <ele>1767.3</ele>
        <time>2020-09-02T14:17:54.484Z</time>
      </trkpt>
      <trkpt lat="42.49602" lon="2.40972">
        <ele>1766.8</ele>
        <time>2020-09-02T14:17:56.214Z</time>
      </trkpt>
      <trkpt lat="42.4961" lon="2.40976">
        <ele>1766.7</ele>
        <time>2020-09-02T14:17:59.368Z</time>
      </trkpt>
      <trkpt lat="42.4962" lon="2.40981">
        <ele>1766.7</ele>
        <time>2020-09-02T14:18:11.912Z</time>
      </trkpt>
      <trkpt lat="42.49629" lon="2.40985">
        <ele>1766.4</ele>
        <time>2020-09-02T14:18:14.694Z</time>
      </trkpt>
      <trkpt lat="42.49642" lon="2.40992">
        <ele>1765.2</ele>
        <time>2020-09-02T14:18:17.990Z</time>
      </trkpt>
      <trkpt lat="42.4965" lon="2.40995">
        <ele>1763.6</ele>
        <time>2020-09-02T14:18:19.946Z</time>
      </trkpt>
      <trkpt lat="42.49659" lon="2.41">
        <ele>1750.7</ele>
        <time>2020-09-02T14:18:22.237Z</time>
      </trkpt>
      <trkpt lat="42.49665" lon="2.41004">
        <ele>1753.1</ele>
        <time>2020-09-02T14:18:52.589Z</time>
      </trkpt>
      <trkpt lat="42.49672" lon="2.41009">
        <ele>1748.9</ele>
        <time>2020-09-02T14:18:54.453Z</time>
      </trkpt>
      <trkpt lat="42.49678" lon="2.41016">
        <ele>1744.4</ele>
        <time>2020-09-02T14:18:56.318Z</time>
      </trkpt>
      <trkpt lat="42.49683" lon="2.41021">
        <ele>1741.6</ele>
        <time>2020-09-02T14:18:57.781Z</time>
      </trkpt>
      <trkpt lat="42.49688" lon="2.41026">
        <ele>1739.7</ele>
        <time>2020-09-02T14:18:59.245Z</time>
      </trkpt>
      <trkpt lat="42.4969" lon="2.41027">
        <ele>1738.8</ele>
        <time>2020-09-02T14:18:59.747Z</time>
      </trkpt>
      <trkpt lat="42.49695" lon="2.41029">
        <ele>1737.9</ele>
        <time>2020-09-02T14:19:00.976Z</time>
      </trkpt>
      <trkpt lat="42.497" lon="2.4103">
        <ele>1737.3</ele>
        <time>2020-09-02T14:19:02.167Z</time>
      </trkpt>
      <trkpt lat="42.49705" lon="2.41029">
        <ele>1737.1</ele>
        <time>2020-09-02T14:19:03.540Z</time>
      </trkpt>
      <trkpt lat="42.49708" lon="2.41027">
        <ele>1737.1</ele>
        <time>2020-09-02T14:19:07.474Z</time>
      </trkpt>
      <trkpt lat="42.49715" lon="2.41022">
        <ele>1737.4</ele>
        <time>2020-09-02T14:19:21.741Z</time>
      </trkpt>
      <trkpt lat="42.49729" lon="2.41006">
        <ele>1738.7</ele>
        <time>2020-09-02T14:20:05.432Z</time>
      </trkpt>
      <trkpt lat="42.49745" lon="2.40986">
        <ele>1751.7</ele>
        <time>2020-09-02T14:21:44.211Z</time>
      </trkpt>
      <trkpt lat="42.49752" lon="2.40979">
        <ele>1742.8</ele>
        <time>2020-09-02T14:21:46.261Z</time>
      </trkpt>
      <trkpt lat="42.49759" lon="2.40972">
        <ele>1743.3</ele>
        <time>2020-09-02T14:22:05.083Z</time>
      </trkpt>
      <trkpt lat="42.49766" lon="2.40965">
        <ele>1743.8</ele>
        <time>2020-09-02T14:22:23.905Z</time>
      </trkpt>
      <trkpt lat="42.49774" lon="2.40957">
        <ele>1744.3</ele>
        <time>2020-09-02T14:22:44.401Z</time>
      </trkpt>
      <trkpt lat="42.49782" lon="2.40948">
        <ele>1744.6</ele>
        <time>2020-09-02T14:23:01.031Z</time>
      </trkpt>
      <trkpt lat="42.4979" lon="2.40941">
        <ele>1744.5</ele>
        <time>2020-09-02T14:23:04.609Z</time>
      </trkpt>
      <trkpt lat="42.49797" lon="2.40931">
        <ele>1744.4</ele>
        <time>2020-09-02T14:23:08.465Z</time>
      </trkpt>
      <trkpt lat="42.49803" lon="2.40925">
        <ele>1744</ele>
        <time>2020-09-02T14:23:10.250Z</time>
      </trkpt>
      <trkpt lat="42.49809" lon="2.40919">
        <ele>1743.6</ele>
        <time>2020-09-02T14:23:12.035Z</time>
      </trkpt>
      <trkpt lat="42.49816" lon="2.40914">
        <ele>1756.5</ele>
        <time>2020-09-02T14:23:47.950Z</time>
      </trkpt>
      <trkpt lat="42.49824" lon="2.4091">
        <ele>1752.7</ele>
        <time>2020-09-02T14:23:49.960Z</time>
      </trkpt>
      <trkpt lat="42.49832" lon="2.40907">
        <ele>1751.5</ele>
        <time>2020-09-02T14:23:51.915Z</time>
      </trkpt>
      <trkpt lat="42.49843" lon="2.40904">
        <ele>1744.7</ele>
        <time>2020-09-02T14:23:54.559Z</time>
      </trkpt>
      <trkpt lat="42.49852" lon="2.40901">
        <ele>1744.7</ele>
        <time>2020-09-02T14:24:05.467Z</time>
      </trkpt>
      <trkpt lat="42.49861" lon="2.40899">
        <ele>1744.2</ele>
        <time>2020-09-02T14:24:07.630Z</time>
      </trkpt>
      <trkpt lat="42.4987" lon="2.40897">
        <ele>1743.2</ele>
        <time>2020-09-02T14:24:09.779Z</time>
      </trkpt>
      <trkpt lat="42.49878" lon="2.40896">
        <ele>1741.9</ele>
        <time>2020-09-02T14:24:11.672Z</time>
      </trkpt>
      <trkpt lat="42.49887" lon="2.40896">
        <ele>1740.2</ele>
        <time>2020-09-02T14:24:13.793Z</time>
      </trkpt>
      <trkpt lat="42.49898" lon="2.40894">
        <ele>1738.1</ele>
        <time>2020-09-02T14:24:16.408Z</time>
      </trkpt>
      <trkpt lat="42.49909" lon="2.40892">
        <ele>1736.9</ele>
        <time>2020-09-02T14:24:19.023Z</time>
      </trkpt>
      <trkpt lat="42.49919" lon="2.40889">
        <ele>1726.5</ele>
        <time>2020-09-02T14:24:21.436Z</time>
      </trkpt>
      <trkpt lat="42.4993" lon="2.40885">
        <ele>1727</ele>
        <time>2020-09-02T14:24:43.856Z</time>
      </trkpt>
      <trkpt lat="42.4994" lon="2.40881">
        <ele>1727.2</ele>
        <time>2020-09-02T14:24:58.743Z</time>
      </trkpt>
      <trkpt lat="42.4995" lon="2.40879">
        <ele>1727</ele>
        <time>2020-09-02T14:25:02.127Z</time>
      </trkpt>
      <trkpt lat="42.49961" lon="2.40876">
        <ele>1726.4</ele>
        <time>2020-09-02T14:25:04.818Z</time>
      </trkpt>
      <trkpt lat="42.49971" lon="2.40875">
        <ele>1725.7</ele>
        <time>2020-09-02T14:25:07.181Z</time>
      </trkpt>
      <trkpt lat="42.49978" lon="2.40873">
        <ele>1725.3</ele>
        <time>2020-09-02T14:25:08.862Z</time>
      </trkpt>
      <trkpt lat="42.49986" lon="2.40871">
        <ele>1724.9</ele>
        <time>2020-09-02T14:25:10.887Z</time>
      </trkpt>
      <trkpt lat="42.49994" lon="2.40868">
        <ele>1724.6</ele>
        <time>2020-09-02T14:25:13.218Z</time>
      </trkpt>
      <trkpt lat="42.49995" lon="2.40868">
        <ele>1724.6</ele>
        <time>2020-09-02T14:25:14.395Z</time>
        <extensions>
          <visugpx:TrkExtension xmlns:visugpx="https://www.visugpx.com/editgpx/">
            <visugpx:node>16</visugpx:node>
            </visugpx:TrkExtension>
        </extensions>
      </trkpt>
      <trkpt lat="42.50036" lon="2.40948">
        <ele>1706.8</ele>
        <time>2020-09-02T14:25:31.321Z</time>
      </trkpt>
    </trkseg>
  </trk>
</gpx>